[[{"header":{"parameterUnit":"m.s-1","parameterCategory":1,"la1":30.6,"la2":28.766,"lo1":-90.7593,"lo2":-88.6598,"dy":0.0162,"dx":0.0183,"nx":116,"ny":114,"refTime":"2023-09-08T18:00:00:Z","depth":0,"parameterNumber":2,"parameterNumberName":"U-component_of_WINDS"},"data":[0.0,0.0,0.0,0.0,0.0,0.0,0.0,0.0,0.0,0.0,0.0,0.0,0.0,0.0,0.0,0.0,0.0,0.0,0.0,0.0,0.0,0.0,0.0,0.0,0.0,0.0,0.0,0.0,0.0,0.0,0.0,0.0,0.0,0.0,0.0,0.0,0.0,0.0,0.0,0.0,0.0,0.0,0.0,0.0,0.0,0.0,0.0,0.0,0.0,0.0,0.0,0.0,0.0,0.0,0.0,0.0,0.0,0.0,0.0,0.0,0.0,0.0,0.0,0.0,0.0,0.0,0.0,0.0,0.0,0.0,0.0,0.0,0.0,0.0,0.0,0.0,0.0,0.0,0.0,0.0,0.0,0.0,0.0,0.0,0.0,0.0,0.0,0.0,0.0,0.0,0.0,0.0,0.0,0.0,0.0,0.0,0.0,0.0,0.0,0.0,0.0,0.0,0.0,0.0,0.0,0.0,0.0,0.0,0.0,0.0,0.0,0.0,0.0,0.0,0.0,0.0,0.0,0.0,0.0,0.0,0.0,0.0,0.0,0.0,0.0,0.0,0.0,0.0,0.0,0.0,0.0,0.0,0.0,0.0,0.0,0.0,0.0,0.0,0.0,0.0,0.0,0.0,0.0,0.0,0.0,0.0,0.0,0.0,0.0,0.0,0.0,0.0,0.0,0.0,0.0,0.0,0.0,0.0,0.0,0.0,0.0,0.0,0.0,0.0,0.0,0.0,0.0,0.0,0.0,0.0,0.0,0.0,0.0,0.0,0.0,0.0,0.0,0.0,0.0,0.0,0.0,0.0,0.0,0.0,0.0,0.0,0.0,0.0,0.0,0.0,0.0,0.0,0.0,0.0,0.0,0.0,0.0,0.0,0.0,0.0,0.0,0.0,0.0,0.0,0.0,0.0,0.0,0.0,0.0,0.0,0.0,0.0,0.0,0.0,0.0,0.0,0.0,0.0,0.0,0.0,0.0,0.0,0.0,0.0,0.0,0.0,0.0,0.0,0.0,0.0,0.0,0.0,0.0,0.0,0.0,0.0,0.0,0.0,0.0,0.0,0.0,0.0,0.0,0.0,0.0,0.0,0.0,0.0,0.0,0.0,0.0,0.0,0.0,0.0,0.0,0.0,0.0,0.0,0.0,0.0,0.0,0.0,0.0,0.0,0.0,0.0,0.0,0.0,0.0,0.0,0.0,0.0,0.0,0.0,0.0,0.0,0.0,0.0,0.0,0.0,0.0,0.0,0.0,0.0,0.0,0.0,0.0,0.0,0.0,0.0,0.0,0.0,0.0,0.0,0.0,0.0,0.0,0.0,0.0,0.0,0.0,0.0,0.0,0.0,0.0,0.0,0.0,0.0,0.0,0.0,0.0,0.0,0.0,0.0,0.0,0.0,0.0,0.0,0.0,0.0,0.0,0.0,0.0,0.0,0.0,0.0,0.0,0.0,0.0,0.0,0.0,0.0,0.0,0.0,0.0,0.0,0.0,0.0,0.0,0.0,0.0,0.0,0.0,0.0,0.0,0.0,0.0,0.0,0.0,0.0,0.0,0.0,0.0,0.0,0.0,0.0,0.0,0.0,0.0,0.0,0.0,0.0,0.0,0.0,0.0,0.0,0.0,0.0,0.0,0.0,0.0,0.0,0.0,0.0,0.0,0.0,0.0,0.0,0.0,0.0,0.0,0.0,0.0,0.0,0.0,0.0,0.0,0.0,0.0,0.0,0.0,0.0,0.0,0.0,0.0,0.0,0.0,0.0,0.0,0.0,0.0,0.0,0.0,0.0,0.0,0.0,0.0,0.0,0.0,0.0,0.0,0.0,0.0,0.0,0.0,0.0,0.0,0.0,0.0,0.0,0.0,0.0,0.0,0.0,0.0,0.0,0.0,0.0,0.0,0.0,0.0,0.0,0.0,0.0,0.0,0.0,0.0,0.0,0.0,0.0,0.0,0.0,0.0,0.0,0.0,0.0,0.0,0.0,0.0,0.0,0.0,0.0,0.0,0.0,0.0,0.0,0.0,0.0,0.0,0.0,0.0,0.0,0.0,0.0,0.0,0.0,0.0,0.0,0.0,0.0,0.0,0.0,0.0,0.0,0.0,0.0,0.0,0.0,0.0,0.0,0.0,0.0,0.0,0.0,0.0,0.0,0.0,0.0,0.0,0.0,0.0,0.0,0.0,0.0,0.0,0.0,0.0,0.0,0.0,0.0,0.0,0.0,0.0,0.0,0.0,0.0,0.0,0.0,0.0,0.0,0.0,0.0,0.0,0.0,0.0,0.0,0.0,0.0,0.0,0.0,0.0,0.0,0.0,0.0,0.0,0.0,0.0,0.0,0.0,0.0,0.0,0.0,0.0,0.0,0.0,0.0,0.0,0.0,0.0,0.0,0.0,0.0,0.0,0.0,0.0,0.0,0.0,0.0,0.0,0.0,0.0,0.0,0.0,0.0,0.0,0.0,0.0,0.0,0.0,0.0,0.0,0.0,0.0,0.0,0.0,0.0,0.0,0.0,0.0,0.0,0.0,0.0,0.0,0.0,0.0,0.0,0.0,0.0,0.0,0.0,0.0,0.0,0.0,0.0,0.0,0.0,0.0,0.0,0.0,0.0,0.0,0.0,0.0,0.0,0.0,0.0,0.0,0.0,0.0,0.0,0.0,0.0,0.0,0.0,0.0,0.0,0.0,0.0,0.0,0.0,0.0,0.0,0.0,0.0,0.0,0.0,0.0,0.0,0.0,0.0,0.0,0.0,0.0,0.0,0.0,0.0,0.0,0.0,0.0,0.0,0.0,0.0,0.0,0.0,0.0,0.0,0.0,0.0,0.0,0.0,0.0,0.0,0.0,0.0,0.0,0.0,0.0,0.0,0.0,0.0,0.0,0.0,0.0,0.0,0.0,0.0,0.0,0.0,0.0,0.0,0.0,0.0,0.0,0.0,0.0,0.0,0.0,0.0,0.0,0.0,0.0,0.0,0.0,0.0,0.0,0.0,0.0,0.0,0.0,0.0,0.0,0.0,0.0,0.0,0.0,0.0,0.0,0.0,0.0,0.0,0.0,0.0,0.0,0.0,0.0,0.0,0.0,0.0,0.0,0.0,0.0,0.0,0.0,0.0,0.0,0.0,0.0,0.0,0.0,0.0,0.0,0.0,0.0,0.0,0.0,0.0,0.0,0.0,0.0,0.0,0.0,0.0,0.0,0.0,0.0,0.0,0.0,0.0,0.0,0.0,0.0,0.0,0.0,0.0,0.0,0.0,0.0,0.0,0.0,0.0,0.0,0.0,0.0,0.0,0.0,0.0,0.0,0.0,0.0,0.0,0.0,0.0,0.0,0.0,0.0,0.0,0.0,0.0,0.0,0.0,0.0,0.0,0.0,0.0,0.0,0.0,0.0,0.0,0.0,0.0,0.0,0.0,0.0,0.0,0.0,0.0,0.0,0.0,0.0,0.0,0.0,0.0,0.0,0.0,0.0,0.0,0.0,0.0,0.0,0.0,0.0,0.0,0.0,0.0,0.0,0.0,0.0,0.0,0.0,0.0,0.0,0.0,0.0,0.0,0.0,0.0,0.0,0.0,0.0,0.0,0.0,0.0,0.0,0.0,0.0,0.0,0.0,0.0,0.0,0.0,0.0,0.0,0.0,0.0,0.0,0.0,0.0,0.0,0.0,0.0,0.0,0.0,0.0,0.0,0.0,0.0,0.0,0.0,0.0,0.0,0.0,0.0,0.0,0.0,0.0,0.0,0.0,0.0,0.0,0.0,0.0,0.0,0.0,0.0,0.0,0.0,0.0,0.0,0.0,0.0,0.0,0.0,0.0,0.0,0.0,0.0,0.0,0.0,0.0,0.0,0.0,0.0,0.0,0.0,0.0,0.0,0.0,0.0,0.0,0.0,0.0,0.0,0.0,0.0,0.0,0.0,0.0,0.0,0.0,0.0,0.0,0.0,0.0,0.0,0.0,0.0,0.0,0.0,0.0,0.0,0.0,0.0,0.0,0.0,0.0,0.0,0.0,0.0,0.0,0.0,0.0,0.0,0.0,0.0,0.0,0.0,0.0,0.0,0.0,0.0,0.0,0.0,0.0,0.0,0.0,0.0,0.0,0.0,0.0,0.0,0.0,0.0,0.0,0.0,0.0,0.0,0.0,0.0,0.0,0.0,0.0,0.0,0.0,0.0,0.0,0.0,0.0,0.0,0.0,0.0,0.0,0.0,0.0,0.0,0.0,0.0,0.0,0.0,0.0,0.0,0.0,0.0,0.0,0.0,0.0,0.0,0.0,0.0,0.0,0.0,0.0,0.0,0.0,0.0,0.0,0.0,0.0,0.0,0.0,0.0,0.0,0.0,0.0,0.0,0.0,0.0,0.0,0.0,0.0,0.0,0.0,0.0,0.0,0.0,0.0,0.0,0.0,0.0,0.0,0.0,0.0,0.0,0.0,0.0,0.0,0.0,0.0,0.0,0.0,0.0,0.0,0.0,0.0,0.0,0.0,0.0,0.0,0.0,0.0,0.0,0.0,0.0,0.0,0.0,0.0,0.0,0.0,0.0,0.0,0.0,0.0,0.0,0.0,0.0,0.0,0.0,0.0,0.0,0.0,0.0,0.0,0.0,0.0,0.0,0.0,0.0,0.0,0.0,0.0,0.0,0.0,0.0,0.0,0.0,0.0,0.0,0.0,0.0,0.0,0.0,0.0,0.0,0.0,0.0,0.0,0.0,0.0,0.0,0.0,0.0,0.0,0.0,0.0,0.0,0.0,0.0,0.0,0.0,0.0,0.0,0.0,0.0,0.0,0.0,0.0,0.0,0.0,0.0,0.0,0.0,0.0,0.0,0.0,0.0,0.0,0.0,0.0,0.0,0.0,0.0,0.0,0.0,0.0,0.0,0.0,0.0,0.0,0.0,0.0,0.0,0.0,0.0,0.0,0.0,0.0,0.0,0.0,0.0,0.0,0.0,0.0,0.0,0.0,0.0,0.0,0.0,0.0,0.0,0.0,0.0,0.0,0.0,0.0,0.0,0.0,0.0,0.0,0.0,0.0,0.0,0.0,0.0,0.0,0.0,0.0,0.0,0.0,0.0,0.0,0.0,0.0,0.0,0.0,0.0,0.0,0.0,0.0,0.0,0.0,0.0,0.0,0.0,0.0,0.0,0.0,0.0,0.0,0.0,0.0,0.0,0.0,0.0,0.0,0.0,0.0,0.0,0.0,0.0,0.0,0.0,0.0,0.0,0.0,0.0,0.0,0.0,0.0,0.0,0.0,0.0,0.0,0.0,0.0,0.0,0.0,0.0,0.0,0.0,0.0,0.0,0.0,0.0,0.0,0.0,0.0,0.0,0.0,0.0,0.0,0.0,0.0,0.0,0.0,0.0,0.0,0.0,0.0,0.0,0.0,0.0,0.0,0.0,0.0,0.0,0.0,0.0,0.0,0.0,0.0,0.0,0.0,0.0,0.0,0.0,0.0,0.0,0.0,0.0,0.0,0.0,0.0,0.0,0.0,0.0,0.0,0.0,0.0,0.0,0.0,0.0,0.0,0.0,0.0,0.0,0.0,0.0,0.0,0.0,0.0,0.0,0.0,0.0,0.0,0.0,0.0,0.0,0.0,0.0,0.0,0.0,0.0,0.0,0.0,0.0,0.0,0.0,0.0,0.0,0.0,0.0,0.0,0.0,0.0,0.0,0.0,0.0,0.0,0.0,0.0,0.0,0.0,0.0,0.0,0.0,0.0,0.0,0.0,0.0,0.0,0.0,0.0,0.0,0.0,0.0,0.0,0.0,0.0,0.0,0.0,0.0,0.0,0.0,0.0,0.0,0.0,0.0,0.0,0.0,0.0,0.0,0.0,0.0,0.0,0.0,0.0,0.0,0.0,0.0,0.0,0.0,0.0,0.0,0.0,0.0,0.0,0.0,0.0,0.0,0.0,0.0,0.0,0.0,0.0,0.0,0.0,0.0,0.0,0.0,0.0,0.0,0.0,0.0,0.0,0.0,0.0,0.0,0.0,0.0,0.0,0.0,0.0,0.0,0.0,0.0,0.0,0.0,0.0,0.0,0.0,0.0,0.0,0.0,0.0,0.0,0.0,0.0,0.0,0.0,0.0,0.0,4.0489,0.0,0.0,0.0,0.0,0.0,0.0,0.0,0.0,0.0,0.0,0.0,0.0,0.0,0.0,0.0,0.0,0.0,0.0,0.0,0.0,0.0,0.0,0.0,0.0,0.0,0.0,0.0,0.0,0.0,0.0,0.0,0.0,0.0,0.0,0.0,0.0,0.0,0.0,0.0,0.0,0.0,0.0,0.0,0.0,0.0,0.0,0.0,0.0,0.0,0.0,0.0,0.0,0.0,0.0,0.0,0.0,0.0,0.0,0.0,0.0,0.0,0.0,0.0,0.0,0.0,0.0,0.0,0.0,0.0,0.0,0.0,0.0,0.0,0.0,0.0,0.0,0.0,0.0,0.0,0.0,0.0,0.0,0.0,0.0,0.0,0.0,0.0,0.0,0.0,0.0,0.0,0.0,0.0,0.0,0.0,0.0,0.0,0.0,0.0,0.0,0.0,0.0,0.0,0.0,0.0,0.0,0.0,0.0,0.0,0.0,0.0,0.0,0.0,0.0,0.0,0.0,4.0489,0.0,0.0,0.0,0.0,0.0,0.0,0.0,0.0,0.0,0.0,0.0,0.0,0.0,0.0,0.0,0.0,0.0,0.0,0.0,0.0,0.0,0.0,0.0,0.0,0.0,0.0,0.0,0.0,0.0,0.0,0.0,0.0,0.0,0.0,0.0,0.0,0.0,0.0,0.0,0.0,0.0,0.0,0.0,0.0,0.0,0.0,0.0,0.0,0.0,0.0,0.0,0.0,0.0,0.0,0.0,0.0,0.0,0.0,0.0,0.0,0.0,0.0,0.0,0.0,0.0,0.0,0.0,0.0,0.0,0.0,0.0,0.0,0.0,0.0,0.0,0.0,0.0,0.0,0.0,0.0,0.0,0.0,0.0,0.0,0.0,0.0,0.0,0.0,0.0,0.0,0.0,0.0,0.0,0.0,0.0,0.0,0.0,0.0,0.0,0.0,0.0,0.0,0.0,0.0,0.0,0.0,0.0,0.0,4.2758,4.3104,4.3104,4.3104,4.3104,4.3028,4.1585,4.095,4.1008,4.1739,0.0,0.0,0.0,0.0,0.0,0.0,0.0,0.0,0.0,0.0,0.0,0.0,0.0,0.0,0.0,0.0,0.0,0.0,0.0,0.0,0.0,0.0,0.0,0.0,0.0,0.0,0.0,0.0,0.0,0.0,0.0,0.0,0.0,0.0,0.0,0.0,0.0,0.0,3.8707,3.8707,3.8707,3.8707,3.8707,0.0,0.0,0.0,0.0,0.0,0.0,0.0,0.0,0.0,0.0,0.0,0.0,0.0,0.0,0.0,0.0,0.0,0.0,0.0,0.0,0.0,0.0,0.0,0.0,0.0,0.0,0.0,0.0,0.0,0.0,0.0,0.0,0.0,0.0,0.0,0.0,0.0,0.0,0.0,0.0,0.0,0.0,0.0,4.0489,4.0489,0.0,0.0,0.0,0.0,0.0,0.0,0.0,0.0,0.0,0.0,0.0,0.0,0.0,4.2758,4.2758,4.2874,4.2931,4.2931,4.3047,4.3104,4.3104,4.3104,4.3104,4.3085,4.2854,0.0,4.2777,4.2874,0.0,0.0,0.0,0.0,0.0,0.0,0.0,0.0,0.0,0.0,0.0,0.0,0.0,0.0,0.0,0.0,0.0,0.0,0.0,0.0,0.0,0.0,0.0,0.0,0.0,0.0,0.0,0.0,0.0,0.0,0.0,0.0,0.0,0.0,0.0,0.0,3.8707,3.8707,3.8707,3.8707,3.8707,3.8707,3.8707,3.8707,3.8707,3.8707,0.0,0.0,0.0,0.0,0.0,0.0,0.0,0.0,0.0,0.0,0.0,0.0,0.0,0.0,0.0,0.0,0.0,0.0,0.0,0.0,0.0,0.0,0.0,0.0,0.0,0.0,0.0,0.0,0.0,0.0,0.0,0.0,0.0,0.0,0.0,0.0,0.0,0.0,0.0,4.0489,4.0489,4.0489,4.0489,4.0489,0.0,0.0,0.0,0.0,0.0,0.0,0.0,0.0,0.0,4.2527,4.2893,4.3104,4.3104,4.3547,4.3778,4.3778,4.4259,4.4509,4.4509,4.4509,4.4509,4.4509,4.4509,4.4509,4.447,4.397,4.3778,4.3816,0.0,0.0,0.0,0.0,4.4509,4.4509,0.0,0.0,0.0,0.0,0.0,0.0,0.0,0.0,0.0,0.0,0.0,0.0,0.0,0.0,0.0,3.4917,0.0,0.0,0.0,0.0,0.0,0.0,0.0,0.0,0.0,0.0,0.0,0.0,3.8707,3.8707,3.8707,3.8707,3.8707,3.8707,3.8707,3.8707,3.8707,3.8707,3.8707,0.0,0.0,0.0,0.0,0.0,0.0,0.0,0.0,0.0,0.0,0.0,0.0,0.0,0.0,0.0,0.0,0.0,0.0,0.0,0.0,0.0,0.0,0.0,0.0,0.0,0.0,0.0,0.0,0.0,0.0,0.0,0.0,0.0,0.0,0.0,0.0,0.0,0.0,4.0489,4.0489,4.0489,4.07,4.0835,0.0,0.0,0.0,0.0,0.0,0.0,4.3066,4.3297,4.3412,4.3412,4.3624,4.3739,4.3739,4.4335,4.4739,4.497,4.5624,4.6028,4.624,4.624,4.624,4.624,4.624,4.624,4.6163,4.5086,4.4624,4.4701,4.5336,4.5586,4.5624,4.5836,4.5932,4.5951,0.0,0.0,0.0,0.0,0.0,0.0,0.0,0.0,0.0,0.0,0.0,0.0,0.0,0.0,3.4119,3.4917,3.499,3.5697,0.0,0.0,0.0,0.0,0.0,0.0,0.0,0.0,0.0,3.8707,3.8707,3.8707,3.8707,3.8707,3.8707,3.8707,3.8707,3.8707,3.8707,3.8707,3.8707,3.8707,0.0,0.0,0.0,0.0,0.0,0.0,0.0,0.0,0.0,0.0,0.0,0.0,0.0,0.0,0.0,0.0,0.0,0.0,0.0,0.0,0.0,0.0,0.0,0.0,0.0,0.0,0.0,0.0,0.0,0.0,0.0,0.0,0.0,0.0,0.0,0.0,0.0,0.0,0.0,4.0489,4.1239,0.0,0.0,0.0,0.0,4.3028,4.3028,4.3047,4.3104,4.3816,4.4239,4.4239,4.5028,4.547,4.547,4.5509,4.5951,4.6778,4.6817,4.724,4.7971,4.7971,4.7971,4.7971,4.7971,4.7971,4.7855,4.6201,4.5528,4.5528,4.5566,4.5586,4.5701,4.6528,4.6836,4.6951,0.0,0.0,0.0,0.0,0.0,0.0,0.0,0.0,0.0,0.0,0.0,0.0,0.0,3.4266,3.4926,3.5771,3.6303,3.7074,3.8193,0.0,0.0,0.0,0.0,0.0,0.0,0.0,3.8546,3.8183,3.8546,3.8496,3.8183,3.8546,3.8707,3.8658,3.835,3.8183,3.8216,3.8546,3.8496,3.8216,3.8546,3.8496,0.0,0.0,0.0,0.0,0.0,0.0,0.0,0.0,0.0,0.0,0.0,0.0,0.0,0.0,0.0,0.0,0.0,0.0,0.0,0.0,0.0,0.0,0.0,0.0,0.0,0.0,0.0,0.0,0.0,0.0,0.0,0.0,0.0,0.0,0.0,0.0,0.0,4.2104,4.245,0.0,4.2643,4.2912,4.3316,4.3835,4.3874,4.4124,4.4682,4.497,4.5393,4.597,4.6278,4.6682,4.7201,4.7201,4.7355,4.7682,4.7682,4.7817,4.8105,4.8105,4.8105,4.8105,4.8105,4.8105,4.8048,4.7451,4.7201,4.7201,4.7201,4.7201,4.7259,4.7567,4.7682,4.7721,0.0,0.0,0.0,0.0,0.0,0.0,0.0,0.0,0.0,0.0,0.0,3.3807,3.3807,3.4523,3.5367,3.6211,3.7037,3.7826,3.8652,0.0,0.0,0.0,0.0,0.0,0.0,3.8627,3.8433,3.7893,3.8267,3.8267,3.7893,3.8117,3.8285,3.8415,3.8065,3.798,3.8183,3.835,3.8216,3.7946,3.8496,3.8496,3.8216,0.0,0.0,0.0,0.0,0.0,0.0,0.0,0.0,0.0,0.0,0.0,0.0,0.0,0.0,0.0,0.0,0.0,0.0,0.0,0.0,0.0,0.0,0.0,0.0,0.0,0.0,0.0,0.0,0.0,0.0,0.0,0.0,0.0,0.0,0.0,4.245,4.3028,4.3335,4.3508,4.3508,4.3778,4.4162,4.4701,4.5009,4.5432,4.6009,4.6297,4.6701,4.7298,4.7298,4.7567,4.8086,4.8394,4.8682,4.8971,4.926,4.9548,4.9817,4.9817,4.9817,4.9817,4.9817,4.9817,4.9817,4.9817,4.9817,4.9721,4.8548,4.8105,4.8144,4.8432,4.8548,4.8586,0.0,0.0,0.0,0.0,0.0,0.0,0.0,0.0,0.0,0.0,3.3807,3.3807,3.3825,3.4578,3.5404,3.6266,3.7055,3.7863,3.8652,3.8707,0.0,0.0,0.0,0.0,3.7911,3.8382,3.8433,3.7859,3.7859,3.7859,3.7825,3.7396,3.7433,3.7859,3.7859,3.815,3.8578,3.8065,3.7859,3.7911,3.8433,3.8658,3.8658,0.0,0.0,0.0,0.0,0.0,0.0,0.0,0.0,0.0,0.0,0.0,0.0,0.0,0.0,0.0,0.0,0.0,0.0,0.0,0.0,0.0,0.0,0.0,0.0,0.0,0.0,0.0,0.0,0.0,0.0,0.0,0.0,0.0,4.3143,4.3143,4.3143,4.3162,4.3874,4.4355,4.4374,4.5143,4.5643,4.5682,4.6451,4.6951,4.6951,4.7682,4.8125,4.8182,4.8182,4.8221,4.8259,4.9106,4.9933,5.0779,5.1568,5.2395,5.3203,5.3203,5.3203,5.3203,5.3203,5.3203,5.3203,5.3203,5.3203,5.2876,4.9548,4.8259,4.8355,4.9202,4.949,4.9606,0.0,0.0,0.0,0.0,0.0,0.0,0.0,0.0,3.3807,3.3807,3.3807,3.4027,3.4605,3.544,3.6266,3.7092,3.79,3.8469,3.8689,0.0,0.0,0.0,0.0,0.0,3.7396,3.7877,3.7685,3.6825,3.721,3.721,3.6825,3.7058,3.7248,3.736,3.6981,3.6904,3.702,3.6865,3.6825,3.6865,3.7414,3.7596,3.7632,0.0,0.0,0.0,0.0,0.0,0.0,0.0,0.0,0.0,0.0,0.0,0.0,0.0,0.0,0.0,0.0,0.0,0.0,0.0,0.0,0.0,0.0,0.0,0.0,0.0,0.0,0.0,0.0,0.0,0.0,0.0,0.0,4.4422,4.403,4.397,4.4201,4.4836,4.5105,4.549,4.6124,4.6394,4.6778,4.7375,4.7625,4.7778,4.7778,4.799,4.8682,4.9952,4.999,5.0567,5.1798,5.2049,5.2279,5.2529,5.2741,5.2972,5.3203,5.3203,5.3203,5.3203,5.3203,5.3203,5.3203,5.3203,5.3203,5.3106,5.2164,5.1798,5.1837,5.2068,5.176,5.1164,0.0,0.0,0.0,0.0,0.0,0.0,0.0,0.0,3.3807,3.3807,3.3807,3.4119,3.4899,3.5789,3.6615,3.7422,3.823,3.8707,3.8707,0.0,0.0,0.0,0.0,3.7998,3.7228,3.747,3.7193,3.6374,3.6724,3.6724,3.6374,3.6481,3.6643,3.6843,3.6539,3.6522,3.6724,3.6498,3.6374,3.6416,3.6481,3.6786,3.7248,3.772,3.8099,3.8382,3.8627,3.8707,3.8707,3.8707,0.0,0.0,0.0,0.0,0.0,0.0,0.0,0.0,0.0,0.0,0.0,0.0,0.0,0.0,0.0,0.0,0.0,0.0,0.0,0.0,0.0,0.0,0.0,0.0,4.5838,4.586,4.5895,4.5605,4.5586,4.6086,4.6432,4.6855,4.7355,4.7413,4.7605,4.8067,4.8779,4.9183,4.9183,4.9856,5.0702,5.1722,5.1741,5.2202,5.3203,5.3568,5.3741,5.376,5.4087,5.4241,5.4241,5.4241,5.4241,5.4241,5.4241,5.4241,5.4241,5.4241,5.4241,0.0,0.0,0.0,0.0,0.0,5.2876,5.2395,0.0,0.0,0.0,0.0,0.0,0.0,0.0,0.0,3.3807,3.3807,3.3807,3.4137,3.5045,3.5844,3.6652,3.7551,3.8285,3.8707,0.0,0.0,0.0,3.8515,3.8065,3.7578,3.702,3.7058,3.6843,3.6291,3.6291,3.6291,3.6308,3.581,3.5854,3.6291,3.6291,3.6563,3.6981,3.6522,3.6291,3.6266,3.5783,3.6207,3.7173,3.7649,3.7825,3.7911,3.8496,3.8658,3.8627,3.8676,0.0,0.0,0.0,0.0,0.0,0.0,0.0,0.0,0.0,0.0,0.0,0.0,0.0,0.0,0.0,0.0,0.0,0.0,0.0,0.0,0.0,0.0,0.0,0.0,4.701,4.7278,4.8009,4.7567,4.7163,4.7048,4.7682,4.8144,4.824,4.8336,4.8432,4.8529,5.0048,5.0971,5.0971,0.0,0.0,0.0,0.0,5.3395,5.3491,5.4357,5.478,5.478,5.5607,5.5992,5.5992,5.5992,5.5992,5.5992,5.5992,5.5992,5.5992,5.5992,5.5992,5.5818,5.4145,5.3491,5.3472,5.3376,5.3356,5.3337,0.0,0.0,0.0,0.0,0.0,0.0,0.0,0.0,3.3807,3.3807,3.3807,3.4376,3.5881,3.6193,3.689,3.834,3.8615,3.8707,0.0,0.0,3.7877,3.7524,3.7396,3.6904,3.5924,3.6333,3.6291,3.5739,3.5739,3.5739,3.5739,3.5667,3.5667,3.5739,3.5739,3.581,3.5898,3.5827,3.5739,3.5739,3.5667,3.5968,3.6603,3.7135,3.7323,3.7451,3.8368,3.8415,3.8099,3.8546,3.9129,3.9662,3.9662,0.0,0.0,0.0,0.0,0.0,0.0,0.0,0.0,0.0,0.0,0.0,0.0,0.0,0.0,0.0,0.0,0.0,0.0,0.0,0.0,4.7417,4.7683,4.7932,4.8086,4.8567,4.8663,4.7952,4.8009,4.8375,4.9086,4.9779,5.0471,5.1125,5.2125,5.2722,5.2722,5.3029,5.353,5.4222,5.4241,5.4568,5.5203,5.6069,5.6511,5.653,0.0,0.0,5.78,5.78,5.78,5.78,5.78,5.78,5.78,5.78,5.78,5.7627,5.5895,5.5222,5.5145,5.4491,5.4241,5.4145,0.0,0.0,0.0,0.0,0.0,0.0,0.0,0.0,3.3807,3.3807,3.3807,3.4431,3.6119,3.6303,3.6945,3.856,3.8707,0.0,0.0,3.8065,3.7685,3.721,3.696,3.6563,3.6028,3.6028,3.5854,3.5622,3.5622,3.5622,3.5622,3.5622,3.5622,3.5622,3.5622,3.5622,3.5622,3.5622,3.5622,3.5622,3.5622,3.5783,3.6054,3.6603,3.696,3.7303,3.805,3.8554,3.8933,3.9213,3.9845,4.0506,4.0506,4.1056,4.1699,0.0,0.0,0.0,0.0,0.0,0.0,0.0,0.0,0.0,0.0,0.0,0.0,0.0,0.0,4.5718,0.0,0.0,4.7552,4.8367,4.8644,4.8894,4.9336,4.9779,4.9721,4.8856,4.949,5.0183,5.0606,5.1433,5.2125,5.2529,5.3356,5.3857,5.3857,5.4222,5.4857,5.5722,5.5742,5.6145,5.6992,5.7434,5.7646,5.7665,5.8088,5.83,5.83,5.83,5.8169,5.7966,5.8212,5.8035,5.7596,5.7596,5.7745,5.7845,5.6983,5.6798,5.6896,5.6049,5.5742,5.5626,0.0,0.0,0.0,0.0,0.0,0.0,0.0,0.0,0.0,3.3807,3.3807,3.4431,3.6119,3.6303,3.6945,0.0,0.0,0.0,0.0,3.772,3.7433,3.7058,3.6522,3.6249,3.6249,3.581,3.5622,3.5622,3.5622,3.5622,3.5622,3.5622,3.5622,3.5622,3.5622,3.5622,3.5622,3.5622,3.5622,3.5622,3.5622,3.5707,3.5887,3.6337,3.6765,3.721,3.7774,3.8773,3.9856,3.9922,4.0588,4.135,4.135,4.1901,4.2525,4.2525,4.2983,0.0,0.0,0.0,0.0,0.0,0.0,0.0,0.0,0.0,4.5902,4.5902,4.6084,4.6437,4.7146,4.7427,4.8049,4.9431,4.9644,4.9952,5.0798,5.0933,5.0741,5.0202,5.1183,5.1972,5.2145,5.2953,5.3453,5.3453,5.4241,5.4799,5.4972,5.5588,5.6338,5.7223,5.7242,5.7547,5.8169,5.8323,5.8357,5.8265,5.8437,5.8514,5.8514,5.8514,5.8322,5.7967,5.8348,5.8073,5.7378,5.7378,5.7674,5.8073,5.7986,5.8249,5.8534,5.7604,5.7242,5.7146,0.0,0.0,0.0,0.0,0.0,0.0,0.0,0.0,0.0,3.3807,3.3807,3.4431,3.6119,3.6303,0.0,0.0,0.0,0.0,3.7893,3.7041,3.6522,3.6498,3.5985,3.5694,3.5694,3.5622,3.5622,3.5622,3.5622,3.5622,3.5622,3.5622,3.5622,3.5622,3.5622,3.5622,3.5622,3.5622,3.5622,3.5622,3.5622,3.6028,3.6654,3.6729,3.6775,3.6966,3.7918,3.883,3.9605,4.0021,4.1067,4.2176,4.2176,4.2708,4.3369,4.3369,0.0,4.3644,4.4378,4.5094,4.5645,4.5736,4.5773,4.5792,0.0,0.0,4.5902,4.5902,4.6755,4.7634,4.807,4.9022,4.9935,5.047,5.0548,5.0837,5.1664,5.1779,5.2029,5.2702,5.226,5.2202,5.2991,5.3837,5.4357,5.4357,5.5107,5.5895,5.6665,5.6799,5.7242,5.8127,5.8146,5.8007,5.7671,5.8405,5.8538,5.8145,5.8902,5.9261,5.9261,5.9261,5.9261,5.9194,5.9261,5.9228,5.9125,5.9125,5.9412,5.9788,5.936,5.9476,5.9778,5.8587,5.8146,5.8146,0.0,0.0,0.0,0.0,0.0,0.0,0.0,0.0,0.0,0.0,0.0,3.4431,3.6119,0.0,0.0,0.0,0.0,0.0,3.7506,3.6803,3.6266,3.5941,3.5739,3.5622,3.5622,3.5622,3.5622,3.5622,3.5622,3.5622,3.5622,3.5622,3.5622,3.5622,3.5622,3.5622,3.5622,3.5622,3.5622,3.5656,3.6113,3.6485,3.6823,3.7263,3.7702,3.818,3.8783,3.969,0.0,0.0,4.185,4.2949,4.2632,4.2994,4.3589,4.4066,4.4195,0.0,4.5186,4.5645,0.0,0.0,4.6617,4.6728,4.7186,4.7297,4.7297,4.7297,4.7684,4.8157,4.857,4.9051,4.9532,0.0,5.0374,5.0907,5.1461,5.2001,5.2721,5.3836,5.3626,5.3568,5.3914,5.4511,5.5159,5.5915,5.6045,5.6578,5.7703,5.7498,5.7724,5.8566,5.833,5.8315,5.8653,5.8976,5.9048,5.888,5.9238,5.9389,5.9389,5.9389,5.9389,5.9354,5.8835,5.8735,5.8971,5.8694,5.8874,5.9267,5.9084,5.9284,5.9557,5.8555,5.8177,5.812,0.0,0.0,0.0,0.0,0.0,0.0,0.0,0.0,0.0,0.0,0.0,0.0,0.0,0.0,0.0,0.0,0.0,0.0,0.0,3.6684,3.6182,3.5605,3.5622,3.5622,3.5622,3.5622,3.5622,3.5622,3.5622,3.5622,3.5622,3.5622,3.5622,3.5622,3.5622,3.5622,3.5622,3.5622,3.5622,3.569,3.6468,3.6907,3.7161,3.7922,3.8667,3.9321,3.9521,4.041,0.0,0.0,4.2523,4.3444,4.305,4.3324,4.3956,4.4544,4.5021,4.5498,4.6085,0.0,0.0,4.7297,4.7443,4.759,4.8177,4.8306,4.8306,4.8306,4.8306,4.8421,4.8847,4.8897,4.9075,4.9589,5.0345,5.109,5.1735,5.2561,5.3508,5.4553,5.4668,5.4703,5.4819,5.5306,5.5944,5.6783,5.6893,5.7385,5.839,5.8123,5.8254,5.8935,5.8618,5.8697,5.9212,5.9231,5.9158,5.9009,5.9009,5.9009,5.9009,5.9009,5.9009,5.8971,5.8326,5.8213,5.8484,5.8142,5.8282,5.8694,5.8568,5.8796,5.9101,5.8353,5.8238,5.8389,0.0,0.0,0.0,0.0,0.0,0.0,0.0,0.0,0.0,0.0,0.0,0.0,0.0,0.0,0.0,0.0,0.0,0.0,0.0,3.6684,3.6182,3.5605,3.5622,3.5622,3.5622,3.5622,3.5622,3.5622,3.5622,3.5622,3.5622,3.5622,3.5622,3.5622,3.5622,3.5622,3.5622,3.5622,3.5622,3.569,3.6468,3.7212,3.7956,3.8684,3.9411,4.0035,3.9871,0.0,0.0,4.2444,4.3032,4.3497,4.3479,4.403,0.0,4.4709,4.581,4.704,4.7076,0.0,4.8233,4.8269,4.8269,4.8269,4.8306,4.8306,4.8306,4.8306,4.8306,4.8421,4.8847,4.8897,4.9171,4.9949,5.076,5.172,5.2988,5.3874,5.4614,5.5026,5.5096,5.5237,0.0,5.6434,5.6802,5.6439,5.7561,5.841,5.8778,5.8787,5.8954,5.9367,5.9351,5.9157,5.8735,5.8735,5.8484,5.8024,5.8024,5.8024,5.8024,5.8024,5.8024,5.8024,5.7997,5.7997,5.8042,5.7997,5.8282,5.8654,5.8213,5.8326,5.8654,5.8176,5.8595,5.942,0.0,0.0,0.0,0.0,0.0,0.0,0.0,0.0,0.0,0.0,0.0,0.0,0.0,0.0,0.0,0.0,0.0,0.0,0.0,3.6684,3.6182,3.5605,3.5622,3.5622,3.5622,3.5622,3.5622,3.5622,3.5622,3.5622,3.5622,3.5622,3.5622,3.5622,3.5622,3.5622,3.5622,3.5622,3.5622,3.569,3.6468,3.7229,3.799,3.8717,3.9688,4.0668,0.0,0.0,0.0,4.248,4.305,4.3536,4.3706,4.42,4.4929,4.5993,4.7058,4.7921,4.7921,4.8104,4.8306,4.8306,4.8306,4.8306,4.8306,4.8306,4.8306,4.8306,4.8306,4.851,4.9233,4.8901,4.8974,5.0335,5.0796,5.1417,5.2611,5.3503,5.4207,5.4652,5.4701,0.0,0.0,0.0,0.0,5.7466,5.797,5.8532,5.9171,5.8905,5.8784,5.8933,5.8632,5.8375,5.8238,5.8257,5.8186,5.7997,5.7997,5.7997,5.7997,5.7997,5.7997,5.7997,5.7997,5.7997,5.7997,5.7997,5.8097,5.8213,5.807,5.8115,5.8238,5.8418,5.8461,5.8484,0.0,0.0,0.0,0.0,0.0,0.0,0.0,0.0,0.0,0.0,0.0,0.0,0.0,0.0,0.0,0.0,0.0,0.0,0.0,0.0,3.6522,3.6207,3.581,3.5694,3.5898,3.5694,3.5622,3.5622,3.5622,3.5622,3.5622,3.5622,3.5622,3.5622,3.5622,3.5622,3.5622,3.5622,3.5774,3.6096,3.6874,3.7635,3.8362,3.9347,4.0212,0.0,0.0,0.0,4.2203,4.2808,4.3214,4.3591,4.4034,4.482,4.5828,4.715,4.7902,4.8306,4.8306,4.8306,4.8306,4.8306,4.8306,4.8306,4.8306,4.8306,4.8306,4.8306,4.8545,4.893,4.9481,4.937,4.9575,5.0782,5.1226,5.175,5.2669,5.3524,5.4083,5.4221,5.4255,5.4497,0.0,0.0,0.0,5.7769,5.8342,5.8773,5.912,5.8874,5.8632,5.8461,5.8186,5.7997,5.7997,5.7997,5.7997,5.7997,5.7997,5.7997,5.7997,5.7997,5.7997,5.7997,5.7997,5.7997,5.7997,5.7997,5.7997,5.7997,5.7997,5.7997,5.8024,5.8351,5.8238,5.8024,0.0,0.0,0.0,0.0,0.0,0.0,0.0,0.0,0.0,0.0,0.0,0.0,0.0,0.0,0.0,0.0,0.0,0.0,0.0,0.0,0.0,3.7135,3.6165,3.5854,3.6333,3.5854,3.5622,3.5622,3.5622,3.5622,3.5622,3.5622,3.5622,3.5622,3.5622,3.5622,3.5622,3.5622,3.6045,3.6772,3.7547,3.8292,3.9134,4.0353,0.0,0.0,0.0,0.0,0.0,4.3339,4.3516,4.3699,4.4525,4.5847,4.7278,4.8067,4.8306,4.8306,4.8306,4.8306,4.8306,4.8306,4.8306,4.8306,4.8306,4.8306,4.8324,4.8361,4.9022,4.9609,0.0,0.0,5.0943,5.1323,5.2064,5.2727,5.3137,5.3898,5.4255,0.0,0.0,0.0,0.0,0.0,0.0,5.7444,0.0,5.9158,5.8694,5.8654,5.8442,5.7997,5.7997,5.7997,5.7997,5.7997,5.7997,5.7997,5.7997,5.7997,5.7997,5.7997,5.7997,5.7997,5.7997,5.7997,5.7997,5.7997,5.7997,5.7997,5.7997,5.7997,5.7997,5.7997,5.7997,5.807,0.0,0.0,0.0,0.0,0.0,0.0,0.0,0.0,0.0,0.0,0.0,0.0,0.0,0.0,0.0,0.0,0.0,0.0,0.0,0.0,0.0,0.0,0.0,0.0,0.0,0.0,0.0,3.5622,3.5622,3.5622,3.5622,3.5622,3.5622,3.5622,3.5622,3.5622,3.5622,3.5622,3.574,3.5972,0.0,3.7585,3.8846,0.0,0.0,0.0,0.0,0.0,0.0,0.0,0.0,4.4525,4.5351,4.6305,4.7278,4.8067,4.8306,4.8306,4.8306,4.8306,4.8306,4.8306,4.8306,4.8306,4.8306,4.8306,4.8489,4.9132,4.9426,4.9958,0.0,0.0,0.0,5.2508,5.2401,0.0,5.3096,5.3394,0.0,5.3359,0.0,5.3962,5.5471,5.5687,0.0,0.0,5.852,5.8654,5.8213,5.8168,5.8142,5.7997,5.7997,5.7997,5.7997,5.7997,5.7997,5.7997,5.7997,5.7997,5.7997,5.7997,5.7997,5.7997,5.7997,5.7997,5.7997,5.7997,5.7997,5.7997,5.7997,5.7997,5.7997,5.7997,5.7997,5.8042,0.0,0.0,0.0,0.0,0.0,0.0,0.0,0.0,0.0,0.0,0.0,0.0,0.0,0.0,0.0,0.0,0.0,0.0,0.0,0.0,0.0,0.0,0.0,0.0,0.0,0.0,0.0,0.0,0.0,0.0,3.5622,3.5622,3.5622,3.5622,3.5622,3.5622,3.5622,3.5622,0.0,0.0,0.0,0.0,0.0,0.0,0.0,0.0,0.0,0.0,0.0,0.0,0.0,4.4856,4.5645,4.6452,4.7278,4.8067,4.8306,4.8306,4.8306,4.8306,4.8306,4.8306,4.8306,4.8398,4.8783,4.8875,4.9114,4.9939,5.0398,0.0,5.183,5.1922,5.216,0.0,0.0,0.0,5.3151,5.3206,5.3206,0.0,5.3206,0.0,5.5427,5.5592,5.6253,0.0,5.8238,5.8282,5.7997,5.7997,5.7997,5.7997,5.7997,5.7997,5.7997,5.7997,5.7997,5.7997,5.7997,5.7997,5.7997,5.7997,5.7997,5.7997,0.0,5.7997,5.7997,5.7997,5.7997,5.7997,5.7997,5.7997,5.7997,5.7997,5.7997,5.7997,0.0,0.0,0.0,0.0,0.0,0.0,0.0,0.0,0.0,0.0,0.0,0.0,0.0,0.0,0.0,0.0,0.0,0.0,0.0,0.0,0.0,0.0,0.0,0.0,0.0,0.0,0.0,0.0,0.0,0.0,0.0,0.0,0.0,0.0,0.0,0.0,0.0,0.0,0.0,0.0,0.0,0.0,0.0,0.0,0.0,0.0,0.0,0.0,0.0,0.0,4.3956,4.4709,4.5608,4.6379,4.7131,4.8031,4.8306,4.8306,4.8306,4.8306,4.8306,4.8306,4.8306,4.8526,4.9389,4.9591,4.9848,5.0765,0.0,5.2013,5.2142,5.2729,5.3206,5.3206,0.0,5.3206,5.3206,5.3206,5.3206,5.3206,5.3206,5.383,5.5427,5.5592,5.6253,5.7868,5.7997,5.7997,5.7997,5.7997,5.7997,5.7997,5.7997,5.7997,5.7997,5.7997,5.7997,5.7997,5.7997,5.7997,5.7997,5.7997,5.7997,5.7997,5.7997,5.7997,5.7997,5.7997,5.7997,5.7997,5.7997,5.7997,5.7997,5.7997,5.7997,5.7997,0.0,0.0,0.0,0.0,0.0,0.0,0.0,0.0,0.0,0.0,3.4504,3.5349,0.0,0.0,0.0,0.0,0.0,0.0,0.0,0.0,0.0,0.0,0.0,0.0,0.0,0.0,0.0,0.0,0.0,0.0,0.0,0.0,0.0,0.0,0.0,0.0,0.0,0.0,0.0,0.0,0.0,0.0,0.0,0.0,0.0,0.0,0.0,0.0,0.0,0.0,4.3589,4.3956,4.5443,4.5993,4.6397,4.7884,4.8306,4.8306,4.8306,4.8306,4.8306,4.8306,4.8306,4.8526,4.9389,4.9591,0.0,0.0,5.1885,5.2197,5.2876,5.3115,5.3206,5.3206,5.3206,5.3206,5.3206,5.3206,5.3206,0.0,5.3206,5.383,5.5427,5.5592,0.0,0.0,5.7997,5.7997,5.7997,5.7997,5.7997,5.7997,5.7997,5.7997,5.7997,5.7997,5.7997,5.7997,5.7997,5.7997,5.7997,5.7997,5.7997,5.7997,5.7997,0.0,5.7997,5.7997,5.7997,5.7997,5.7997,5.7997,5.7997,5.7997,5.7997,5.7997,0.0,0.0,0.0,0.0,0.0,0.0,0.0,3.3876,3.3807,3.3807,3.4137,3.4706,3.5532,3.6376,0.0,0.0,0.0,0.0,0.0,0.0,0.0,0.0,0.0,0.0,0.0,0.0,0.0,0.0,0.0,0.0,0.0,0.0,0.0,0.0,0.0,0.0,0.0,0.0,0.0,0.0,0.0,0.0,0.0,0.0,0.0,0.0,0.0,0.0,0.0,0.0,4.3497,4.3773,4.5388,4.5902,4.6214,4.7829,4.8306,4.8306,4.8306,4.8306,4.8306,4.8306,4.8306,4.8636,4.9921,0.0,0.0,0.0,5.2619,5.2747,5.3133,5.3206,0.0,5.3206,5.3206,5.3206,5.3206,5.3206,5.3206,5.3206,5.3206,5.383,0.0,5.5592,5.6253,5.7868,5.7997,5.7997,5.7997,5.7997,5.7997,5.7997,5.7997,5.7997,5.7997,5.7997,5.7997,5.7997,5.7997,5.7997,5.7997,5.7997,5.7997,5.7997,5.7997,5.7997,5.7997,5.7997,5.7997,5.7997,5.7997,5.7997,5.7997,5.7997,5.7997,5.7997,0.0,0.0,0.0,0.0,0.0,0.0,0.0,3.4018,3.3868,3.3807,3.3807,3.4045,3.4688,3.5514,3.6413,0.0,0.0,0.0,0.0,0.0,0.0,0.0,0.0,0.0,0.0,0.0,0.0,3.7038,0.0,0.0,0.0,0.0,0.0,0.0,0.0,0.0,0.0,0.0,0.0,0.0,0.0,0.0,0.0,0.0,0.0,0.0,0.0,0.0,0.0,0.0,4.3497,4.3773,4.5388,4.5902,4.6214,4.7829,4.8306,4.8306,4.8306,4.8306,4.8306,4.8306,4.8306,4.8691,5.0178,5.0674,0.0,5.2656,5.3096,5.3206,5.3206,5.3206,5.3206,0.0,5.3206,5.3206,5.3206,5.3206,5.3206,0.0,5.3206,0.0,5.5427,5.5592,0.0,5.7868,5.7997,5.7997,5.7997,5.7997,5.7997,5.7997,5.7997,5.7997,5.7997,5.7997,5.7997,5.7997,5.7997,5.7997,5.7997,5.7997,5.7997,5.7997,5.7997,5.7997,5.7997,5.7997,5.7997,5.7997,5.7997,5.7997,5.7997,5.7997,5.7997,5.7997,0.0,0.0,0.0,0.0,0.0,0.0,0.0,3.4195,3.4093,3.3842,3.3807,3.3825,3.3899,3.4633,3.5771,0.0,0.0,0.0,0.0,0.0,0.0,0.0,0.0,0.0,0.0,0.0,0.0,3.6457,3.6921,0.0,0.0,0.0,0.0,0.0,0.0,0.0,0.0,0.0,0.0,0.0,0.0,0.0,0.0,0.0,0.0,0.0,0.0,0.0,0.0,0.0,0.0,4.3773,4.5388,4.5902,4.6214,4.7829,0.0,0.0,4.8306,4.8306,4.8306,4.8306,4.8306,4.8526,4.9426,0.0,5.1041,5.1922,5.2692,5.3206,5.3206,5.3206,0.0,0.0,0.0,5.3206,5.3206,5.3206,5.3206,5.3206,0.0,0.0,5.5427,5.5592,5.6253,5.7868,5.7997,5.7997,5.7997,5.7997,5.7997,5.7997,5.7997,5.7997,5.7997,5.7997,5.7997,5.7997,5.7997,5.7997,5.7997,5.7997,5.7997,5.7997,5.7997,5.7997,0.0,5.7997,5.7997,5.7997,5.7997,5.7997,5.7997,5.7997,5.7997,5.7997,0.0,0.0,0.0,0.0,0.0,0.0,3.4551,3.4334,3.4099,3.3842,3.3807,3.3807,3.3807,3.41,3.4743,3.5899,0.0,0.0,0.0,0.0,0.0,0.0,0.0,0.0,0.0,0.0,0.0,3.7791,3.7649,0.0,0.0,0.0,0.0,0.0,0.0,3.6882,0.0,0.0,0.0,0.0,0.0,0.0,0.0,0.0,0.0,0.0,0.0,0.0,0.0,0.0,0.0,0.0,4.4819,4.5516,0.0,0.0,4.8306,4.8306,4.8306,4.8306,4.8306,4.8306,4.8306,4.8526,4.9352,0.0,5.0435,5.172,5.2252,5.2637,5.3115,5.3206,0.0,0.0,0.0,0.0,5.3206,5.3206,5.3206,5.3206,5.3206,0.0,0.0,0.0,5.6253,5.7868,5.7997,5.7997,5.7997,5.7997,5.7997,5.7997,5.7997,5.7997,5.7997,5.7997,5.7997,5.7997,5.7997,5.7997,5.7997,5.7997,5.7997,5.7997,5.7997,5.7997,0.0,5.7997,5.7997,5.7997,5.7997,5.7997,5.7997,5.7997,5.7997,5.7997,0.0,0.0,0.0,0.0,0.0,3.5122,3.487,3.4532,3.4242,3.3961,3.3842,3.3807,3.3807,3.3807,3.4027,3.4614,3.5936,0.0,0.0,0.0,0.0,0.0,0.0,0.0,0.0,0.0,3.8627,3.8465,3.8249,3.8065,0.0,0.0,3.747,3.765,0.0,0.0,0.0,0.0,0.0,0.0,0.0,0.0,0.0,0.0,0.0,0.0,0.0,0.0,0.0,0.0,0.0,0.0,0.0,0.0,0.0,0.0,4.8122,4.8306,4.8306,4.8306,4.8306,4.8306,4.8306,4.8471,0.0,0.0,4.9903,5.1041,5.1665,5.216,5.2747,5.3041,5.3206,0.0,0.0,5.3206,5.3206,5.3206,5.3206,5.3206,0.0,5.3537,0.0,5.5335,5.651,5.7886,5.7997,5.7997,5.7997,5.7997,5.7997,5.7997,5.7997,5.7997,5.7997,5.7997,5.7997,5.7997,5.7997,5.7997,5.7997,5.7997,5.7997,5.7997,5.7997,5.7997,0.0,5.7997,5.7997,5.7997,5.7997,5.7997,5.7997,5.7997,5.7997,5.7997,0.0,0.0,0.0,0.0,0.0,0.0,3.5138,3.487,3.4572,3.4223,3.3961,3.3807,3.3807,3.3807,3.3807,3.3807,3.4578,0.0,0.0,0.0,0.0,0.0,0.0,0.0,0.0,0.0,3.8433,3.7893,3.8415,3.8415,3.7893,3.7911,3.8183,3.8658,0.0,0.0,0.0,0.0,0.0,0.0,0.0,0.0,0.0,0.0,0.0,0.0,0.0,0.0,0.0,0.0,0.0,0.0,0.0,0.0,0.0,0.0,4.77,4.8306,4.8306,4.8306,4.8306,4.8306,4.8306,4.8306,0.0,0.0,4.9591,4.9609,5.0875,5.1995,5.1995,5.2656,5.3206,0.0,0.0,0.0,5.3206,5.3206,5.3206,0.0,0.0,5.3537,5.4326,5.5849,5.7134,5.7941,5.7997,0.0,5.7997,5.7997,5.7997,5.7997,5.7997,5.7997,5.7997,5.7997,5.7997,5.7997,5.7997,5.7997,5.7997,5.7997,5.7997,5.7997,5.7997,5.7997,0.0,5.7997,5.7997,5.7997,5.7997,5.7997,5.7997,5.7997,5.7997,5.7997,0.0,0.0,0.0,0.0,0.0,0.0,0.0,3.487,3.4572,3.4246,3.3961,3.3807,3.3807,3.3807,3.3807,3.3807,3.4559,0.0,0.0,0.0,0.0,0.0,0.0,0.0,0.0,0.0,3.8627,3.8465,3.8627,3.8627,3.8465,3.8465,3.8546,3.8707,3.8496,0.0,0.0,0.0,0.0,0.0,0.0,0.0,0.0,0.0,0.0,0.0,0.0,0.0,0.0,0.0,0.0,0.0,0.0,0.0,0.0,0.0,0.0,0.0,4.8306,4.8306,4.8306,4.8306,4.8306,4.8306,4.8306,4.8508,4.8875,4.9462,4.9994,5.0692,5.1793,5.2197,5.2564,0.0,0.0,0.0,0.0,0.0,0.0,5.3206,5.3206,5.3739,0.0,0.0,5.6528,5.7886,5.7997,5.7997,5.7997,5.7997,5.7997,5.7997,5.7997,5.7997,5.7997,5.7997,5.7997,5.7997,5.7997,5.7997,5.7997,5.7997,5.7997,5.7997,5.7997,5.7997,5.7997,5.7997,5.7997,5.7997,5.7997,5.7997,5.7997,5.7997,5.7997,5.7997,0.0,0.0,0.0,0.0,0.0,0.0,0.0,3.5016,3.4754,3.4423,3.4141,3.3928,3.3815,3.3807,3.3807,3.3807,3.4266,0.0,0.0,0.0,0.0,0.0,0.0,0.0,0.0,3.8707,3.8707,3.8707,3.8707,3.8707,3.8707,3.8707,3.8707,3.8707,3.8707,0.0,0.0,0.0,0.0,0.0,0.0,0.0,3.8707,0.0,0.0,0.0,0.0,0.0,0.0,0.0,0.0,0.0,0.0,0.0,0.0,0.0,4.6599,4.7921,0.0,4.8306,4.8306,4.8306,4.8306,0.0,0.0,4.8306,4.8453,4.8985,4.9352,4.9976,5.1298,5.1793,5.2252,5.3078,0.0,0.0,0.0,0.0,0.0,5.3206,0.0,0.0,0.0,5.5409,5.6124,5.7446,5.7831,5.7997,5.7997,5.7997,5.7997,5.7997,5.7997,5.7997,5.7997,5.7997,5.7997,5.7997,5.7997,5.7997,5.7997,5.7997,5.7997,5.7997,5.7997,5.7997,0.0,5.7997,5.7997,5.7997,5.7997,5.7997,5.7997,5.7997,5.7813,5.7556,0.0,0.0,0.0,0.0,0.0,0.0,0.0,3.5273,3.4999,3.4754,3.4423,3.4117,3.3868,3.3815,3.3807,3.3807,0.0,0.0,0.0,0.0,0.0,0.0,0.0,0.0,0.0,3.867,3.8707,3.8707,3.8707,3.8707,3.8707,3.8707,3.8707,3.8707,3.8707,3.8707,0.0,0.0,0.0,0.0,0.0,0.0,0.0,0.0,0.0,0.0,0.0,0.0,0.0,0.0,0.0,0.0,0.0,0.0,0.0,0.0,0.0,0.0,0.0,4.8269,4.8306,4.8306,4.8306,0.0,0.0,0.0,0.0,4.8306,4.893,4.9738,5.0563,5.1371,5.2179,5.2986,0.0,0.0,0.0,5.3206,0.0,0.0,5.3206,0.0,5.4326,5.5115,5.5923,5.6748,5.7556,5.7997,5.7997,5.7997,5.7997,5.7997,5.7997,5.7997,5.7997,5.7997,5.7997,5.7997,5.7997,5.7997,5.7997,5.7997,5.7997,0.0,5.7997,5.7997,5.7997,5.7997,5.7997,5.7997,5.7997,5.796,5.7905,5.7905,5.7409,5.6712,0.0,0.0,0.0,0.0,0.0,0.0,0.0,0.0,0.0,0.0,3.4553,3.4195,3.4099,3.391,3.3807,0.0,0.0,0.0,0.0,0.0,0.0,0.0,0.0,0.0,0.0,3.8395,3.8707,3.8707,3.8707,3.8707,3.8707,3.8707,3.8707,3.8707,3.8707,3.8707,0.0,0.0,0.0,0.0,0.0,0.0,0.0,0.0,0.0,0.0,3.8707,3.9221,0.0,0.0,0.0,0.0,0.0,0.0,0.0,0.0,4.5406,4.6361,4.7168,0.0,4.8306,4.8306,4.8306,4.8306,0.0,0.0,0.0,0.0,0.0,4.8875,4.9719,5.0527,5.1353,0.0,0.0,5.3206,5.3206,5.3206,0.0,5.3206,5.3206,5.3537,5.4326,5.5115,5.5923,5.6748,5.7556,5.7997,5.7997,5.7997,5.7997,5.7997,5.7997,5.7997,5.7997,5.7997,5.7997,5.7997,5.7997,5.7997,5.7997,5.7997,5.7997,5.7997,5.7997,5.7997,5.7997,5.7997,5.7997,5.7997,5.7997,5.7611,5.7079,5.7079,5.6565,5.5868,0.0,0.0,0.0,0.0,0.0,0.0,0.0,0.0,0.0,0.0,0.0,0.0,0.0,0.0,0.0,0.0,0.0,0.0,0.0,0.0,0.0,0.0,0.0,0.0,3.7489,3.7918,3.8322,3.8707,3.8707,3.8707,3.8707,3.8707,3.8707,3.8707,3.8707,3.8707,0.0,0.0,0.0,0.0,3.8707,0.0,0.0,0.0,0.0,0.0,3.8707,3.8982,0.0,4.0708,4.1405,4.1956,0.0,0.0,0.0,0.0,4.4727,4.5535,4.6342,4.7425,4.8306,4.8306,4.8306,4.8306,4.8306,0.0,0.0,0.0,0.0,4.8563,4.9426,5.0251,0.0,0.0,5.2674,0.0,0.0,0.0,5.3206,5.3206,5.3206,5.339,0.0,5.4583,5.5225,5.5666,5.6785,5.7446,5.7446,5.7795,5.7997,5.7997,5.7997,5.7997,5.7997,5.7997,5.7997,5.7997,5.7997,5.7997,5.7997,5.7997,5.7997,5.7997,5.7997,5.7997,5.796,5.7593,5.7446,5.7409,5.7042,5.662,5.6253,5.6253,5.5739,5.5042,0.0,0.0,0.0,0.0,0.0,0.0,0.0,0.0,0.0,0.0,0.0,0.0,0.0,0.0,0.0,0.0,0.0,0.0,0.0,0.0,0.0,0.0,0.0,3.5734,3.7276,3.7452,3.7881,3.8707,3.8707,3.8707,3.8707,3.8707,3.8707,3.8707,3.8707,3.8707,0.0,0.0,0.0,0.0,3.8707,0.0,0.0,0.0,0.0,0.0,0.0,0.0,0.0,4.0432,4.102,4.1368,4.2837,0.0,0.0,0.0,0.0,0.0,4.5681,4.6985,4.8159,4.8269,4.8306,4.8306,4.8306,0.0,0.0,0.0,0.0,0.0,0.0,5.016,0.0,0.0,0.0,0.0,5.3206,5.3206,5.3206,5.3206,5.3206,0.0,5.3206,5.394,5.4399,5.4399,5.5776,5.662,5.662,5.7262,5.7629,5.7629,5.7629,5.7629,5.7629,5.7868,5.7997,5.7997,5.7997,5.7997,5.7997,5.7868,5.7813,5.7813,0.0,0.0,5.7574,5.6895,5.662,5.6547,5.5868,5.55,5.5409,5.5409,5.4913,5.4216,0.0,0.0,0.0,0.0,0.0,0.0,0.0,0.0,0.0,0.0,0.0,0.0,0.0,0.0,0.0,0.0,0.0,0.0,0.0,0.0,0.0,0.0,3.475,3.5477,3.645,3.7129,3.7881,3.8707,3.8707,3.8707,3.8707,3.8707,3.8707,3.8707,3.8707,3.8707,3.8707,0.0,0.0,0.0,0.0,0.0,0.0,0.0,0.0,0.0,0.0,0.0,0.0,3.9772,4.0543,4.1277,4.2194,0.0,0.0,0.0,0.0,0.0,4.5681,4.6581,4.7462,4.8141,4.8306,4.8306,4.8306,0.0,0.0,0.0,0.0,0.0,0.0,4.9756,5.0839,0.0,0.0,5.3206,0.0,0.0,5.3206,5.3206,0.0,5.3206,5.3206,5.394,5.4399,5.4399,5.5262,5.5776,5.5776,5.5886,5.5959,5.5959,5.5959,5.5959,5.5959,5.7317,5.7997,5.7997,5.7997,5.7997,5.7978,5.7299,5.6987,5.695,0.0,5.5959,5.5941,5.5831,5.5776,5.5757,5.5647,5.517,5.4583,5.4583,5.4069,5.339,0.0,0.0,0.0,0.0,0.0,0.0,0.0,0.0,0.0,0.0,0.0,0.0,0.0,0.0,0.0,0.0,0.0,0.0,0.0,0.0,0.0,3.42,3.4614,3.5175,3.5851,3.6509,3.7239,3.8046,3.8487,3.8707,3.8707,3.8707,3.8707,3.8707,3.8707,3.8707,3.8707,3.8707,0.0,0.0,0.0,0.0,0.0,0.0,0.0,0.0,0.0,0.0,0.0,0.0,4.0432,4.1258,4.2047,0.0,0.0,0.0,0.0,0.0,4.5039,4.5847,4.6654,4.7462,4.7994,4.8306,4.8306,0.0,0.0,0.0,0.0,0.0,0.0,0.0,5.0435,5.1298,0.0,5.3206,5.3206,5.3206,5.3206,0.0,0.0,5.3206,5.3206,5.3537,5.3757,5.3757,5.4491,5.495,5.495,5.5354,5.5592,5.5592,5.5592,5.5592,5.5592,5.6326,5.6693,5.6693,5.6693,5.6693,5.6675,5.6308,5.6143,5.6124,0.0,5.5592,5.5556,5.5115,5.495,5.4913,5.4473,5.4087,5.3757,5.3757,5.3537,5.3206,0.0,0.0,0.0,0.0,0.0,0.0,0.0,0.0,0.0,0.0,0.0,0.0,0.0,0.0,0.0,0.0,0.0,0.0,0.0,0.0,3.4357,3.4405,3.4593,3.4986,3.5586,3.611,3.6795,3.7606,3.8334,3.8707,3.8707,3.8707,3.8707,3.8707,3.8707,3.8707,3.8707,3.8707,3.8707,0.0,0.0,0.0,0.0,0.0,0.0,0.0,0.0,0.0,0.0,0.0,0.0,0.0,0.0,0.0,0.0,4.3497,4.3497,4.3663,4.4488,4.5296,4.6085,4.6911,0.0,4.8306,4.8306,0.0,0.0,0.0,0.0,0.0,0.0,4.9169,0.0,5.1756,5.2674,5.3206,5.3206,5.3206,5.3206,5.3206,5.3206,5.3206,5.3206,5.3206,5.3206,5.3206,5.3775,5.4124,5.4124,5.4693,5.5042,5.5042,5.5042,5.5042,5.5042,5.5042,5.5225,5.5592,5.5592,5.5592,5.5574,5.539,5.5317,5.5299,5.5115,5.5042,5.4987,5.4363,5.4124,5.4069,5.3445,5.3206,5.3206,5.3206,5.3206,5.3206,0.0,0.0,0.0,0.0,0.0,0.0,0.0,0.0,0.0,0.0,0.0,0.0,0.0,0.0,0.0,0.0,0.0,0.0,0.0,0.0,3.4774,3.5016,3.4813,3.507,3.5859,3.6403,3.7065,3.7865,3.8416,3.8707,3.8707,3.8707,3.8707,3.8707,3.8707,3.8707,3.8707,3.8707,3.8707,3.8707,0.0,0.0,0.0,0.0,0.0,0.0,0.0,0.0,0.0,0.0,0.0,0.0,0.0,0.0,4.3497,4.3497,4.3497,4.3663,4.4488,4.5296,4.6085,4.6911,4.7719,0.0,4.8306,4.8306,0.0,0.0,0.0,0.0,0.0,4.9627,5.1004,5.1848,5.2674,5.3206,5.3206,0.0,5.3206,5.3206,5.3206,5.3206,5.3206,5.3206,5.3206,5.3206,5.3261,5.3298,5.3298,5.3353,5.339,5.339,5.339,5.339,5.339,5.339,5.4124,5.5592,5.5592,5.5592,5.5556,5.4821,5.4491,5.4436,5.3702,5.339,5.339,5.3316,5.3298,5.3298,5.3225,5.3206,5.3206,5.3206,5.3206,5.3206,0.0,0.0,0.0,0.0,0.0,0.0,0.0,0.0,0.0,0.0,0.0,0.0,0.0,0.0,0.0,0.0,0.0,0.0,0.0,0.0,3.4999,3.5105,3.5155,3.5553,3.6375,3.6757,3.7023,3.7147,3.8206,3.8707,3.8707,3.8707,3.8707,3.8707,3.8707,3.8707,3.8707,3.8707,3.8707,3.8707,3.8707,0.0,0.0,0.0,0.0,0.0,0.0,0.0,0.0,0.0,3.9772,4.1111,4.1111,4.2194,4.3497,4.3497,4.3497,4.3552,4.3864,4.4911,4.5975,4.6287,0.0,0.0,0.0,0.0,0.0,0.0,0.0,0.0,0.0,0.0,5.0894,5.1206,5.2362,5.3206,5.3206,5.3206,5.3206,5.3206,5.3206,5.3206,5.3206,5.3206,5.3206,5.3206,5.3206,5.3206,5.3206,5.3206,5.3206,5.3206,5.3206,5.3206,5.3206,5.3206,5.3518,5.4106,5.4106,5.4106,5.4106,5.3794,5.3665,5.3647,5.3335,5.3206,5.3206,5.3206,5.3206,5.3206,5.3206,5.3206,5.3206,5.3206,5.3206,5.3206,0.0,0.0,0.0,0.0,0.0,0.0,0.0,0.0,0.0,0.0,0.0,0.0,0.0,0.0,0.0,0.0,0.0,0.0,3.5223,3.5223,3.5223,3.5223,3.5398,3.5892,3.668,3.7142,3.7387,3.7361,3.834,3.8815,3.8815,3.875,3.8707,3.8707,3.8707,3.8707,3.8707,3.8707,3.8707,3.8707,3.8707,3.8707,0.0,0.0,0.0,0.0,0.0,0.0,0.0,0.0,3.9772,4.1111,4.1111,4.2194,4.3497,4.3497,4.3497,4.3497,4.3497,4.4672,4.5902,0.0,0.0,0.0,0.0,0.0,0.0,0.0,4.8306,0.0,0.0,0.0,0.0,0.0,5.216,5.3206,5.3206,5.3206,5.3206,5.3206,5.3206,5.3206,5.3206,5.3206,5.3206,5.3206,5.3206,5.3206,5.3206,5.3206,5.3206,5.3206,5.3206,5.3206,5.3206,5.3206,5.3206,5.3206,5.3206,5.3206,5.3206,5.3206,5.3206,5.3206,5.3206,5.3206,5.3206,5.3206,5.3206,5.3206,5.3206,5.3206,5.3206,5.3206,5.3206,5.3206,0.0,0.0,0.0,0.0,0.0,0.0,0.0,0.0,0.0,0.0,0.0,0.0,0.0,0.0,0.0,0.0,0.0,0.0,3.5493,3.5493,3.5493,3.5493,3.5493,3.5892,3.6699,3.7565,3.8284,3.8804,3.9019,3.908,3.9099,3.8815,3.8707,3.8707,3.8707,3.8707,3.8707,3.8707,3.8707,3.8707,3.8707,3.8707,3.8707,0.0,0.0,0.0,0.0,0.0,0.0,0.0,3.9772,4.1111,4.1111,4.2194,4.3497,4.3497,4.3497,4.3497,4.3497,4.4672,0.0,0.0,0.0,0.0,0.0,0.0,0.0,0.0,0.0,4.8306,4.8306,0.0,0.0,5.0802,5.2142,5.3206,5.3206,5.3206,5.3206,5.3206,5.3206,5.3206,5.3206,5.3206,5.3206,5.3206,5.3206,5.3206,5.3206,5.3206,5.3206,5.3206,5.3206,5.3206,5.3206,5.3206,5.3206,5.3206,5.3206,5.3206,5.3206,5.3206,5.3206,5.3206,5.3206,5.3206,5.3206,5.3206,5.3206,5.3206,5.3206,5.3206,5.3206,5.3206,5.3206,5.3206,0.0,0.0,0.0,0.0,0.0,0.0,0.0,0.0,0.0,0.0,0.0,0.0,0.0,0.0,0.0,0.0,0.0,0.0,3.5493,3.5493,3.5493,3.5493,3.5493,3.6161,3.7584,3.9008,3.9723,3.9719,3.9301,3.9212,3.9438,3.9144,3.8971,3.8971,3.8971,3.8884,3.8707,3.8707,3.8707,3.8707,3.8707,3.8707,3.8707,0.0,0.0,0.0,0.0,0.0,0.0,0.0,0.0,0.0,4.1111,4.2194,4.3497,4.3497,4.3497,4.3497,4.3497,4.4672,0.0,4.5902,0.0,0.0,0.0,0.0,0.0,0.0,4.8306,4.8306,4.8306,0.0,0.0,5.071,5.1683,5.2546,5.3133,5.3206,5.3206,5.3206,5.3206,5.3206,5.3206,5.3206,5.3206,5.3206,5.3206,5.3206,5.3206,5.3206,5.3206,5.3206,5.3206,5.3206,5.3206,5.3206,5.3206,5.3206,5.3206,5.3206,5.3206,5.3206,5.3206,5.3206,5.3206,5.3206,5.3206,5.3206,5.3206,5.3206,5.3206,5.3206,5.3206,5.3206,5.3206,5.3206,0.0,0.0,0.0,0.0,0.0,0.0,0.0,0.0,0.0,0.0,0.0,0.0,0.0,0.0,0.0,0.0,0.0,0.0,0.0,3.5493,3.5493,3.5493,3.5815,3.6776,3.8469,3.9815,4.0406,4.025,3.9757,3.9599,3.9797,3.9457,3.9231,3.9099,3.9099,3.8961,3.8707,3.8707,3.8707,3.8707,3.8707,3.8707,3.8707,0.0,0.0,0.0,0.0,0.0,0.0,0.0,0.0,0.0,4.1111,0.0,4.3497,4.3497,4.3497,4.3552,4.3883,0.0,0.0,4.6305,4.7352,4.8306,4.8306,0.0,0.0,0.0,0.0,4.8306,4.8306,4.9003,0.0,5.0674,5.1481,5.227,5.3096,5.3206,5.3206,5.3206,5.3206,5.3206,5.3206,5.3206,5.3206,5.3206,5.3206,5.3206,5.3206,5.3206,5.3206,5.3206,5.3206,5.3206,5.3206,5.3206,5.3206,5.3206,5.3206,5.3206,5.3206,5.3206,5.3206,5.3206,5.3206,5.3206,5.3206,5.3206,5.3206,5.3206,5.3206,5.3206,5.3206,5.3206,5.3206,5.3206,0.0,0.0,0.0,0.0,0.0,0.0,0.0,0.0,0.0,0.0,0.0,0.0,0.0,0.0,0.0,0.0,0.0,0.0,0.0,0.0,3.5493,3.5493,3.6353,3.7603,3.9258,4.0085,4.0489,4.0489,4.0232,4.012,4.012,3.9797,3.9481,3.9152,3.9152,3.899,3.8707,3.8707,3.8707,3.8707,3.8707,3.8707,3.8707,3.8707,0.0,0.0,0.0,0.0,0.0,0.0,0.0,0.0,4.1203,4.2268,4.3497,4.3497,4.3497,4.3663,4.4488,0.0,0.0,4.6911,4.7719,0.0,4.8306,4.8306,4.8306,4.8306,0.0,4.8306,4.8306,4.8948,4.9756,5.0655,5.1408,5.2197,5.3096,5.3206,5.3206,5.3206,5.3206,5.3206,5.3206,5.3206,5.3206,5.3206,5.3206,5.3206,5.3206,5.3206,5.3206,5.3206,5.3206,5.3206,5.3206,5.3206,5.3206,5.3206,5.3206,5.3206,5.3206,5.3206,5.3206,5.3206,5.3206,5.3206,5.3206,5.3206,5.3206,5.3206,5.3206,5.3206,5.3206,5.3206,5.3206,5.3206,0.0,0.0,0.0,0.0,0.0,0.0,0.0,0.0,0.0,0.0,0.0,0.0,0.0,0.0,0.0,0.0,0.0,0.0,0.0,0.0,3.5493,3.5493,3.693,3.8219,3.9277,4.0085,4.0489,4.0489,4.0232,4.0195,4.0406,4.012,3.9819,3.9486,3.9486,3.9189,3.8707,3.8707,3.8707,3.8707,3.8707,3.8707,3.8707,3.8707,3.8707,0.0,0.0,0.0,0.0,0.0,0.0,0.0,4.1846,4.2708,4.3497,4.3497,4.3497,4.3663,4.4488,4.5296,0.0,0.0,4.7719,4.8306,4.8306,4.8306,4.8306,4.8306,4.8306,4.8306,4.8306,4.8453,4.9077,5.0563,5.0949,5.1573,5.3004,5.3206,5.3206,5.3206,5.3206,5.3206,5.3206,5.3206,5.3206,5.3206,5.3206,5.3206,5.3206,5.3206,5.3206,5.3206,5.3206,5.3206,5.3206,5.3206,5.3206,5.3206,5.3206,5.3206,5.3206,5.3206,5.3206,5.3206,5.3206,5.3206,5.3206,5.3206,5.3206,5.3206,5.3206,5.3206,5.3206,5.3206,5.3206,5.3206,0.0,0.0,0.0,0.0,0.0,0.0,0.0,0.0,0.0,0.0,0.0,0.0,0.0,0.0,0.0,0.0,0.0,0.0,0.0,0.0,3.5872,3.6661,3.793,3.9008,3.9854,4.0277,4.0489,4.0489,4.0356,4.0356,4.0489,4.0233,4.0002,3.9838,3.9486,3.9197,3.8884,3.8762,3.8707,3.8707,3.8707,3.8707,3.8707,3.8707,3.8707,3.8707,3.8707,0.0,0.0,0.0,0.0,0.0,0.0,0.0,4.3497,4.3497,4.3497,4.3754,4.4947,0.0,0.0,4.7388,0.0,4.8306,4.8306,4.8306,4.8306,4.8306,4.8306,4.8306,4.8306,4.8306,4.8728,5.0013,5.0545,5.1224,5.2454,5.2968,5.3206,5.3206,5.3206,5.3206,5.3206,5.3206,5.3206,5.3206,5.3206,5.3206,5.3206,5.3206,5.3206,5.3206,5.3206,5.3206,5.3206,5.3206,5.3206,5.3206,5.3206,5.3206,5.3206,5.3206,5.3206,5.3188,5.2803,5.2637,5.2601,5.2215,5.205,5.205,5.205,5.205,5.205,5.205,5.205,5.205,0.0,0.0,0.0,0.0,0.0,0.0,0.0,0.0,0.0,0.0,0.0,0.0,0.0,0.0,0.0,0.0,0.0,0.0,0.0,0.0,0.0,3.8161,3.8911,3.9681,4.0469,4.0489,4.0489,4.0489,4.0489,0.0,0.0,0.0,4.0139,4.0081,3.9462,3.9133,3.9072,3.8815,3.8707,3.8707,3.8707,3.8707,3.8707,3.8707,3.8799,3.8909,3.8909,3.9423,4.012,4.0267,0.0,0.0,0.0,0.0,4.3497,4.3497,4.3497,4.3846,4.5461,0.0,4.6636,4.7976,4.8306,0.0,4.8306,4.8306,4.8306,4.8306,4.8306,4.8306,4.8306,4.8306,4.86,4.9444,5.016,5.0912,5.1867,5.2564,5.3059,5.3188,5.3206,5.3206,5.3206,5.3206,5.3206,5.3206,5.3206,5.3206,5.3206,5.3206,5.3206,5.3206,5.3206,5.3206,5.3206,5.3206,5.3206,5.3206,5.3078,5.2931,5.2803,5.2803,5.2876,5.2968,5.2142,5.1775,5.1738,5.1077,5.0802,5.0802,5.0802,5.0802,5.0802,5.0802,5.0802,5.0802,0.0,0.0,0.0,0.0,0.0,0.0,0.0,0.0,0.0,0.0,0.0,0.0,0.0,0.0,0.0,0.0,0.0,0.0,3.6488,0.0,0.0,3.9084,3.9238,3.9681,4.0469,4.0489,4.0489,4.0489,0.0,0.0,0.0,0.0,0.0,4.0081,0.0,3.9364,3.9072,3.8815,3.8707,3.8707,3.8707,3.8707,3.8707,3.8707,3.9129,3.9735,3.9735,4.0267,4.1056,4.1735,4.2121,0.0,0.0,0.0,4.3497,4.3497,4.3497,4.3846,0.0,0.0,4.8031,0.0,4.8306,4.8306,0.0,0.0,4.8306,0.0,4.8306,4.8306,4.8306,4.8306,4.86,4.9444,4.9682,5.027,5.1775,5.2087,5.2417,5.3133,5.3206,5.3206,5.3206,5.3206,5.3206,5.3206,5.3206,5.3206,5.3206,5.3206,5.3206,5.3206,5.3206,5.3206,5.3206,5.3206,5.3206,5.3206,5.2491,5.1793,5.1132,5.1132,5.1499,5.2105,5.1316,5.0967,5.0949,5.0839,5.0802,5.0802,5.0802,5.0802,5.0802,5.0802,5.0802,5.0802,0.0,0.0,0.0,0.0,0.0,0.0,0.0,0.0,0.0,0.0,0.0,0.0,0.0,0.0,0.0,3.5493,3.5911,3.6526,3.7373,3.8238,3.8892,3.9277,3.9719,4.0142,4.0489,4.0489,4.0489,4.0489,0.0,0.0,0.0,4.0489,4.0441,0.0,0.0,0.0,0.0,3.8902,3.8707,3.8707,3.8707,3.8707,3.8762,3.9203,3.9588,0.0,0.0,0.0,4.1827,4.2176,4.2598,4.302,4.3387,0.0,0.0,0.0,4.3497,0.0,4.5461,4.7076,4.8306,0.0,4.8306,4.8306,4.8306,4.8306,4.8306,4.8306,4.8306,4.8306,4.8306,4.8306,4.8434,4.8802,4.926,4.9811,5.049,5.1022,5.1628,5.2435,5.2527,5.2711,5.317,5.3206,5.3206,5.3206,5.3206,5.3206,5.3206,5.3206,5.3206,5.3206,5.3206,5.2986,5.2527,5.2527,5.2307,5.1848,5.1499,5.1132,5.0784,5.0325,5.0563,5.1279,5.0472,5.0123,5.0086,4.9609,4.9407,4.9407,4.9407,4.9407,4.9407,4.9407,4.9407,4.9407,0.0,0.0,0.0,0.0,0.0,0.0,0.0,0.0,0.0,0.0,0.0,0.0,0.0,0.0,0.0,0.0,3.6565,3.7411,3.8277,3.9123,3.9604,3.9604,4.0181,4.0489,4.0489,4.0489,4.0489,0.0,0.0,0.0,4.0489,4.0441,4.0389,0.0,3.958,0.0,0.0,0.0,0.0,0.0,3.8707,3.8707,3.8799,0.0,0.0,4.0304,4.113,0.0,0.0,0.0,0.0,4.3497,4.3497,4.3497,0.0,0.0,0.0,0.0,0.0,0.0,4.8049,4.8251,4.8306,4.8306,0.0,0.0,4.8306,0.0,4.8306,4.8306,4.8306,4.8306,4.8306,4.8306,4.8838,4.9315,4.9499,5.0086,5.0784,5.1591,5.1701,5.1922,5.2546,5.2601,5.2601,5.2601,5.2601,5.2601,5.2601,5.2601,5.2601,5.2601,5.2601,5.2307,5.1701,5.1701,5.1279,5.049,5.049,5.038,5.0141,4.9536,4.9591,5.0141,4.9517,4.926,4.9205,4.8563,4.8306,4.8306,4.8306,4.8306,4.8306,4.8306,4.8306,4.8306,0.0,0.0,0.0,0.0,0.0,0.0,0.0,0.0,0.0,0.0,0.0,0.0,3.5493,3.618,3.6642,3.6642,3.743,3.8296,3.9181,3.9988,4.0431,4.0431,4.0469,0.0,4.0489,4.0489,0.0,0.0,0.0,0.0,4.0489,4.0232,4.012,4.0101,3.9754,3.9408,3.9099,0.0,0.0,0.0,0.0,0.0,0.0,0.0,0.0,0.0,0.0,0.0,0.0,0.0,0.0,0.0,0.0,0.0,0.0,0.0,0.0,0.0,0.0,4.6526,0.0,4.8122,4.8306,0.0,0.0,0.0,4.8306,4.8306,4.8306,4.8306,4.8306,4.8306,4.8306,4.8306,4.8343,4.8655,4.9462,4.9609,4.9958,5.0765,5.0857,5.0875,5.093,5.093,5.093,5.093,5.093,5.093,5.093,5.093,5.093,5.093,5.093,5.0912,5.0857,5.0857,5.0453,4.9646,4.9646,4.9224,4.8434,4.8398,4.8398,4.8434,4.8398,4.8379,4.8361,4.8324,4.8306,4.8306,4.8306,4.8306,4.8306,4.8306,4.8306,4.8306,0.0,0.0,0.0,0.0,0.0,0.0,0.0,0.0,0.0,0.0,0.0,0.0,0.0,3.7026,3.7526,3.7526,3.8334,3.9181,4.0008,4.0335,4.0489,4.0489,4.0489,4.0489,4.0489,4.0489,0.0,0.0,0.0,4.0489,4.0489,4.0389,4.0157,3.9775,3.9414,3.9212,3.9072,3.8815,0.0,0.0,0.0,0.0,0.0,0.0,0.0,0.0,0.0,0.0,0.0,0.0,0.0,0.0,0.0,0.0,0.0,0.0,0.0,0.0,0.0,0.0,0.0,4.8233,4.8306,4.8306,4.8306,4.8306,4.8306,4.8306,4.8306,4.8306,4.8306,4.8306,4.8306,4.8306,4.8306,4.8416,4.8728,4.8765,4.9077,4.9921,5.0013,5.0215,5.0747,5.0802,5.0802,5.0802,5.0802,5.0802,5.0802,5.0802,5.0802,5.0802,5.0802,5.0545,5.0013,4.9462,4.9058,4.8765,4.8765,4.86,4.8306,4.8306,4.8306,4.8306,4.8306,4.8306,4.8306,4.8306,4.8306,4.8306,4.8306,4.8306,4.8306,4.8306,4.8306,4.8306,0.0,0.0,0.0,0.0,0.0,0.0,0.0,0.0,0.0,0.0,0.0,0.0,0.0,0.0,3.8546,3.8815,3.9373,3.9931,4.0469,4.0489,4.0489,4.0489,4.0489,4.0489,4.0489,0.0,0.0,0.0,0.0,0.0,0.0,4.0283,4.0043,3.9735,3.9197,3.8961,0.0,0.0,0.0,3.9093,0.0,0.0,4.0409,0.0,0.0,0.0,0.0,0.0,0.0,0.0,0.0,0.0,0.0,0.0,0.0,0.0,0.0,0.0,4.5828,0.0,0.0,0.0,4.8306,4.8306,4.8306,4.8306,4.8306,4.8306,4.8306,4.8306,4.8306,4.8306,4.8306,4.8306,4.8306,4.8306,4.8306,4.8306,4.8508,4.9077,4.915,4.937,4.9921,4.9958,4.9958,4.9958,4.9958,0.0,4.9958,4.9958,4.9958,4.9958,4.9958,4.9701,4.9169,4.86,4.8306,4.8306,4.8306,4.8306,4.8306,4.8306,4.8306,4.8306,4.8306,4.8306,4.8306,4.8306,4.8306,4.8306,4.8306,4.8306,4.8306,4.8306,4.8306,4.8306,0.0,0.0,0.0,0.0,0.0,0.0,0.0,0.0,0.0,0.0,0.0,0.0,0.0,0.0,0.0,4.0431,4.0489,4.0489,4.0489,4.0489,4.0489,4.0489,4.0489,4.0489,4.0489,0.0,0.0,0.0,0.0,0.0,0.0,0.0,3.9797,4.0061,3.9119,3.8689,3.8689,0.0,3.9166,3.9913,0.0,4.0674,4.1268,0.0,0.0,0.0,4.3204,4.3497,0.0,4.3497,0.0,0.0,0.0,0.0,0.0,0.0,0.0,0.0,0.0,0.0,0.0,0.0,0.0,0.0,4.8306,4.8306,4.8306,4.8306,4.8306,4.8306,4.8306,4.8306,4.8306,4.8306,4.8306,4.8306,4.8306,4.8306,4.8306,4.8306,4.8306,4.8306,4.8306,4.8306,4.8306,4.8306,4.8306,4.8306,4.8306,4.8306,4.8306,4.8306,4.8306,4.8306,4.8306,4.8306,4.8306,4.8306,4.8306,4.8306,4.8306,4.8306,4.8306,4.8306,4.8306,4.8306,4.8306,4.8306,4.8306,4.8306,4.8306,4.8306,4.8306,4.8306,4.8344,4.8344,0.0,0.0,0.0,0.0,0.0,0.0,0.0,0.0,0.0,0.0,0.0,0.0,0.0,3.9662,4.0258,4.0469,4.0489,4.0489,4.0489,4.0489,4.0489,4.0489,4.0489,4.0489,4.0489,0.0,0.0,0.0,0.0,0.0,0.0,0.0,0.0,0.0,3.9308,3.8999,3.899,3.8773,0.0,0.0,3.9989,4.0966,0.0,0.0,0.0,0.0,0.0,4.3497,4.3497,0.0,4.3497,4.3497,0.0,0.0,0.0,0.0,0.0,0.0,4.5847,0.0,0.0,0.0,0.0,0.0,4.8306,4.8306,4.8306,4.8306,4.8306,4.8306,4.8306,4.8306,4.8306,4.8306,4.8306,4.8306,4.8306,4.8306,4.8306,4.8306,4.8306,4.8306,4.8306,4.8306,4.8306,0.0,4.8306,4.8306,4.8306,4.8306,4.8306,4.8306,4.8306,4.8306,4.8306,4.8306,4.8306,4.8306,4.8306,4.8306,4.8306,4.8306,4.8306,4.8306,4.8306,4.8306,4.8306,4.8306,4.8306,4.8306,4.8306,4.8495,4.8709,4.8709,4.893,4.919,0.0,0.0,0.0,0.0,0.0,0.0,3.7911,3.8315,0.0,0.0,0.0,0.0,0.0,0.0,4.0489,4.0489,4.0489,4.0489,4.0489,4.0489,4.0489,4.0489,4.0489,4.0489,4.0489,0.0,0.0,0.0,0.0,0.0,0.0,0.0,0.0,0.0,0.0,0.0,0.0,0.0,0.0,0.0,4.1074,0.0,0.0,4.3225,4.3491,0.0,0.0,0.0,4.3497,4.3497,4.3497,0.0,0.0,0.0,0.0,0.0,0.0,0.0,0.0,0.0,0.0,0.0,0.0,0.0,4.8306,4.8306,4.8306,4.8306,4.8306,4.8306,4.8306,4.8306,4.8306,4.8306,4.8306,4.8306,4.8306,4.8306,4.8306,4.8306,4.8306,4.8306,4.8306,4.8306,4.8306,4.8306,4.8306,4.8306,4.8306,4.8306,4.8306,4.8306,4.8306,4.8306,4.8306,4.8306,4.8306,4.8306,4.8306,4.8306,4.8306,4.8306,4.8306,4.8306,4.8306,4.8402,4.8532,4.8532,4.8458,4.8306,4.8306,4.8458,4.8657,4.8847,4.9043,4.9265,0.0,0.0,0.0,3.8123,3.8142,3.8161,3.8257,3.8931,3.9431,0.0,0.0,0.0,0.0,0.0,0.0,0.0,4.0489,4.0489,4.0489,4.0489,4.0489,4.0489,4.0489,4.0489,4.0489,4.0489,0.0,0.0,0.0,0.0,0.0,0.0,0.0,0.0,0.0,0.0,0.0,0.0,0.0,4.1388,4.2725,4.337,0.0,0.0,4.4125,4.3548,4.3513,4.3497,4.3497,4.3497,4.3497,0.0,0.0,0.0,0.0,0.0,4.4709,0.0,0.0,0.0,0.0,0.0,0.0,0.0,4.8306,4.8306,4.8306,4.8306,4.8306,4.8306,4.8306,4.8306,4.8306,4.8306,4.8344,4.8364,4.8306,4.8306,4.8306,4.8306,4.8306,4.8306,4.8306,4.8306,4.8306,4.8306,4.8306,4.8306,4.8306,4.8306,4.8306,4.8306,4.8306,4.8344,4.8364,4.8364,4.8402,4.8421,4.8421,4.8421,4.8421,4.8421,4.8421,4.8421,4.8421,4.864,4.8963,4.8963,4.8763,4.8421,4.8421,4.8458,4.855,4.8897,4.9075,4.9171,3.8007,0.0,0.0,3.8911,3.9046,3.9258,3.9912,4.0162,0.0,0.0,0.0,0.0,0.0,0.0,0.0,0.0,4.0489,4.0489,4.0489,4.0489,4.0489,4.0489,4.0489,4.0489,4.0489,4.0489,4.0489,0.0,0.0,0.0,0.0,0.0,0.0,0.0,0.0,0.0,0.0,0.0,0.0,4.2474,4.2781,0.0,4.3912,4.4058,4.4016,4.3881,4.3597,4.3497,4.3497,4.3497,4.3497,4.3497,0.0,0.0,0.0,4.4287,0.0,0.0,0.0,0.0,0.0,0.0,0.0,0.0,4.8306,4.8306,4.8306,4.8306,4.8306,4.8306,4.8306,4.8306,4.8306,4.8306,4.8568,4.8657,4.8326,4.8306,4.8306,4.8306,4.8306,4.8306,4.8306,4.8306,4.8306,4.8306,4.8306,4.8306,4.8306,4.8306,4.8306,4.8306,4.8306,4.8458,4.8779,4.8779,4.893,4.9265,4.9265,4.9265,4.9265,4.9265,4.9265,4.9265,4.9265,4.9295,4.9386,4.9386,4.9326,4.9265,4.9265,4.9475,4.9773,4.9827,5.0068,5.0358,3.9238,0.0,0.0,3.9815,3.9892,4.0027,4.0431,4.0489,0.0,0.0,0.0,0.0,0.0,0.0,0.0,0.0,0.0,4.0489,4.0489,4.0489,4.0489,4.0489,4.0489,4.0489,4.0489,4.0489,4.0422,4.0304,0.0,0.0,0.0,0.0,0.0,0.0,0.0,0.0,0.0,0.0,4.1664,4.2606,4.3174,0.0,4.4016,4.4016,4.3912,4.3726,4.3563,4.3497,4.3497,4.3497,4.3754,0.0,0.0,4.3773,4.4176,0.0,4.5278,4.6085,0.0,0.0,0.0,4.8306,0.0,0.0,0.0,4.8306,4.8306,4.8306,4.8306,4.8306,4.8306,4.8306,4.8306,4.8306,4.8495,4.855,4.8344,4.8477,4.8513,4.8326,4.8306,4.8306,4.8306,4.8306,4.8383,4.8568,4.8797,4.8915,4.8915,4.8915,4.8915,4.8915,4.8915,4.8996,4.9202,4.9202,4.9295,4.9504,4.9504,4.9504,4.9504,4.9504,4.9504,4.9504,4.9504,4.9617,4.98,4.98,4.9924,5.0068,4.9664,4.9617,4.9846,5.0043,5.0225,5.0421,4.0489,0.0,0.0,4.0489,4.0489,4.0489,4.0489,4.0489,0.0,0.0,0.0,0.0,0.0,0.0,0.0,0.0,0.0,0.0,0.0,4.0489,4.0489,4.0489,4.0489,4.0489,4.0489,4.0457,4.0339,4.0177,0.0,0.0,0.0,0.0,0.0,0.0,0.0,0.0,0.0,0.0,0.0,4.2839,0.0,4.3955,4.3893,4.3986,4.3804,4.3497,4.3497,4.3497,4.3497,4.3497,4.403,4.4599,4.3938,4.4176,0.0,0.0,0.0,0.0,0.0,0.0,0.0,0.0,0.0,4.8306,0.0,0.0,0.0,4.8306,4.8306,4.8306,4.8306,4.8306,4.8214,4.7902,0.0,0.0,0.0,4.8472,0.0,4.8326,4.8421,4.8477,4.8421,4.8439,4.8568,4.8996,4.9234,4.9416,4.9504,4.9504,4.9504,4.9504,4.9504,4.9532,4.9617,4.9636,4.9645,4.9746,4.9746,4.9746,4.9746,4.9746,4.9746,4.9746,4.9746,4.9924,5.0225,5.0225,5.0399,5.0643,4.9974,4.9746,4.9773,5.0111,5.0225,5.0272,4.0489,4.0489,0.0,0.0,4.0489,4.0489,4.0489,4.0489,0.0,0.0,0.0,0.0,0.0,0.0,0.0,0.0,0.0,0.0,4.0489,0.0,0.0,4.0489,4.0489,4.0489,4.0489,4.0269,4.0251,4.0457,0.0,0.0,0.0,0.0,0.0,0.0,4.0277,0.0,0.0,0.0,4.3268,0.0,4.408,4.3836,0.0,4.3881,4.3804,4.3497,4.3497,4.3497,4.3497,0.0,4.403,4.469,0.0,4.4635,4.4984,4.6434,0.0,0.0,0.0,0.0,0.0,0.0,4.8306,0.0,0.0,0.0,4.8306,4.8306,0.0,4.8306,4.8306,0.0,0.0,0.0,4.7661,4.8208,4.6434,4.7749,4.8744,4.8326,4.893,4.9234,4.8863,4.8829,4.8996,4.9386,4.9139,4.9108,4.9475,4.9504,4.9504,4.9504,4.9504,4.9692,5.0043,5.0043,5.0206,5.0565,5.0565,5.0565,5.0565,5.0565,5.0565,5.0565,5.0565,5.0604,5.0624,5.0624,5.0663,5.0683,5.0604,5.0565,5.0565,5.0604,5.0624,5.0643,4.0489,4.0489,0.0,0.0,4.0489,4.0489,4.0489,4.0489,0.0,0.0,0.0,0.0,0.0,0.0,0.0,0.0,0.0,4.0339,0.0,0.0,0.0,4.0489,4.0489,4.0489,4.0489,4.0389,4.0321,4.0286,4.0321,0.0,0.0,0.0,0.0,0.0,4.074,0.0,4.2408,0.0,4.337,0.0,0.0,0.0,0.0,4.3881,4.3804,4.3497,4.3497,4.3497,4.3497,0.0,4.4342,0.0,0.0,0.0,0.0,0.0,0.0,0.0,0.0,0.0,0.0,0.0,0.0,0.0,4.8306,0.0,4.8306,0.0,0.0,0.0,0.0,0.0,0.0,0.0,4.691,4.6871,0.0,0.0,4.7553,4.7591,0.0,0.0,4.8189,4.8428,4.8918,4.9789,4.9265,4.9288,5.0164,5.0202,5.0202,5.0202,5.0202,5.0272,5.0462,5.0462,5.0294,4.9952,4.9952,4.9683,4.9183,4.9183,4.9183,4.9183,4.9183,4.9183,4.9183,4.9183,4.949,4.9952,4.9952,5.024,5.0702,5.0702,5.0702,5.0702,4.0489,0.0,0.0,0.0,0.0,4.0489,4.0489,0.0,0.0,0.0,0.0,0.0,4.0389,4.0267,0.0,0.0,4.0286,4.0285,0.0,0.0,4.0489,0.0,0.0,0.0,4.0489,4.0336,4.023,4.0213,4.0157,4.012,0.0,0.0,0.0,0.0,0.0,4.2077,4.3179,0.0,4.3671,4.4271,4.3962,4.3744,4.3646,4.3804,4.3726,4.3497,4.3497,4.3497,4.3497,4.3497,4.4415,0.0,4.4195,0.0,4.6379,0.0,0.0,0.0,4.7755,0.0,0.0,0.0,0.0,0.0,0.0,0.0,0.0,0.0,0.0,0.0,0.0,0.0,0.0,0.0,0.0,4.5755,0.0,4.587,0.0,0.0,0.0,0.0,0.0,4.7834,4.8401,4.9461,4.89,4.8933,4.9933,4.999,4.999,4.999,4.999,4.999,4.999,4.999,4.9663,4.9048,4.9048,4.8702,4.8105,4.8105,4.8105,4.8105,4.8105,4.8105,4.8105,4.8105,4.8471,4.9048,4.9048,4.9433,5.0048,5.051,5.0702,5.0702,4.0489,4.0489,0.0,0.0,0.0,0.0,0.0,0.0,0.0,0.0,0.0,0.0,0.0,0.0,0.0,0.0,0.0,4.0489,4.0489,0.0,4.0489,0.0,0.0,4.0489,0.0,3.9925,3.9905,4.0489,3.9584,3.9462,0.0,0.0,0.0,0.0,0.0,4.2789,4.2883,4.4052,4.4738,4.5052,4.4682,4.4318,4.3955,0.0,4.3513,4.3497,4.3497,0.0,0.0,4.3497,4.4048,0.0,0.0,0.0,0.0,0.0,0.0,0.0,0.0,0.0,0.0,4.8306,0.0,0.0,0.0,0.0,4.8306,0.0,0.0,0.0,0.0,0.0,0.0,0.0,0.0,0.0,0.0,0.0,4.5938,4.5938,0.0,0.0,0.0,4.7264,4.7359,4.8107,4.7767,4.7726,4.8164,4.8182,4.8182,4.8182,4.8182,4.8182,4.8182,4.8182,4.8182,4.8144,4.8144,4.8125,4.8105,4.8105,4.8105,4.8105,4.8105,4.8105,4.8105,4.8105,4.8125,4.8144,4.8144,4.8163,4.8394,5.0067,5.0702,5.0702,0.0,0.0,0.0,0.0,0.0,0.0,0.0,4.0356,0.0,0.0,4.0356,0.0,0.0,4.0304,4.0267,0.0,0.0,4.0321,4.0489,4.0489,0.0,0.0,0.0,4.0489,0.0,4.03,4.0212,4.0251,3.9922,4.0037,0.0,0.0,0.0,0.0,0.0,4.324,0.0,0.0,0.0,0.0,0.0,4.4004,4.3646,0.0,4.3497,4.3497,4.3497,4.3497,0.0,4.3497,4.403,4.4617,4.4066,4.4635,4.5443,4.5186,4.548,4.5957,0.0,0.0,4.7124,4.7445,0.0,0.0,0.0,0.0,0.0,0.0,0.0,0.0,0.0,0.0,0.0,0.0,0.0,0.0,0.0,0.0,4.4652,4.4652,0.0,0.0,0.0,0.0,4.6969,4.8029,4.7235,4.7116,4.8048,4.8105,4.8105,4.8105,4.8105,4.8105,4.8105,4.8105,4.7836,4.7317,4.7317,4.7009,4.6451,4.6451,4.6451,4.6451,4.6451,4.6451,4.6451,4.6451,4.6797,4.7317,4.7317,4.7625,4.8182,4.8759,4.8971,4.9067,4.0193,0.0,0.0,0.0,0.0,0.0,0.0,0.0,0.0,0.0,4.0304,0.0,4.0356,0.0,4.0267,0.0,4.0304,4.0456,4.0931,4.0662,0.0,4.095,4.0662,0.0,0.0,4.0572,4.0578,4.0519,4.0488,4.0666,0.0,0.0,0.0,0.0,0.0,4.365,4.458,4.458,4.4872,0.0,0.0,4.3912,0.0,0.0,4.3497,4.3497,0.0,4.3497,4.3497,4.3497,4.3828,4.4176,4.3644,4.4195,4.4929,4.4433,4.4837,4.548,4.548,4.584,0.0,4.6742,4.7046,0.0,4.7571,0.0,4.7481,0.0,0.0,0.0,0.0,0.0,0.0,0.0,0.0,0.0,0.0,4.4004,0.0,0.0,0.0,0.0,0.0,4.5745,4.6256,4.7145,4.6493,4.6377,4.7182,4.7201,4.7201,4.7201,4.7201,4.7201,4.7201,4.7201,4.6951,4.6432,4.6432,4.6144,4.5586,4.5586,4.5586,4.5586,4.5643,4.568,4.568,4.5699,4.6028,4.6528,4.6528,4.6855,4.7394,4.7971,4.8202,4.8317,0.0,0.0,0.0,0.0,4.025,0.0,0.0,0.0,4.0081,0.0,4.0321,4.0372,4.012,4.0302,4.0375,4.0158,4.0379,4.0915,4.178,4.1085,0.0,0.0,4.1066,4.0623,4.0623,0.0,0.0,0.0,4.1212,0.0,0.0,0.0,0.0,0.0,4.3149,0.0,4.458,4.458,4.4966,4.5495,4.483,4.4154,4.3497,4.3497,4.3497,4.3497,4.3497,4.3497,4.3497,4.3497,4.3497,4.3497,4.3497,4.3497,4.3497,4.3497,4.4048,4.4635,4.4635,4.5222,4.5934,4.6304,4.6382,0.0,0.0,0.0,4.6406,0.0,0.0,0.0,0.0,0.0,0.0,0.0,0.0,0.0,0.0,0.0,4.4606,0.0,4.4631,0.0,0.0,4.5137,4.5243,4.5568,4.5586,4.5586,0.0,4.5586,4.5586,4.5586,4.5586,4.5586,4.5605,4.5586,4.5586,4.5605,4.5605,4.5605,4.5605,4.5605,4.5605,4.5605,4.5757,4.5796,4.5811,4.5868,4.5907,4.5907,4.5907,4.589,4.6084,4.7624,4.8257,4.8373,3.9622,3.9668,3.9735,0.0,3.9778,3.9731,0.0,0.0,0.0,0.0,3.9924,3.9903,4.0081,3.9943,4.0046,4.056,4.0898,0.0,0.0,0.0,0.0,4.2758,4.2547,4.2431,4.2431,4.2201,4.2006,4.1884,0.0,0.0,4.212,0.0,0.0,0.0,0.0,0.0,4.458,4.458,4.4682,4.4806,4.4346,4.3881,4.3497,0.0,4.3497,4.3497,4.3497,4.3497,4.3497,4.3497,4.3497,4.3497,4.3497,4.3497,4.3497,4.3497,4.3644,4.386,4.4119,4.4543,4.5096,4.5782,4.6135,4.6436,0.0,0.0,0.0,0.0,0.0,0.0,0.0,0.0,0.0,0.0,0.0,0.0,0.0,0.0,0.0,4.4966,0.0,0.0,4.5118,4.5322,4.5513,4.5586,4.5586,4.5586,4.5586,4.5586,4.5586,4.5586,4.5586,4.5643,4.5757,4.5643,4.568,4.5815,4.5776,4.5776,4.5815,4.5815,4.5815,4.5815,4.5853,4.5877,4.5878,4.5897,4.5897,4.5897,4.5897,4.5963,4.608,4.6403,4.6546,4.6674,3.9242,0.0,0.0,3.9656,0.0,0.0,3.9364,3.9683,0.0,4.017,4.0448,0.0,4.0919,4.0745,4.0839,4.1286,4.1514,0.0,4.28,0.0,0.0,4.3388,4.3043,4.2925,4.3104,4.2923,0.0,4.2611,0.0,0.0,4.2818,0.0,0.0,0.0,0.0,4.3804,4.4364,4.4527,4.4501,4.4318,4.4087,4.3804,0.0,4.3497,4.3497,4.3497,4.3497,4.3497,4.3497,4.3497,4.3497,4.3497,4.3497,4.3497,4.3497,4.3497,4.3497,4.3563,4.3912,4.4165,4.4513,4.5294,4.5646,4.583,4.6114,4.6158,4.6051,0.0,4.5483,4.5399,0.0,0.0,0.0,0.0,0.0,0.0,0.0,0.0,0.0,0.0,4.4593,0.0,4.4231,4.5072,4.5432,4.5047,4.5374,4.5624,4.568,4.5699,4.5699,4.5738,4.5738,4.5776,4.5834,4.5761,4.5781,4.5892,4.5858,4.5866,4.5905,4.5905,4.5905,4.5891,4.5957,4.5986,4.5995,4.6059,4.608,4.6069,4.6076,4.6118,4.6177,4.6098,4.6075,4.6158,3.8879,0.0,0.0,0.0,0.0,0.0,0.0,3.9881,0.0,4.0468,0.0,4.1945,4.1945,4.1919,4.1931,4.2018,0.0,4.2479,4.3326,4.3004,4.3126,4.3888,4.3183,4.2965,4.3342,4.3434,4.346,0.0,0.0,0.0,0.0,0.0,0.0,0.0,0.0,0.0,0.0,4.4373,4.4318,4.4016,4.3955,4.374,4.3497,4.3497,4.3497,4.3497,4.3497,4.3497,4.3497,4.3497,4.3497,4.3497,4.3497,4.3497,4.3497,4.3497,4.3548,4.3646,4.3986,4.4117,4.4299,4.4988,4.518,4.518,4.518,4.518,4.518,4.518,4.518,4.5243,4.555,0.0,0.0,0.0,0.0,0.0,0.0,0.0,0.0,0.0,0.0,0.0,4.2951,4.4355,4.4951,4.4201,4.4836,4.5374,4.5622,0.0,4.5697,4.5899,4.5899,4.5905,4.593,4.5902,4.5917,4.5939,4.5922,4.5948,4.594,4.594,4.594,4.5952,4.608,4.6132,4.6134,4.6249,4.6308,4.6308,4.6298,4.6307,4.6302,4.6302,4.6288,4.6308,3.9583,0.0,0.0,0.0,0.0,4.0689,4.0749,4.0489,4.0561,4.1268,4.1549,4.1651,4.1651,4.1427,4.1507,4.217,4.2493,0.0,0.0,0.0,0.0,4.4455,4.4323,4.4393,4.4741,4.4497,4.4353,0.0,0.0,0.0,0.0,0.0,0.0,0.0,0.0,0.0,4.3998,4.4076,0.0,4.3986,4.3693,4.3529,4.3497,4.3497,4.3497,4.3497,4.3497,4.3497,4.3497,4.3497,4.3497,4.3497,4.3497,4.3497,4.3497,4.3497,4.3712,4.3986,4.4392,4.4707,4.5011,4.5419,4.5513,4.5513,4.5513,4.5513,4.5513,4.5513,4.5513,4.5531,4.5586,0.0,0.0,0.0,0.0,0.0,0.0,0.0,0.0,0.0,0.0,4.3547,0.0,4.2951,4.347,4.3316,4.3451,4.3874,4.468,0.0,4.509,0.0,4.589,4.5951,0.0,0.0,4.6008,4.6228,4.6123,4.6122,4.6225,4.6225,4.6225,4.6225,4.6254,4.6267,4.627,4.6287,4.6308,4.6308,4.6306,4.6297,4.6306,4.6306,4.6301,4.6308,0.0,0.0,0.0,0.0,0.0,0.0,0.0,4.177,4.149,4.1915,4.2321,4.258,4.258,4.2456,4.2506,4.2892,4.3056,4.3333,4.3721,4.4076,4.429,4.429,4.429,4.4535,4.5096,4.4561,4.4392,4.458,0.0,0.0,0.0,0.0,0.0,0.0,0.0,4.3597,0.0,0.0,0.0,4.3726,4.3563,4.3497,4.3497,4.3497,4.3497,4.3497,4.3497,4.3497,4.3497,4.3497,4.3497,4.3497,4.3497,4.3497,4.3497,4.3497,4.3758,4.4106,4.4501,4.4849,4.518,4.5513,4.5586,4.5586,4.5586,4.5586,4.5586,4.5586,4.5586,4.5586,4.5586,4.5476,0.0,0.0,0.0,0.0,0.0,0.0,4.4718,0.0,0.0,0.0,0.0,0.0,0.0,0.0,0.0,4.3797,4.5238,0.0,4.5105,0.0,0.0,0.0,4.6208,0.0,4.6173,4.6308,4.6234,4.624,4.6308,4.6308,4.6308,4.6308,4.6308,4.6308,4.6308,4.6308,4.6308,4.6308,4.6308,4.6308,4.6308,4.6308,4.6308,4.6308,0.0,4.1497,0.0,0.0,4.2029,4.2047,4.3296,4.2947,4.2561,4.2561,4.3112,4.3497,4.3497,4.3497,4.3497,4.3497,4.3497,4.3497,4.3497,4.3758,4.3893,4.3893,4.3893,4.4204,4.4853,4.4318,4.4204,0.0,0.0,0.0,0.0,0.0,0.0,0.0,0.0,0.0,0.0,0.0,4.3497,4.3497,4.3497,4.3497,4.3497,4.3497,4.3497,4.3497,4.3497,4.3497,4.3497,4.3497,4.3497,4.3497,4.3497,4.3497,4.3497,4.3497,4.3758,4.4106,4.4501,4.4849,4.518,4.5513,4.5586,4.5586,4.5586,4.5586,4.5586,4.5586,4.5586,4.5586,4.5586,4.5586,0.0,0.0,0.0,0.0,0.0,0.0,0.0,0.0,0.0,0.0,4.0814,4.0723,4.1351,0.0,0.0,0.0,4.5197,0.0,0.0,0.0,0.0,4.5742,4.5742,0.0,4.6016,4.6035,4.6211,4.6308,4.6308,4.6308,4.6308,4.6308,4.6308,4.6308,4.6308,4.6308,4.6308,4.6308,4.6273,4.6257,4.6241,4.6237,4.6204,4.6204,0.0,0.0,0.0,0.0,0.0,4.3314,4.3461,4.3424,4.3387,4.3387,4.3442,4.3497,4.3497,4.3497,4.3497,4.3497,4.3497,4.3497,4.3497,4.3513,4.3548,4.3548,4.3548,4.3726,4.4087,4.4028,4.4204,0.0,0.0,4.3595,0.0,0.0,0.0,0.0,0.0,0.0,0.0,4.3612,4.3497,4.3497,4.3497,4.3497,4.3497,4.3497,4.3497,4.3497,4.3497,4.3497,4.3497,4.3497,4.3497,4.3497,4.3497,4.3497,4.3497,4.3497,4.3758,4.4106,4.4501,4.4849,4.518,4.5513,4.5586,4.5586,4.5586,4.5586,4.5586,4.5586,4.5586,4.5586,4.5586,4.5586,4.5586,0.0,0.0,0.0,0.0,0.0,4.4064,4.2403,0.0,0.0,4.0885,4.0797,4.1232,4.2287,4.1482,0.0,0.0,0.0,0.0,4.3906,4.3945,4.3945,4.3945,4.4726,4.5117,4.5137,4.5918,4.6308,4.6308,4.6308,4.6308,4.6308,4.6308,4.6308,4.6308,4.6308,4.6308,4.6286,4.6174,4.6121,4.6094,4.5988,4.5932,4.5932,0.0,0.0,0.0,0.0,0.0,0.0,0.0,4.3497,4.3497,4.3497,4.3497,4.3497,4.3497,4.3497,4.3497,4.3497,4.3497,4.3497,4.3497,4.3497,4.3497,4.3497,4.3497,4.3646,4.3986,4.3804,4.3899,0.0,0.0,0.0,0.0,0.0,0.0,0.0,0.0,4.4106,4.3986,4.3849,4.366,4.3497,4.3497,4.3497,4.3497,4.3497,4.3497,4.3497,4.3497,4.3497,4.3497,4.3497,4.3497,4.3497,4.3497,4.3497,4.3497,4.3497,4.3899,4.4392,4.4553,4.4988,4.5438,4.5568,4.5586,4.5586,4.5586,4.5586,4.5586,4.5586,4.5586,4.5586,4.5586,4.5586,4.5624,4.5719,0.0,0.0,0.0,0.0,0.0,4.2372,0.0,4.192,4.1003,4.0906,4.1097,4.1482,0.0,0.0,0.0,0.0,0.0,4.3672,0.0,4.3691,4.3691,4.4043,4.4219,4.4219,4.457,4.4746,4.4746,4.4746,4.5019,4.5546,4.5986,4.6182,4.6173,4.6092,4.605,4.6059,4.6007,4.5979,4.5967,4.5931,4.5896,4.5877,4.3497,0.0,4.3497,0.0,4.3497,4.3497,4.3497,4.3497,4.3497,4.3497,4.3497,4.3497,4.3497,4.3497,4.3497,4.3497,4.3497,4.3497,4.3497,4.3497,4.3497,4.3497,4.3597,0.0,4.3998,4.3772,4.3849,4.4327,4.3849,0.0,0.0,0.0,0.0,0.0,4.458,4.4392,4.4016,4.4016,4.3804,4.3497,4.3497,4.3497,4.3497,4.3497,4.3497,4.3497,4.3497,4.3497,4.3497,4.3497,4.3497,4.3497,4.3497,4.3497,4.3513,4.3631,4.4035,4.4474,4.4682,4.5096,4.5476,4.5568,4.5586,4.5586,4.5586,4.5586,4.5586,4.5586,4.5586,4.5586,4.5586,4.5624,4.5605,4.5432,0.0,0.0,0.0,4.3567,0.0,4.2085,4.2027,4.1792,4.1125,4.1051,4.1067,4.1074,0.0,0.0,0.0,0.0,0.0,0.0,0.0,0.0,4.2969,4.3203,4.332,4.332,4.3574,4.3704,4.37,4.368,4.397,4.4552,4.509,4.5314,4.5312,4.548,4.5545,4.5564,4.5778,4.5872,4.5873,4.5834,4.5815,4.5815,4.3497,4.3497,4.3497,4.3497,4.3497,4.3497,4.3497,4.3497,4.3497,4.3497,4.3497,4.3497,4.3497,4.3497,4.3497,4.3497,4.3497,4.3497,4.3497,4.3497,4.3497,0.0,0.0,4.4016,4.4016,4.4016,4.4354,4.5074,0.0,0.0,4.3878,0.0,4.3775,4.458,4.458,4.4392,4.4016,4.4016,4.3804,4.3497,4.3497,4.3497,4.3497,4.3497,4.3497,4.3497,4.3497,4.3497,4.3497,4.3497,4.3497,4.3497,4.3497,4.3497,4.3582,4.3912,4.4016,4.4175,4.49,4.5096,4.518,4.5513,4.5586,4.5586,4.5586,4.5586,4.5586,4.5586,4.5586,4.5586,4.5586,4.5719,4.5509,4.4664,0.0,0.0,0.0,4.2381,0.0,4.1308,4.1211,4.1211,4.1191,4.1191,0.0,0.0,0.0,0.0,0.0,0.0,0.0,4.123,4.123,0.0,4.123,4.2012,4.2422,4.2422,4.3281,4.3699,4.3698,4.364,4.3531,4.3432,4.3424,4.3427,4.3489,4.4374,4.4703,4.478,4.5526,4.5796,4.5796,4.5643,4.5586,4.5586,4.3497,4.3497,4.3497,4.3497,4.3497,4.3497,4.3497,4.3497,4.3497,4.3497,4.3497,4.3497,4.3497,4.3497,4.3497,0.0,4.3497,4.3497,0.0,4.3497,4.3497,4.3497,4.3836,4.4016,4.4016,4.4261,4.4527,4.4776,0.0,0.0,0.0,4.4589,4.4808,4.5283,4.5283,4.5077,4.4738,4.4527,4.4194,4.3836,4.3597,4.3497,4.3497,4.3497,4.3497,4.3497,4.3497,4.3497,4.3497,4.3497,4.3497,4.3548,4.3772,4.3849,4.3849,4.3986,4.4373,4.4806,4.5052,4.5282,4.5476,4.5568,4.5586,4.5586,4.5586,4.5586,4.5586,4.5586,4.5586,4.5624,4.5719,4.5297,4.4876,4.4741,4.3803,0.0,4.2448,0.0,4.1484,4.123,4.1191,4.1191,4.1191,4.1191,0.0,0.0,0.0,0.0,0.0,0.0,0.0,0.0,4.111,0.0,4.1061,4.124,4.1315,4.1315,4.1588,4.1726,4.1742,4.2323,4.2536,4.255,4.304,4.326,4.3291,4.3508,4.3624,4.3701,4.447,4.4778,4.4836,4.5393,4.5586,4.5586,4.3497,4.3497,4.3497,4.3497,4.3497,4.3497,4.3497,4.3497,4.3497,4.3497,4.3497,4.3497,4.3497,4.3497,0.0,4.3497,4.3497,4.3497,4.3497,4.3497,4.3497,4.3497,4.3974,4.4252,4.4252,4.4587,0.0,4.4966,4.4966,4.5096,4.5302,4.5302,4.5322,4.5419,4.5531,4.5342,4.4896,4.4682,4.4392,4.3986,4.3612,4.3497,4.3497,4.3497,4.3497,4.3497,4.3497,4.3497,4.3513,4.3646,4.3712,4.3758,4.4106,4.4318,4.4409,4.4409,4.4738,4.5118,4.5243,4.5438,4.5586,4.5586,4.5586,4.5586,4.5586,4.5586,4.5605,4.5643,4.5413,4.524,4.5355,4.4722,4.4109,4.388,4.2994,4.2252,4.199,0.0,4.1191,0.0,0.0,4.1191,0.0,4.1191,4.1185,0.0,0.0,0.0,0.0,0.0,4.1111,4.1052,4.0975,4.0919,4.0908,4.0842,4.0798,4.0798,4.0798,4.0798,4.0768,4.1335,4.154,4.152,4.2002,4.2194,4.2213,4.2489,4.2604,4.2701,4.3528,4.3855,4.3951,4.4797,4.5105,4.5163,4.3497,4.3497,4.3497,4.3497,4.3497,4.3497,4.3497,4.3497,4.3497,4.3497,4.3497,4.3497,4.3497,4.3497,4.3497,4.3497,0.0,0.0,4.3497,4.3497,4.3497,4.3497,4.4213,4.458,4.458,4.4943,4.5302,4.5586,4.5586,4.5586,4.5586,4.5586,4.5438,4.5159,4.5438,4.5243,4.4657,4.458,4.4373,4.4028,4.3646,4.3513,4.3548,4.3532,4.3513,4.3548,4.3548,4.3548,4.3631,4.3943,4.4028,4.4117,4.4501,4.4849,4.5096,4.5096,4.5118,4.5201,4.5513,4.5586,4.5586,4.5586,4.5586,4.5586,4.5586,4.5586,4.5605,4.5699,4.5049,4.453,4.4607,4.4013,4.3246,4.245,4.2318,4.2051,4.1308,4.1191,4.1191,4.1191,0.0,0.0,4.1191,4.119,4.1125,0.0,0.0,0.0,0.0,0.0,4.0913,4.0807,4.0796,4.0779,4.0793,4.0773,4.0773,4.0773,4.0773,4.0754,4.0696,4.0696,4.062,4.0489,4.0489,4.0489,4.0546,4.1373,4.172,4.1797,4.2662,4.3008,4.3104,4.3912,4.4239,4.4412,0.0,0.0,4.3497,4.3497,4.3497,4.3497,4.3497,4.3497,4.3497,4.3497,4.3497,4.3497,4.3497,4.3497,4.3497,4.3497,4.3497,4.3497,4.3497,4.3497,4.3497,4.3497,4.4213,4.458,4.458,4.5182,4.5513,4.5586,4.5586,4.5586,4.5586,4.5586,4.5568,4.5457,4.5302,4.5263,4.5303,4.4489,4.4428,4.4762,4.3868,4.3646,4.3849,4.3597,4.3646,4.3881,4.3881,4.4076,4.4337,4.4419,4.4474,4.4527,4.4872,4.5052,4.5096,4.5096,4.5263,4.5495,4.5586,4.5586,4.5586,4.5586,4.5586,4.5586,4.5586,4.5586,4.5451,4.4914,4.4645,4.4359,4.3938,4.3171,4.257,4.2401,4.1867,4.1426,4.123,4.1191,4.1191,0.0,4.1191,4.1191,4.1191,4.1116,4.1029,0.0,0.0,4.0819,4.0731,4.0742,4.0781,4.0808,4.0751,4.0728,4.0716,4.062,4.0581,4.0581,4.0581,4.0562,4.0562,4.0562,4.0543,4.0489,4.0489,4.0489,4.0508,4.0719,4.0796,4.0893,4.1777,4.2104,4.222,4.3066,4.3778,4.4335,4.3497,4.3497,4.3497,4.3497,4.3497,4.3497,4.3497,4.3497,4.3497,4.3497,4.3497,4.3497,4.3497,4.3497,4.3497,4.3497,4.3497,4.3497,4.3497,4.3646,4.3726,4.3726,4.4447,4.4825,4.4825,4.5342,4.5586,4.5586,4.5586,4.5586,4.5586,4.5586,4.5513,4.5362,4.518,4.5118,4.5077,4.4327,4.4233,4.4535,4.3791,4.3597,4.374,4.3563,4.3612,4.3804,4.3955,4.4146,4.4373,4.4707,4.4825,4.4896,4.5222,4.5322,4.5322,4.5322,4.5476,4.5586,4.5586,4.5586,4.5586,4.5586,4.5586,4.5509,4.5182,4.5105,4.4914,4.4224,4.3765,4.34,4.3111,4.2354,4.1816,4.1853,4.1484,4.1191,4.1191,4.1191,4.1191,4.1191,4.1148,4.1103,4.1103,4.0995,4.09,4.0866,4.0793,0.0,4.062,4.062,4.0639,4.0658,4.0639,4.062,4.062,4.0543,4.0489,4.0489,4.0489,4.0489,4.0489,4.0489,4.0489,4.0489,4.0489,4.0489,4.0489,4.0489,4.0489,4.0546,4.1027,4.12,4.1316,4.2181,4.2777,4.322,4.3497,4.3497,4.3497,4.3497,4.3497,4.3497,4.3497,4.3497,4.3497,4.3497,4.3497,4.3497,4.3497,4.3497,4.3497,4.3497,4.3548,4.3529,4.3479,4.3804,4.4016,4.4016,4.4713,4.5096,4.5096,4.5419,4.5568,4.5513,4.5568,4.5568,4.5532,4.5568,4.5419,4.5096,4.5096,4.4943,4.4631,4.4175,4.4058,4.4117,4.3679,4.3548,4.3563,4.3563,4.3597,4.3712,4.4046,4.4204,4.4327,4.4947,4.518,4.5222,4.5513,4.5509,4.5393,4.5393,4.5316,4.5278,4.5528,4.549,4.5393,4.5393,4.5316,4.5066,4.4453,4.4331,4.4155,4.3532,4.2808,4.2284,4.2234,4.166,4.1191,4.1191,4.1191,4.1191,4.1191,0.0,4.1177,4.1177,4.1043,4.0983,4.0981,4.087,4.0759,4.0693,4.0677,4.062,4.0508,4.0489,4.0489,4.0489,4.0489,4.0489,4.0489,4.0489,4.0489,4.0489,4.0489,4.0489,4.0489,4.0489,4.0489,4.0489,4.0489,4.0489,4.0489,4.0489,4.0489,4.0489,4.0489,4.0489,4.0585,4.1335,4.17,4.1912,4.3497,4.3497,4.3497,4.3497,4.3497,4.3497,4.3497,4.3497,4.3497,4.3497,4.3497,4.3497,4.3497,4.3497,4.3497,4.3497,4.3758,4.3804,4.3513,4.3804,4.4016,4.4016,4.4713,4.5096,4.5096,4.5419,4.5457,4.518,4.5457,4.5457,4.518,4.5476,4.5419,4.5096,4.5096,4.5074,4.4966,4.4271,4.4354,4.4853,4.3899,4.3679,4.3924,4.3924,4.4136,4.4474,4.4806,4.5099,4.5381,4.5475,4.5513,4.5531,4.5586,4.5086,4.4489,4.4489,4.4008,4.3797,4.522,4.5047,4.4489,4.4489,4.4028,4.353,4.3434,4.3498,4.3377,4.2643,4.2405,4.2097,4.1492,4.1289,4.1191,4.1191,4.1191,4.1191,4.1191,0.0,4.1023,4.1023,4.0915,4.0837,4.0823,4.0776,4.0699,4.0696,4.06,4.0508,4.0489,4.0489,4.0489,4.0489,4.0489,4.0489,4.0489,4.0489,4.0489,4.0489,4.0489,4.0489,4.0489,4.0489,4.0489,4.0489,4.0489,4.0489,4.0489,4.0489,4.0489,4.0489,4.0489,4.0489,4.0508,4.0642,4.1162,4.1816,4.3497,4.3497,4.3497,4.3497,4.3497,4.3497,4.3497,4.3497,4.3497,4.3497,4.3497,4.3497,4.3497,4.3497,4.3497,4.3497,4.3804,4.3924,4.3772,4.429,4.4587,4.4587,4.5077,4.5362,4.5362,4.5342,4.5342,4.5362,4.5342,4.5342,4.5362,4.5513,4.5419,4.5096,4.5096,4.5007,4.4825,4.4455,4.4527,4.48,4.428,4.4213,4.4318,4.4318,4.4447,4.4575,4.4452,4.4513,4.4595,4.4339,4.4239,4.4239,4.4239,4.397,4.3643,4.3643,4.3393,4.3278,4.4047,4.3989,4.372,4.372,4.3508,4.3203,4.2804,4.2757,4.2589,4.1857,4.1716,4.1598,4.1267,4.1191,4.1191,4.1191,4.1191,4.1162,4.1101,4.1054,4.0966,4.0889,4.0816,4.0746,4.075,4.0658,4.06,4.06,4.0543,4.0489,4.0489,4.0489,4.0489,4.0489,4.0489,4.0489,4.0489,4.0489,4.0489,4.0489,4.0489,4.0489,4.0489,4.0489,4.0489,4.0489,4.0489,4.0489,4.0489,4.0489,4.0489,4.0489,4.0489,4.0489,4.0489,4.0489,4.0739,4.1104,4.3777,4.3777,4.3744,4.3612,4.3679,4.3712,4.3513,4.3582,4.3597,4.3513,4.3497,4.3513,4.3597,4.3631,4.3646,4.3744,4.4076,4.4261,4.4261,4.4877,4.518,4.5096,4.5419,4.5586,4.5586,4.5342,4.5302,4.5495,4.5302,4.5302,4.5495,4.5568,4.5419,4.5096,4.518,4.503,4.4707,4.4499,4.4423,4.438,4.4115,4.4014,4.3995,4.4071,4.4121,4.407,4.374,4.3634,4.3578,4.3209,4.3104,4.3104,4.3104,4.297,4.2797,4.2797,4.2681,4.2624,4.3028,4.3028,4.2929,4.293,4.288,4.2701,4.2132,4.2029,4.1876,4.132,4.1191,4.1191,4.1191,4.1191,4.119,4.1166,0.0,4.1103,4.0971,4.093,4.0889,4.0793,4.0696,4.0658,4.0658,4.0562,4.0489,4.0489,4.0489,4.0489,4.0489,4.0489,4.0489,4.0489,4.0489,4.0489,4.0489,4.0489,4.0489,4.0489,4.0489,4.0489,4.0489,4.0489,4.0489,4.0489,4.0489,4.0473,4.0406,4.0406,4.0406,4.0406,4.0406,4.0457,4.0489,4.0489,4.0489,4.0489,4.4501,4.4501,4.4392,4.4046,4.4261,4.428,4.3597,4.3772,4.3849,4.3548,4.3497,4.3631,4.3924,4.3955,4.4087,4.4474,4.4849,4.5011,4.5011,4.5362,4.5419,4.5118,4.5419,4.5586,4.5586,4.5568,4.5419,4.5137,4.5419,4.5419,4.514,4.5438,4.5419,4.5118,4.5419,4.5381,4.5017,4.4195,4.3871,4.3773,4.2635,4.2191,4.2215,4.2544,4.2652,4.2713,4.3022,4.3148,4.3165,4.3124,4.3104,4.3104,4.3104,4.2547,4.1912,4.1912,4.1412,4.1235,4.2761,4.2662,4.2086,4.2168,4.1667,4.1158,4.112,4.1194,4.1267,4.1211,4.1191,4.1191,4.1191,4.1191,4.1166,4.1029,0.0,0.0,4.0829,4.0752,4.0716,4.0716,4.06,4.0508,4.0508,4.0508,4.0489,4.0489,4.0489,4.0489,4.0489,4.0489,4.0489,4.0489,4.0489,4.0489,4.0489,4.0489,4.0489,4.0489,4.0489,4.0489,4.0489,4.0489,4.0489,4.0489,4.0489,4.0356,4.012,4.012,4.012,4.012,4.012,4.0267,4.0489,4.0489,4.0489,4.0489,4.458,4.458,4.4553,4.4419,4.4501,4.4501,4.4223,4.428,4.4337,4.4213,4.4165,4.4223,4.4364,4.4373,4.4428,4.458,4.4896,4.5096,4.5096,4.5419,4.5531,4.5419,4.5531,4.5586,4.5586,4.54,4.5322,4.5419,4.5322,4.5322,4.54,4.4993,4.4725,4.4595,4.4224,4.3976,4.3828,4.3502,4.3368,4.333,4.2871,4.2679,4.2718,4.2813,4.2869,4.283,4.2437,4.2297,4.222,4.1662,4.1489,4.1489,4.1489,4.1316,4.1123,4.1162,4.099,4.0909,4.1643,4.162,4.1382,4.1409,4.1257,4.1123,4.1123,4.1153,4.1191,4.1191,4.1191,4.1191,4.1191,4.112,4.107,4.1007,0.0,4.0838,4.0746,4.0728,4.0677,4.06,4.0543,4.0489,4.0489,4.0489,4.0489,4.0489,4.0489,4.0489,4.0489,4.0339,4.025,4.025,4.0062,4.0138,4.0489,4.0339,4.0339,4.0489,4.012,4.0062,4.0232,4.0043,3.9925,3.9925,3.9925,3.9863,3.9797,3.9797,3.9797,3.9797,4.0022,4.0158,4.0267,4.0441,4.0389,4.025,4.4919,4.4919,4.4896,4.4776,4.483,4.483,4.4631,4.4682,4.4726,4.4606,4.458,4.4631,4.4751,4.4776,4.4781,4.49,4.5118,4.5243,4.5243,4.5457,4.5586,4.5586,4.5586,4.5586,4.5586,4.5362,4.5247,4.5182,4.4959,4.4844,4.4797,4.4201,4.3912,4.3893,4.3355,4.3104,4.3085,4.2816,4.2701,4.2662,4.2393,4.2277,4.2277,4.2277,4.2277,4.22,4.1604,4.1393,4.1296,4.07,4.0543,4.0562,4.0562,4.0636,4.0745,4.0843,4.0862,4.0884,4.1022,4.1058,4.1046,4.1056,4.112,4.1191,4.1191,4.1191,4.1191,4.1191,4.1191,4.1189,4.1144,4.1061,4.0966,4.0908,4.0831,4.0735,4.0658,4.0639,4.06,4.0508,4.0489,4.0489,4.0489,4.0489,4.0489,4.0489,4.0489,4.0473,4.0372,4.0195,4.0042,3.9962,3.9731,3.98,4.0211,4.0023,4.0023,4.0211,3.98,3.9731,3.9941,3.969,3.9599,3.9599,3.9599,3.9552,3.9438,3.9438,3.9438,3.9481,3.9709,3.9922,4.012,4.0194,4.0157,4.0081,4.5586,4.5586,4.5495,4.5161,4.5381,4.5362,4.4707,4.4896,4.4966,4.4657,4.4624,4.4732,4.5074,4.5096,4.5243,4.5568,4.5586,4.5586,4.5586,4.5566,4.5566,4.5566,4.5586,4.5586,4.5586,4.5566,4.5163,4.4297,4.4297,4.3874,4.3104,4.3085,4.3085,4.3085,4.3085,4.3085,4.3028,4.2162,4.1797,4.172,4.0854,4.0489,4.0489,4.0489,4.0489,4.0489,4.0489,4.0489,4.0489,4.0489,4.06,4.0696,4.0696,4.0738,4.0829,4.0949,4.1001,4.1039,4.1155,4.1193,4.1203,4.1194,4.1191,4.1191,4.1191,4.1191,4.1191,4.1191,4.1191,4.1163,4.1015,4.1001,4.0927,4.0735,4.0696,4.0658,4.0508,4.0489,4.0489,4.0489,4.0489,4.0489,4.0489,4.0489,4.0489,4.0489,4.0489,4.0372,4.0101,4.0101,3.9943,3.9599,3.9599,3.9599,3.9599,3.9599,3.9599,3.9599,3.9599,3.9599,3.9599,3.9599,3.9599,3.9599,3.9599,3.9389,3.9099,3.9099,3.9099,3.9099,3.9099,3.9505,4.0042,3.9731,3.9797,4.0042,4.5586,4.5586,4.5568,4.5476,4.5531,4.5531,4.5342,4.54,4.5419,4.5303,4.5303,4.5342,4.5438,4.5438,4.5495,4.5586,4.5586,4.5336,4.472,4.4162,4.3855,4.3855,4.4393,4.4682,4.4682,4.4124,4.372,4.3451,4.3451,4.3335,4.3085,4.247,4.22,4.2162,4.1546,4.1277,4.1258,4.0989,4.0893,4.0873,4.0585,4.0489,4.0489,4.0489,4.0489,4.0489,4.0489,4.0562,4.0639,4.0639,4.0696,4.0793,4.087,4.0906,4.097,4.111,4.1141,4.1156,4.1195,4.1193,4.1191,4.1209,4.1191,4.1191,4.1191,4.1191,4.116,4.1082,4.107,4.1011,4.0888,4.081,4.0773,4.0716,4.062,4.0562,4.0508,4.0489,4.0489,4.0489,4.0489,4.0489,4.0489,4.0489,4.0489,4.0489,4.0339,4.0081,3.9775,3.9529,3.9339,3.9238,3.9073,3.897,3.897,3.9144,3.9364,3.9599,3.9181,3.9073,3.9238,3.9045,3.897,3.897,3.897,3.8931,3.8815,3.8815,3.8815,3.8844,3.9036,3.9212,3.9414,3.9552,3.951,3.9389,4.5586,4.5586,4.5586,4.5586,4.5586,4.5586,4.5586,4.5586,4.5586,4.5586,4.5586,4.5586,4.5586,4.5278,4.5086,4.5086,4.4778,4.4393,4.3855,4.3374,4.3104,4.3104,4.3239,4.347,4.3816,4.3355,4.2931,4.2585,4.2585,4.2412,4.2066,4.1527,4.1296,4.1258,4.0739,4.0489,4.0489,4.0489,4.0489,4.0489,4.0489,4.0489,4.0489,4.0489,4.0489,4.0508,4.0562,4.0639,4.0693,4.0733,4.0795,4.0911,4.1042,4.1082,4.1104,4.1183,4.1198,4.1202,4.1203,4.1191,4.1189,4.1125,4.1166,4.1189,4.1125,4.1117,4.1077,4.0947,4.0916,4.0887,4.0773,4.0725,4.0677,4.0639,4.0562,4.0489,4.0489,4.0489,4.0489,4.0489,4.0489,4.0489,4.0489,4.0406,4.0285,4.0157,4.0003,3.9754,3.9414,3.9212,3.9063,3.8933,3.8773,3.8707,3.8707,3.8855,3.9027,3.9242,3.8873,3.8773,3.8952,3.8792,3.8707,3.8707,3.8707,3.8707,3.8707,3.8707,3.8707,3.8738,3.8884,3.9027,3.9125,3.9197,3.9171,3.9072,4.5586,4.5586,4.5586,4.5586,4.5586,4.5586,4.5586,4.5528,4.547,4.547,4.5413,4.5374,4.5374,4.4662,4.4182,4.4182,4.3451,4.2989,4.3008,4.2912,4.2874,4.2893,4.2124,4.2085,4.2874,4.2874,4.2489,4.1681,4.1681,4.1277,4.0489,4.0489,4.0489,4.0489,4.0489,4.0489,4.0489,4.0489,4.0489,4.0489,4.0489,4.0508,4.0508,4.0508,4.0508,4.0543,4.0677,4.0716,4.0737,4.0809,4.0927,4.1035,4.1169,4.1191,4.1191,4.1191,4.1191,4.1191,4.1188,4.1187,4.116,4.1023,4.1066,4.1136,4.101,4.0977,4.0954,4.082,4.0784,4.0773,4.0696,4.0677,4.0639,4.0508,4.0489,4.0489,4.0489,4.0489,4.0489,4.0489,4.0489,4.0489,4.0473,4.0213,3.9922,3.9576,3.9552,3.9414,3.9072,3.9044,3.8961,3.8707,3.8707,3.8707,3.8707,3.8707,3.8707,3.8707,3.8707,3.8707,3.8707,3.8707,3.8707,3.8707,3.8707,3.8707,3.8707,3.8707,3.8707,3.8707,3.8707,3.8844,3.9036,3.8773,3.8855,3.9036,4.5586,4.5586,4.5586,4.5586,4.5586,4.5586,4.5586,4.5009,4.4586,4.4586,4.4028,4.3643,4.3643,4.347,4.3355,4.3355,4.2585,4.2124,4.2239,4.1489,4.1123,4.1293,4.1081,4.1062,4.1293,4.1123,4.0969,4.0777,4.0777,4.0681,4.0489,4.0489,4.0489,4.0489,4.0489,4.0489,4.0489,4.0489,4.0489,4.0489,4.0489,4.0562,4.0658,4.0658,4.0696,4.0735,4.0773,4.085,4.0954,4.1072,4.1138,4.1169,4.119,4.1191,4.1191,4.1191,4.1191,4.1183,4.1072,4.1028,4.1013,4.0878,4.0876,4.0878,4.084,4.0848,4.0823,4.0742,4.0718,4.0696,4.0581,4.0543,4.0543,4.0489,4.0489,4.0489,4.0489,4.0489,4.0489,4.0489,4.0489,4.0425,4.0195,3.9901,3.9576,3.9238,3.9212,3.909,3.8803,3.8773,3.8762,3.8707,3.8707,3.8707,3.8707,3.8707,3.8707,3.8707,3.8707,3.8707,3.8707,3.8707,3.8707,3.8707,3.8707,3.8707,3.8707,3.8707,3.8707,3.8707,3.8707,3.875,3.8773,3.8719,3.875,3.8792,4.5699,4.5413,4.5182,4.5182,4.4837,4.4549,4.4549,4.4147,4.3876,4.3874,4.3489,4.3239,4.3239,4.2874,4.2453,4.2027,4.1585,4.1335,4.1412,4.0932,4.0688,4.0808,4.0771,4.075,4.0788,4.0692,4.0636,4.0639,4.062,4.06,4.06,4.06,4.06,4.06,4.0639,4.0639,4.0639,4.0639,4.0639,4.0639,4.0639,4.0696,4.075,4.0759,4.0769,4.0815,4.0868,4.0977,4.1116,4.1183,4.1191,4.1191,4.1191,4.1191,4.1189,4.1123,4.1089,4.1085,4.0942,4.0899,4.0877,4.0776,4.0745,4.0742,4.0757,4.0764,4.0716,4.0639,4.06,4.0581,4.0508,4.0489,4.0489,4.0489,4.0489,4.0489,4.0489,4.0489,4.0457,4.0321,4.0321,4.0139,3.9668,3.9462,3.9231,3.8952,3.8923,3.8844,3.8707,3.8707,3.8707,3.8707,3.8707,3.8707,3.8707,3.8707,3.8707,3.8707,3.8707,3.8707,3.8707,3.8707,3.8707,3.8707,3.8707,3.8707,3.8707,3.8707,3.8707,3.8707,3.8707,3.8707,3.8707,3.8707,3.8707,3.8707,4.5398,4.4897,4.4476,4.4476,4.3882,4.3384,4.3384,4.3269,4.3188,4.3181,4.3061,4.2965,4.2965,4.2314,4.16,4.0863,4.08,4.081,4.0831,4.0798,4.081,4.0875,4.0848,4.0837,4.0879,4.0879,4.084,4.08,4.0728,4.0718,4.0716,4.0716,4.0708,4.0709,4.0781,4.08,4.08,4.08,4.08,4.08,4.08,4.0815,4.0823,4.0837,4.0852,4.0889,4.0978,4.1116,4.1191,4.1191,4.1191,4.1191,4.1191,4.1188,4.1144,4.1036,4.0966,4.0945,4.0819,4.0784,4.0754,4.0696,4.0677,4.0677,4.0677,4.0677,4.0639,4.0508,4.0489,4.0489,4.0489,4.0489,4.0489,4.0489,4.0457,4.0422,4.0422,4.0389,4.0248,4.0042,3.9963,3.9712,3.9133,3.9063,3.8933,3.8719,3.8707,3.8707,3.8707,3.8707,3.8707,3.8707,3.8707,3.8707,3.8707,3.8707,3.8707,3.8707,3.8707,3.8707,3.8707,3.8707,3.8707,3.8707,3.8707,3.8707,3.8707,3.8707,3.8707,3.8707,3.8707,3.8707,3.8707,3.8707,3.8707,3.8707,4.3721,4.3627,4.3569,4.3569,4.3471,4.3394,4.3394,4.2772,4.2277,4.2277,4.1616,4.1159,4.1159,4.1042,4.0926,4.0809,4.079,4.0856,4.0977,4.0856,4.0902,4.1138,4.1034,4.1035,4.1151,4.1151,4.1038,4.079,4.079,4.0796,4.0793,4.0793,4.0791,4.079,4.079,4.079,4.079,4.079,4.079,4.079,4.079,4.087,4.0981,4.0969,4.1051,4.1149,4.1164,4.1188,4.1191,4.1191,4.1191,4.1191,4.1191,4.1117,4.1034,4.0997,4.0908,4.0808,4.0737,4.0723,4.0677,4.0562,4.0543,4.0543,4.0543,4.0543,4.0508,4.0489,4.0489,4.0489,4.0489,4.0489,4.0489,4.0489,4.0304,4.0158,4.0158,3.9903,3.9712,3.9668,3.9414,3.9186,3.9125,3.8894,3.875,3.8707,3.8707,3.8707,3.8707,3.8707,3.8707,3.8707,3.8707,3.8707,3.8707,3.8707,3.8707,3.8707,3.8707,3.8707,3.8707,3.8707,3.8707,3.8707,3.8707,3.8707,3.8707,3.8707,3.8707,3.8707,3.8707,3.8707,3.8707,3.8707,3.8707,3.8707,4.3501,4.3155,4.2834,4.2834,4.2463,4.2171,4.2171,4.1839,4.1605,4.1605,4.1257,4.1023,4.1023,4.1023,4.1023,4.1023,4.1023,4.1042,4.1117,4.1057,4.108,4.1191,4.1131,4.1141,4.1195,4.1199,4.114,4.1023,4.0945,4.0901,4.0909,4.0913,4.0901,4.0905,4.098,4.1023,4.1023,4.1023,4.1023,4.1023,4.1023,4.1052,4.111,4.111,4.1152,4.1191,4.1191,4.1191,4.1189,4.1117,4.1099,4.1077,4.1003,4.0945,4.0878,4.0834,4.0793,4.0716,4.062,4.06,4.0581,4.0508,4.0489,4.0489,4.0489,4.0372,4.0321,4.0473,4.0372,4.0286,4.0286,4.012,4.0004,4.0004,3.9903,3.9819,3.9819,3.969,3.9529,3.9339,3.9054,3.8884,3.8884,3.8762,3.8707,3.8707,3.8707,3.8707,3.8707,3.8707,3.8707,3.8707,3.8707,3.8707,3.8707,3.8707,3.8707,3.8707,3.8707,3.8707,3.8707,3.8707,3.8707,3.8707,3.8707,3.8707,3.8707,3.8707,3.8707,3.8707,3.8707,3.8707,3.8707,3.8707,3.8707,3.8707]},{"header":{"parameterUnit":"m.s-1","parameterCategory":1,"la1":30.6,"la2":28.766,"lo1":-90.7593,"lo2":-88.6598,"dy":0.0162,"dx":0.0183,"nx":116,"ny":114,"refTime":"2023-09-08T18:00:00:Z","depth":0,"parameterNumber":3,"parameterNumberName":"V-component_of_WINDS"},"data":[0.0,0.0,0.0,0.0,0.0,0.0,0.0,0.0,0.0,0.0,0.0,0.0,0.0,0.0,0.0,0.0,0.0,0.0,0.0,0.0,0.0,0.0,0.0,0.0,0.0,0.0,0.0,0.0,0.0,0.0,0.0,0.0,0.0,0.0,0.0,0.0,0.0,0.0,0.0,0.0,0.0,0.0,0.0,0.0,0.0,0.0,0.0,0.0,0.0,0.0,0.0,0.0,0.0,0.0,0.0,0.0,0.0,0.0,0.0,0.0,0.0,0.0,0.0,0.0,0.0,0.0,0.0,0.0,0.0,0.0,0.0,0.0,0.0,0.0,0.0,0.0,0.0,0.0,0.0,0.0,0.0,0.0,0.0,0.0,0.0,0.0,0.0,0.0,0.0,0.0,0.0,0.0,0.0,0.0,0.0,0.0,0.0,0.0,0.0,0.0,0.0,0.0,0.0,0.0,0.0,0.0,0.0,0.0,0.0,0.0,0.0,0.0,0.0,0.0,0.0,0.0,0.0,0.0,0.0,0.0,0.0,0.0,0.0,0.0,0.0,0.0,0.0,0.0,0.0,0.0,0.0,0.0,0.0,0.0,0.0,0.0,0.0,0.0,0.0,0.0,0.0,0.0,0.0,0.0,0.0,0.0,0.0,0.0,0.0,0.0,0.0,0.0,0.0,0.0,0.0,0.0,0.0,0.0,0.0,0.0,0.0,0.0,0.0,0.0,0.0,0.0,0.0,0.0,0.0,0.0,0.0,0.0,0.0,0.0,0.0,0.0,0.0,0.0,0.0,0.0,0.0,0.0,0.0,0.0,0.0,0.0,0.0,0.0,0.0,0.0,0.0,0.0,0.0,0.0,0.0,0.0,0.0,0.0,0.0,0.0,0.0,0.0,0.0,0.0,0.0,0.0,0.0,0.0,0.0,0.0,0.0,0.0,0.0,0.0,0.0,0.0,0.0,0.0,0.0,0.0,0.0,0.0,0.0,0.0,0.0,0.0,0.0,0.0,0.0,0.0,0.0,0.0,0.0,0.0,0.0,0.0,0.0,0.0,0.0,0.0,0.0,0.0,0.0,0.0,0.0,0.0,0.0,0.0,0.0,0.0,0.0,0.0,0.0,0.0,0.0,0.0,0.0,0.0,0.0,0.0,0.0,0.0,0.0,0.0,0.0,0.0,0.0,0.0,0.0,0.0,0.0,0.0,0.0,0.0,0.0,0.0,0.0,0.0,0.0,0.0,0.0,0.0,0.0,0.0,0.0,0.0,0.0,0.0,0.0,0.0,0.0,0.0,0.0,0.0,0.0,0.0,0.0,0.0,0.0,0.0,0.0,0.0,0.0,0.0,0.0,0.0,0.0,0.0,0.0,0.0,0.0,0.0,0.0,0.0,0.0,0.0,0.0,0.0,0.0,0.0,0.0,0.0,0.0,0.0,0.0,0.0,0.0,0.0,0.0,0.0,0.0,0.0,0.0,0.0,0.0,0.0,0.0,0.0,0.0,0.0,0.0,0.0,0.0,0.0,0.0,0.0,0.0,0.0,0.0,0.0,0.0,0.0,0.0,0.0,0.0,0.0,0.0,0.0,0.0,0.0,0.0,0.0,0.0,0.0,0.0,0.0,0.0,0.0,0.0,0.0,0.0,0.0,0.0,0.0,0.0,0.0,0.0,0.0,0.0,0.0,0.0,0.0,0.0,0.0,0.0,0.0,0.0,0.0,0.0,0.0,0.0,0.0,0.0,0.0,0.0,0.0,0.0,0.0,0.0,0.0,0.0,0.0,0.0,0.0,0.0,0.0,0.0,0.0,0.0,0.0,0.0,0.0,0.0,0.0,0.0,0.0,0.0,0.0,0.0,0.0,0.0,0.0,0.0,0.0,0.0,0.0,0.0,0.0,0.0,0.0,0.0,0.0,0.0,0.0,0.0,0.0,0.0,0.0,0.0,0.0,0.0,0.0,0.0,0.0,0.0,0.0,0.0,0.0,0.0,0.0,0.0,0.0,0.0,0.0,0.0,0.0,0.0,0.0,0.0,0.0,0.0,0.0,0.0,0.0,0.0,0.0,0.0,0.0,0.0,0.0,0.0,0.0,0.0,0.0,0.0,0.0,0.0,0.0,0.0,0.0,0.0,0.0,0.0,0.0,0.0,0.0,0.0,0.0,0.0,0.0,0.0,0.0,0.0,0.0,0.0,0.0,0.0,0.0,0.0,0.0,0.0,0.0,0.0,0.0,0.0,0.0,0.0,0.0,0.0,0.0,0.0,0.0,0.0,0.0,0.0,0.0,0.0,0.0,0.0,0.0,0.0,0.0,0.0,0.0,0.0,0.0,0.0,0.0,0.0,0.0,0.0,0.0,0.0,0.0,0.0,0.0,0.0,0.0,0.0,0.0,0.0,0.0,0.0,0.0,0.0,0.0,0.0,0.0,0.0,0.0,0.0,0.0,0.0,0.0,0.0,0.0,0.0,0.0,0.0,0.0,0.0,0.0,0.0,0.0,0.0,0.0,0.0,0.0,0.0,0.0,0.0,0.0,0.0,0.0,0.0,0.0,0.0,0.0,0.0,0.0,0.0,0.0,0.0,0.0,0.0,0.0,0.0,0.0,0.0,0.0,0.0,0.0,0.0,0.0,0.0,0.0,0.0,0.0,0.0,0.0,0.0,0.0,0.0,0.0,0.0,0.0,0.0,0.0,0.0,0.0,0.0,0.0,0.0,0.0,0.0,0.0,0.0,0.0,0.0,0.0,0.0,0.0,0.0,0.0,0.0,0.0,0.0,0.0,0.0,0.0,0.0,0.0,0.0,0.0,0.0,0.0,0.0,0.0,0.0,0.0,0.0,0.0,0.0,0.0,0.0,0.0,0.0,0.0,0.0,0.0,0.0,0.0,0.0,0.0,0.0,0.0,0.0,0.0,0.0,0.0,0.0,0.0,0.0,0.0,0.0,0.0,0.0,0.0,0.0,0.0,0.0,0.0,0.0,0.0,0.0,0.0,0.0,0.0,0.0,0.0,0.0,0.0,0.0,0.0,0.0,0.0,0.0,0.0,0.0,0.0,0.0,0.0,0.0,0.0,0.0,0.0,0.0,0.0,0.0,0.0,0.0,0.0,0.0,0.0,0.0,0.0,0.0,0.0,0.0,0.0,0.0,0.0,0.0,0.0,0.0,0.0,0.0,0.0,0.0,0.0,0.0,0.0,0.0,0.0,0.0,0.0,0.0,0.0,0.0,0.0,0.0,0.0,0.0,0.0,0.0,0.0,0.0,0.0,0.0,0.0,0.0,0.0,0.0,0.0,0.0,0.0,0.0,0.0,0.0,0.0,0.0,0.0,0.0,0.0,0.0,0.0,0.0,0.0,0.0,0.0,0.0,0.0,0.0,0.0,0.0,0.0,0.0,0.0,0.0,0.0,0.0,0.0,0.0,0.0,0.0,0.0,0.0,0.0,0.0,0.0,0.0,0.0,0.0,0.0,0.0,0.0,0.0,0.0,0.0,0.0,0.0,0.0,0.0,0.0,0.0,0.0,0.0,0.0,0.0,0.0,0.0,0.0,0.0,0.0,0.0,0.0,0.0,0.0,0.0,0.0,0.0,0.0,0.0,0.0,0.0,0.0,0.0,0.0,0.0,0.0,0.0,0.0,0.0,0.0,0.0,0.0,0.0,0.0,0.0,0.0,0.0,0.0,0.0,0.0,0.0,0.0,0.0,0.0,0.0,0.0,0.0,0.0,0.0,0.0,0.0,0.0,0.0,0.0,0.0,0.0,0.0,0.0,0.0,0.0,0.0,0.0,0.0,0.0,0.0,0.0,0.0,0.0,0.0,0.0,0.0,0.0,0.0,0.0,0.0,0.0,0.0,0.0,0.0,0.0,0.0,0.0,0.0,0.0,0.0,0.0,0.0,0.0,0.0,0.0,0.0,0.0,0.0,0.0,0.0,0.0,0.0,0.0,0.0,0.0,0.0,0.0,0.0,0.0,0.0,0.0,0.0,0.0,0.0,0.0,0.0,0.0,0.0,0.0,0.0,0.0,0.0,0.0,0.0,0.0,0.0,0.0,0.0,0.0,0.0,0.0,0.0,0.0,0.0,0.0,0.0,0.0,0.0,0.0,0.0,0.0,0.0,0.0,0.0,0.0,0.0,0.0,0.0,0.0,0.0,0.0,0.0,0.0,0.0,0.0,0.0,0.0,0.0,0.0,0.0,0.0,0.0,0.0,0.0,0.0,0.0,0.0,0.0,0.0,0.0,0.0,0.0,0.0,0.0,0.0,0.0,0.0,0.0,0.0,0.0,0.0,0.0,0.0,0.0,0.0,0.0,0.0,0.0,0.0,0.0,0.0,0.0,0.0,0.0,0.0,0.0,0.0,0.0,0.0,0.0,0.0,0.0,0.0,0.0,0.0,0.0,0.0,0.0,0.0,0.0,0.0,0.0,0.0,0.0,0.0,0.0,0.0,0.0,0.0,0.0,0.0,0.0,0.0,0.0,0.0,0.0,0.0,0.0,0.0,0.0,0.0,0.0,0.0,0.0,0.0,0.0,0.0,0.0,0.0,0.0,0.0,0.0,0.0,0.0,0.0,0.0,0.0,0.0,0.0,0.0,0.0,0.0,0.0,0.0,0.0,0.0,0.0,0.0,0.0,0.0,0.0,0.0,0.0,0.0,0.0,0.0,0.0,0.0,0.0,0.0,0.0,0.0,0.0,0.0,0.0,0.0,0.0,0.0,0.0,0.0,0.0,0.0,0.0,0.0,0.0,0.0,0.0,0.0,0.0,0.0,0.0,0.0,0.0,0.0,0.0,0.0,0.0,0.0,0.0,0.0,0.0,0.0,0.0,0.0,0.0,0.0,0.0,0.0,0.0,0.0,0.0,0.0,0.0,0.0,0.0,0.0,0.0,0.0,0.0,0.0,0.0,0.0,0.0,0.0,0.0,0.0,0.0,0.0,0.0,0.0,0.0,0.0,0.0,0.0,0.0,0.0,0.0,0.0,0.0,0.0,0.0,0.0,0.0,0.0,0.0,0.0,0.0,0.0,0.0,0.0,0.0,0.0,0.0,0.0,0.0,0.0,0.0,0.0,0.0,0.0,0.0,0.0,0.0,0.0,0.0,0.0,0.0,0.0,0.0,0.0,0.0,0.0,0.0,0.0,0.0,0.0,0.0,0.0,0.0,0.0,0.0,0.0,0.0,0.0,0.0,0.0,0.0,0.0,0.0,0.0,0.0,0.0,0.0,0.0,0.0,0.0,0.0,0.0,0.0,0.0,0.0,0.0,0.0,0.0,0.0,0.0,0.0,0.0,0.0,0.0,0.0,0.0,0.0,0.0,0.0,0.0,0.0,0.0,0.0,0.0,0.0,0.0,0.0,0.0,0.0,0.0,0.0,0.0,0.0,0.0,0.0,0.0,0.0,0.0,0.0,0.0,0.0,0.0,0.0,0.0,0.0,0.0,0.0,0.0,0.0,0.0,0.0,0.0,0.0,0.0,0.0,0.0,0.0,0.0,0.0,0.0,0.0,0.0,0.0,0.0,0.0,0.0,0.0,0.0,0.0,0.0,0.0,0.0,0.0,0.0,0.0,0.0,0.0,0.0,0.0,0.0,0.0,0.0,0.0,0.0,0.0,0.0,0.0,0.0,0.0,0.0,0.0,0.0,0.0,0.0,0.0,0.0,0.0,0.0,0.0,0.0,0.0,0.0,0.0,0.0,0.0,0.0,0.0,0.0,0.0,0.0,0.0,0.0,0.0,0.0,0.0,0.0,0.0,0.0,0.0,0.0,0.0,0.0,0.0,0.0,0.0,0.0,0.0,0.0,0.0,0.0,0.0,0.0,0.0,0.0,0.0,0.0,0.0,0.0,0.0,0.0,0.0,0.0,0.0,0.0,0.0,0.0,0.0,0.0,0.0,0.0,0.0,0.0,0.0,0.0,0.0,0.0,0.0,0.0,0.0,0.0,0.0,0.0,0.0,0.0,0.0,0.0,0.0,0.0,0.0,0.0,0.0,0.0,0.0,0.0,0.0,0.0,0.0,0.0,0.0,0.0,0.0,0.0,0.0,0.0,0.0,0.0,0.0,0.0,0.0,0.0,0.0,0.0,0.0,0.0,0.0,0.7139,0.0,0.0,0.0,0.0,0.0,0.0,0.0,0.0,0.0,0.0,0.0,0.0,0.0,0.0,0.0,0.0,0.0,0.0,0.0,0.0,0.0,0.0,0.0,0.0,0.0,0.0,0.0,0.0,0.0,0.0,0.0,0.0,0.0,0.0,0.0,0.0,0.0,0.0,0.0,0.0,0.0,0.0,0.0,0.0,0.0,0.0,0.0,0.0,0.0,0.0,0.0,0.0,0.0,0.0,0.0,0.0,0.0,0.0,0.0,0.0,0.0,0.0,0.0,0.0,0.0,0.0,0.0,0.0,0.0,0.0,0.0,0.0,0.0,0.0,0.0,0.0,0.0,0.0,0.0,0.0,0.0,0.0,0.0,0.0,0.0,0.0,0.0,0.0,0.0,0.0,0.0,0.0,0.0,0.0,0.0,0.0,0.0,0.0,0.0,0.0,0.0,0.0,0.0,0.0,0.0,0.0,0.0,0.0,0.0,0.0,0.0,0.0,0.0,0.0,0.0,0.0,0.7139,0.0,0.0,0.0,0.0,0.0,0.0,0.0,0.0,0.0,0.0,0.0,0.0,0.0,0.0,0.0,0.0,0.0,0.0,0.0,0.0,0.0,0.0,0.0,0.0,0.0,0.0,0.0,0.0,0.0,0.0,0.0,0.0,0.0,0.0,0.0,0.0,0.0,0.0,0.0,0.0,0.0,0.0,0.0,0.0,0.0,0.0,0.0,0.0,0.0,0.0,0.0,0.0,0.0,0.0,0.0,0.0,0.0,0.0,0.0,0.0,0.0,0.0,0.0,0.0,0.0,0.0,0.0,0.0,0.0,0.0,0.0,0.0,0.0,0.0,0.0,0.0,0.0,0.0,0.0,0.0,0.0,0.0,0.0,0.0,0.0,0.0,0.0,0.0,0.0,0.0,0.0,0.0,0.0,0.0,0.0,0.0,0.0,0.0,0.0,0.0,0.0,0.0,0.0,0.0,0.0,0.0,0.0,0.0,0.7539,0.76,0.76,0.76,0.76,0.7587,0.7333,0.7221,0.7231,0.736,0.0,0.0,0.0,0.0,0.0,0.0,0.0,0.0,0.0,0.0,0.0,0.0,0.0,0.0,0.0,0.0,0.0,0.0,0.0,0.0,0.0,0.0,0.0,0.0,0.0,0.0,0.0,0.0,0.0,0.0,0.0,0.0,0.0,0.0,0.0,0.0,0.0,0.0,1.4088,1.4088,1.4088,1.4088,1.4088,0.0,0.0,0.0,0.0,0.0,0.0,0.0,0.0,0.0,0.0,0.0,0.0,0.0,0.0,0.0,0.0,0.0,0.0,0.0,0.0,0.0,0.0,0.0,0.0,0.0,0.0,0.0,0.0,0.0,0.0,0.0,0.0,0.0,0.0,0.0,0.0,0.0,0.0,0.0,0.0,0.0,0.0,0.0,0.7139,0.7139,0.0,0.0,0.0,0.0,0.0,0.0,0.0,0.0,0.0,0.0,0.0,0.0,0.0,0.7539,0.7539,0.756,0.757,0.757,0.759,0.76,0.76,0.76,0.76,0.7597,0.7556,0.0,0.7543,0.756,0.0,0.0,0.0,0.0,0.0,0.0,0.0,0.0,0.0,0.0,0.0,0.0,0.0,0.0,0.0,0.0,0.0,0.0,0.0,0.0,0.0,0.0,0.0,0.0,0.0,0.0,0.0,0.0,0.0,0.0,0.0,0.0,0.0,0.0,0.0,0.0,1.4088,1.4088,1.4088,1.4088,1.4088,1.4088,1.4088,1.4088,1.4088,1.4088,0.0,0.0,0.0,0.0,0.0,0.0,0.0,0.0,0.0,0.0,0.0,0.0,0.0,0.0,0.0,0.0,0.0,0.0,0.0,0.0,0.0,0.0,0.0,0.0,0.0,0.0,0.0,0.0,0.0,0.0,0.0,0.0,0.0,0.0,0.0,0.0,0.0,0.0,0.0,0.7139,0.7139,0.7139,0.7139,0.7139,0.0,0.0,0.0,0.0,0.0,0.0,0.0,0.0,0.0,0.7499,0.7563,0.76,0.76,0.7678,0.7719,0.7719,0.7804,0.7848,0.7848,0.7848,0.7848,0.7848,0.7848,0.7848,0.7841,0.7753,0.7719,0.7726,0.0,0.0,0.0,0.0,0.7848,0.7848,0.0,0.0,0.0,0.0,0.0,0.0,0.0,0.0,0.0,0.0,0.0,0.0,0.0,0.0,0.0,1.2795,0.0,0.0,0.0,0.0,0.0,0.0,0.0,0.0,0.0,0.0,0.0,0.0,1.4088,1.4088,1.4088,1.4088,1.4088,1.4088,1.4088,1.4088,1.4088,1.4088,1.4088,0.0,0.0,0.0,0.0,0.0,0.0,0.0,0.0,0.0,0.0,0.0,0.0,0.0,0.0,0.0,0.0,0.0,0.0,0.0,0.0,0.0,0.0,0.0,0.0,0.0,0.0,0.0,0.0,0.0,0.0,0.0,0.0,0.0,0.0,0.0,0.0,0.0,0.0,0.7139,0.7139,0.7139,0.7177,0.72,0.0,0.0,0.0,0.0,0.0,0.0,0.7594,0.7634,0.7655,0.7655,0.7692,0.7712,0.7712,0.7818,0.7889,0.7929,0.8045,0.8116,0.8153,0.8153,0.8153,0.8153,0.8153,0.8153,0.814,0.795,0.7868,0.7882,0.7994,0.8038,0.8045,0.8082,0.8099,0.8102,0.0,0.0,0.0,0.0,0.0,0.0,0.0,0.0,0.0,0.0,0.0,0.0,0.0,0.0,1.2418,1.2795,1.2822,1.2993,0.0,0.0,0.0,0.0,0.0,0.0,0.0,0.0,0.0,1.4088,1.4088,1.4088,1.4088,1.4088,1.4088,1.4088,1.4088,1.4088,1.4088,1.4088,1.4088,1.4088,0.0,0.0,0.0,0.0,0.0,0.0,0.0,0.0,0.0,0.0,0.0,0.0,0.0,0.0,0.0,0.0,0.0,0.0,0.0,0.0,0.0,0.0,0.0,0.0,0.0,0.0,0.0,0.0,0.0,0.0,0.0,0.0,0.0,0.0,0.0,0.0,0.0,0.0,0.0,0.7139,0.7272,0.0,0.0,0.0,0.0,0.7587,0.7587,0.759,0.76,0.7726,0.7801,0.7801,0.794,0.8018,0.8018,0.8024,0.8102,0.8248,0.8255,0.833,0.8459,0.8459,0.8459,0.8459,0.8459,0.8459,0.8438,0.8147,0.8028,0.8028,0.8035,0.8038,0.8058,0.8204,0.8258,0.8279,0.0,0.0,0.0,0.0,0.0,0.0,0.0,0.0,0.0,0.0,0.0,0.0,0.0,1.2472,1.2712,1.3019,1.3213,1.3494,1.3901,0.0,0.0,0.0,0.0,0.0,0.0,0.0,1.4412,1.5137,1.4412,1.4489,1.5137,1.4412,1.4088,1.4166,1.4817,1.5137,1.5054,1.4412,1.4489,1.5054,1.4412,1.4489,0.0,0.0,0.0,0.0,0.0,0.0,0.0,0.0,0.0,0.0,0.0,0.0,0.0,0.0,0.0,0.0,0.0,0.0,0.0,0.0,0.0,0.0,0.0,0.0,0.0,0.0,0.0,0.0,0.0,0.0,0.0,0.0,0.0,0.0,0.0,0.0,0.0,0.7424,0.7485,0.0,0.7519,0.7567,0.7638,0.7729,0.7736,0.778,0.7879,0.7929,0.8004,0.8106,0.816,0.8231,0.8323,0.8323,0.835,0.8408,0.8408,0.8431,0.8482,0.8482,0.8482,0.8482,0.8482,0.8482,0.8472,0.8367,0.8323,0.8323,0.8323,0.8323,0.8333,0.8387,0.8408,0.8414,0.0,0.0,0.0,0.0,0.0,0.0,0.0,0.0,0.0,0.0,0.0,1.2305,1.2305,1.2565,1.2872,1.318,1.348,1.3768,1.4068,0.0,0.0,0.0,0.0,0.0,0.0,1.425,1.4657,1.5696,1.4977,1.4977,1.5696,1.5304,1.4985,1.465,1.5379,1.5538,1.5137,1.4817,1.5054,1.5621,1.4489,1.4489,1.5054,0.0,0.0,0.0,0.0,0.0,0.0,0.0,0.0,0.0,0.0,0.0,0.0,0.0,0.0,0.0,0.0,0.0,0.0,0.0,0.0,0.0,0.0,0.0,0.0,0.0,0.0,0.0,0.0,0.0,0.0,0.0,0.0,0.0,0.0,0.0,0.7485,0.7587,0.7641,0.7672,0.7672,0.7719,0.7787,0.7882,0.7936,0.8011,0.8113,0.8163,0.8235,0.834,0.834,0.8387,0.8479,0.8533,0.8584,0.8635,0.8686,0.8737,0.8784,0.8784,0.8784,0.8784,0.8784,0.8784,0.8784,0.8784,0.8784,0.8767,0.856,0.8482,0.8489,0.854,0.856,0.8567,0.0,0.0,0.0,0.0,0.0,0.0,0.0,0.0,0.0,0.0,1.2305,1.2305,1.2311,1.2585,1.2886,1.32,1.3487,1.3781,1.4068,1.4088,0.0,0.0,0.0,0.0,1.5703,1.4734,1.4657,1.5779,1.5779,1.5779,1.5861,1.6846,1.6764,1.5779,1.5779,1.522,1.4328,1.5379,1.5779,1.5703,1.4657,1.4166,1.4166,0.0,0.0,0.0,0.0,0.0,0.0,0.0,0.0,0.0,0.0,0.0,0.0,0.0,0.0,0.0,0.0,0.0,0.0,0.0,0.0,0.0,0.0,0.0,0.0,0.0,0.0,0.0,0.0,0.0,0.0,0.0,0.0,0.0,0.7607,0.7607,0.7607,0.7611,0.7736,0.7821,0.7824,0.796,0.8048,0.8055,0.8191,0.8279,0.8279,0.8408,0.8486,0.8496,0.8496,0.8503,0.8509,0.8659,0.8804,0.8954,0.9093,0.9239,0.9381,0.9381,0.9381,0.9381,0.9381,0.9381,0.9381,0.9381,0.9381,0.9323,0.8737,0.8509,0.8526,0.8676,0.8726,0.8747,0.0,0.0,0.0,0.0,0.0,0.0,0.0,0.0,1.2305,1.2305,1.2305,1.2385,1.2681,1.2899,1.32,1.35,1.3794,1.4001,1.4082,0.0,0.0,0.0,0.0,0.0,1.6846,1.5786,1.6191,1.806,1.7253,1.7253,1.806,1.7577,1.7172,1.6927,1.7738,1.79,1.7658,1.798,1.806,1.798,1.6854,1.6445,1.6363,0.0,0.0,0.0,0.0,0.0,0.0,0.0,0.0,0.0,0.0,0.0,0.0,0.0,0.0,0.0,0.0,0.0,0.0,0.0,0.0,0.0,0.0,0.0,0.0,0.0,0.0,0.0,0.0,0.0,0.0,0.0,0.0,0.8937,0.7863,0.7753,0.7794,0.7906,0.7953,0.8021,0.8133,0.818,0.8248,0.8353,0.8397,0.8425,0.8425,0.8462,0.8584,0.8808,0.8815,0.8916,0.9133,0.9178,0.9218,0.9262,0.93,0.934,0.9381,0.9381,0.9381,0.9381,0.9381,0.9381,0.9381,0.9381,0.9381,0.9364,0.9198,0.9133,0.914,0.9181,0.9127,0.9022,0.0,0.0,0.0,0.0,0.0,0.0,0.0,0.0,1.2305,1.2305,1.2305,1.2418,1.2788,1.3026,1.3327,1.3621,1.3915,1.4088,1.4088,0.0,0.0,0.0,0.0,1.5545,1.7261,1.6683,1.7245,1.9036,1.831,1.831,1.9036,1.8789,1.847,1.8069,1.8718,1.8709,1.831,1.8798,1.9036,1.8957,1.8789,1.8141,1.7172,1.6108,1.5296,1.4734,1.425,1.4088,1.4088,1.4088,0.0,0.0,0.0,0.0,0.0,0.0,0.0,0.0,0.0,0.0,0.0,0.0,0.0,0.0,0.0,0.0,0.0,0.0,0.0,0.0,0.0,0.0,0.0,0.0,0.9326,0.9018,0.8196,0.8041,0.8038,0.8126,0.8187,0.8262,0.835,0.836,0.8394,0.8476,0.8601,0.8672,0.8672,0.8791,0.894,0.912,0.9123,0.9205,0.9381,0.9445,0.9476,0.9479,0.9537,0.9564,0.9564,0.9564,0.9564,0.9564,0.9564,0.9564,0.9564,0.9564,0.9564,0.0,0.0,0.0,0.0,0.0,0.9323,0.9239,0.0,0.0,0.0,0.0,0.0,0.0,0.0,0.0,1.2305,1.2305,1.2305,1.2425,1.2842,1.3046,1.334,1.3667,1.3935,1.4088,0.0,0.0,0.0,1.4496,1.5379,1.6437,1.7658,1.7577,1.8069,1.9195,1.9195,1.9195,1.9204,2.0157,2.0079,1.9195,1.9195,1.863,1.7738,1.8709,1.9195,1.9283,2.0245,1.9353,1.7334,1.6273,1.5861,1.5703,1.4489,1.4166,1.425,1.4173,0.0,0.0,0.0,0.0,0.0,0.0,0.0,0.0,0.0,0.0,0.0,0.0,0.0,0.0,0.0,0.0,0.0,0.0,0.0,0.0,0.0,0.0,0.0,0.0,0.8395,0.8336,0.8465,0.8387,0.8316,0.8296,0.8408,0.8489,0.8506,0.8523,0.854,0.8557,0.8825,0.8988,0.8988,0.0,0.0,0.0,0.0,0.9415,0.9432,0.9585,0.9659,0.9659,0.9805,0.9873,0.9873,0.9873,0.9873,0.9873,0.9873,0.9873,0.9873,0.9873,0.9873,0.9842,0.9547,0.9432,0.9429,0.9412,0.9408,0.9405,0.0,0.0,0.0,0.0,0.0,0.0,0.0,0.0,1.2305,1.2305,1.2305,1.2512,1.306,1.3173,1.3427,1.3955,1.4055,1.4088,0.0,0.0,1.5786,1.6609,1.6846,1.79,1.9913,1.9116,1.9195,2.0323,2.0323,2.0323,2.0323,2.0489,2.0489,2.0323,2.0323,2.0157,2.0001,2.0167,2.0323,2.0323,2.0489,1.9835,1.855,1.7415,1.7009,1.6772,1.4824,1.465,1.5296,1.4412,1.4242,1.4436,1.4436,0.0,0.0,0.0,0.0,0.0,0.0,0.0,0.0,0.0,0.0,0.0,0.0,0.0,0.0,0.0,0.0,0.0,0.0,0.0,0.0,1.0079,0.9161,0.8452,0.8479,0.8564,0.8581,0.8455,0.8465,0.853,0.8655,0.8777,0.8899,0.9015,0.9191,0.9296,0.9296,0.9351,0.9439,0.9561,0.9564,0.9622,0.9734,0.9886,0.9964,0.9968,0.0,0.0,1.0192,1.0192,1.0192,1.0192,1.0192,1.0192,1.0192,1.0192,1.0192,1.0161,0.9856,0.9737,0.9724,0.9608,0.9564,0.9547,0.0,0.0,0.0,0.0,0.0,0.0,0.0,0.0,1.2305,1.2305,1.2305,1.2532,1.3146,1.3213,1.3447,1.4035,1.4088,0.0,0.0,1.5379,1.6191,1.7253,1.7827,1.863,1.9766,1.9766,2.0079,2.0566,2.0566,2.0566,2.0566,2.0566,2.0566,2.0566,2.0566,2.0566,2.0566,2.0566,2.0566,2.0566,2.0566,2.0245,1.9678,1.855,1.7827,1.7098,1.547,1.4993,1.5043,1.4467,1.4502,1.4743,1.4743,1.4943,1.5177,0.0,0.0,0.0,0.0,0.0,0.0,0.0,0.0,0.0,0.0,0.0,0.0,0.0,0.0,1.4965,0.0,0.0,1.1088,0.973,0.9016,0.8621,0.8699,0.8777,0.8767,0.8615,0.8726,0.8849,0.8923,0.9069,0.9191,0.9262,0.9408,0.9496,0.9496,0.9561,0.9673,0.9825,0.9829,0.99,1.0049,1.0127,1.0164,1.0168,1.0243,1.028,1.028,1.028,1.0781,1.153,1.0658,1.1281,1.2901,1.2901,1.2406,1.1637,1.1464,1.0783,1.0032,0.9883,0.9829,0.9808,0.0,0.0,0.0,0.0,0.0,0.0,0.0,0.0,0.0,1.2305,1.2305,1.2532,1.3146,1.3213,1.3447,0.0,0.0,0.0,0.0,1.6108,1.6764,1.7577,1.8709,1.9274,1.9274,2.0157,2.0566,2.0566,2.0566,2.0566,2.0566,2.0566,2.0566,2.0566,2.0566,2.0566,2.0566,2.0566,2.0566,2.0566,2.0566,2.0615,2.0615,1.9729,1.8834,1.7848,1.6621,1.5764,1.52,1.5026,1.4974,1.505,1.505,1.5251,1.5478,1.5478,1.5645,0.0,0.0,0.0,0.0,0.0,0.0,0.0,0.0,0.0,1.6707,1.6707,1.6546,1.565,1.3075,1.2486,1.1535,0.9162,0.8754,0.8808,0.8957,0.8981,0.8947,0.8852,0.9025,0.9164,0.9195,0.9337,0.9425,0.9425,0.9564,0.9663,0.9693,0.9802,0.9934,1.009,1.0093,1.0277,1.0781,1.081,1.0948,1.1326,1.1359,1.1374,1.1374,1.1374,1.2131,1.3383,1.2004,1.3007,1.5643,1.5643,1.4514,1.3007,1.3387,1.2381,1.0849,1.0287,1.0093,1.0076,0.0,0.0,0.0,0.0,0.0,0.0,0.0,0.0,0.0,1.2305,1.2305,1.2532,1.3146,1.3213,0.0,0.0,0.0,0.0,1.5696,1.7568,1.8709,1.8798,1.9844,2.0401,2.0401,2.0566,2.0566,2.0566,2.0566,2.0566,2.0566,2.0566,2.0566,2.0566,2.0566,2.0566,2.0566,2.0566,2.0566,2.0566,2.0566,2.0801,2.1162,2.0992,2.0912,2.0491,1.8494,1.7798,1.7841,1.6885,1.597,1.5351,1.5351,1.5545,1.5785,1.5785,0.0,1.5885,1.6152,1.6413,1.6613,1.6647,1.666,1.6667,0.0,0.0,1.6707,1.6707,1.5871,1.4677,1.3105,1.1996,1.0728,0.9127,0.8913,0.8964,0.911,0.913,0.9174,0.9293,0.9215,0.9205,0.9344,0.9493,0.9585,0.9585,0.9717,0.9856,0.9992,1.0015,1.0093,1.0249,1.0253,1.1013,1.2653,1.2681,1.3515,1.5037,1.5233,1.5326,1.5326,1.5326,1.5326,1.5584,1.5326,1.5455,1.5843,1.5843,1.4813,1.3392,1.4938,1.4554,1.2706,1.0991,1.0253,1.0253,0.0,0.0,0.0,0.0,0.0,0.0,0.0,0.0,0.0,0.0,0.0,1.2532,1.3146,0.0,0.0,0.0,0.0,0.0,1.6601,1.8149,1.9283,1.9923,2.0323,2.0566,2.0566,2.0566,2.0566,2.0566,2.0566,2.0566,2.0566,2.0566,2.0566,2.0566,2.0566,2.0566,2.0566,2.0566,2.0566,2.0586,2.085,2.1064,2.126,2.1514,2.1768,2.1601,1.9125,1.7983,0.0,0.0,1.638,1.5738,1.6472,1.6289,1.5865,1.6039,1.6086,0.0,1.6446,1.6613,0.0,0.0,1.6967,1.7007,1.7174,1.7215,1.7215,1.7215,1.6886,1.6113,1.4618,1.3949,1.3156,0.0,1.163,1.1402,1.0587,1.058,1.0367,0.9614,0.9456,0.9445,0.9507,1.0472,1.0722,0.9859,1.0767,1.0998,1.0175,1.1176,1.1744,1.1915,1.2931,1.3866,1.4624,1.4704,1.5134,1.5777,1.5873,1.5913,1.5913,1.5913,1.5913,1.6043,1.7988,1.8378,1.7468,1.8506,1.7859,1.6436,1.7082,1.6302,1.4711,1.3788,1.3431,1.3418,0.0,0.0,0.0,0.0,0.0,0.0,0.0,0.0,0.0,0.0,0.0,0.0,0.0,0.0,0.0,0.0,0.0,0.0,0.0,1.839,1.9441,2.0557,2.0566,2.0566,2.0566,2.0566,2.0566,2.0566,2.0566,2.0566,2.0566,2.0566,2.0566,2.0566,2.0566,2.0566,2.0566,2.0566,2.0566,2.0605,2.1055,2.1309,2.1455,2.1894,2.2324,2.236,1.992,1.8523,0.0,0.0,1.6643,1.592,1.685,1.663,1.5999,1.6213,1.6386,1.656,1.6774,0.0,0.0,1.7215,1.7268,1.7321,1.7535,1.7582,1.7582,1.7582,1.7582,1.7147,1.5636,1.5417,1.477,1.294,1.2903,1.2502,1.0997,1.1052,1.1008,1.0357,1.0379,1.0509,1.1029,1.1378,1.1382,1.0652,1.1317,1.1545,1.1086,1.2222,1.3181,1.3877,1.516,1.6003,1.656,1.6565,1.6824,1.7339,1.7339,1.7339,1.7339,1.7339,1.7339,1.7468,1.9941,2.0329,1.9285,2.0589,2.0068,1.8506,1.903,1.8116,1.6668,1.7008,1.6562,1.5645,0.0,0.0,0.0,0.0,0.0,0.0,0.0,0.0,0.0,0.0,0.0,0.0,0.0,0.0,0.0,0.0,0.0,0.0,0.0,1.839,1.9441,2.0557,2.0566,2.0566,2.0566,2.0566,2.0566,2.0566,2.0566,2.0566,2.0566,2.0566,2.0566,2.0566,2.0566,2.0566,2.0566,2.0566,2.0566,2.0605,2.1055,2.1484,2.1914,2.2334,2.2754,2.2882,2.12,0.0,0.0,1.8126,1.6842,1.5832,1.5825,1.6025,0.0,1.6273,1.6673,1.7121,1.7134,0.0,1.7555,1.7569,1.7569,1.7569,1.7582,1.7582,1.7582,1.7582,1.7582,1.7147,1.5636,1.5417,1.4449,1.1647,1.1253,1.0876,0.9582,0.9621,1.0245,1.1947,1.2088,1.2879,0.0,1.1996,1.0656,1.2254,1.1058,1.1089,1.2896,1.3033,1.3882,1.5769,1.5903,1.6684,1.8378,1.8378,1.9285,2.0976,2.0976,2.0976,2.0976,2.0976,2.0976,2.0976,2.1109,2.1109,2.0982,2.1109,2.0068,1.8634,2.0329,1.9941,1.8634,2.0316,1.8756,1.5644,0.0,0.0,0.0,0.0,0.0,0.0,0.0,0.0,0.0,0.0,0.0,0.0,0.0,0.0,0.0,0.0,0.0,0.0,0.0,1.839,1.9441,2.0557,2.0566,2.0566,2.0566,2.0566,2.0566,2.0566,2.0566,2.0566,2.0566,2.0566,2.0566,2.0566,2.0566,2.0566,2.0566,2.0566,2.0566,2.0605,2.1055,2.1494,2.1934,2.2353,2.2226,2.1738,0.0,0.0,0.0,1.8141,1.685,1.5953,1.6996,1.6856,1.6353,1.674,1.7128,1.7442,1.7442,1.7508,1.7582,1.7582,1.7582,1.7582,1.7582,1.7582,1.7582,1.7582,1.7582,1.7536,1.7193,1.6957,1.6624,1.6113,1.6016,1.5597,1.4343,1.4336,1.4272,1.388,1.3765,0.0,0.0,0.0,0.0,1.4461,1.4051,1.4052,1.489,1.6059,1.6995,1.7597,1.8768,1.9674,2.0195,2.0202,2.0462,2.1109,2.1109,2.1109,2.1109,2.1109,2.1109,2.1109,2.1109,2.1109,2.1109,2.1109,2.0716,2.0329,2.0849,2.0722,2.0195,1.9546,1.9419,1.9285,0.0,0.0,0.0,0.0,0.0,0.0,0.0,0.0,0.0,0.0,0.0,0.0,0.0,0.0,0.0,0.0,0.0,0.0,0.0,0.0,1.8709,1.9353,2.0157,2.0401,2.0001,2.0401,2.0566,2.0566,2.0566,2.0566,2.0566,2.0566,2.0566,2.0566,2.0566,2.0566,2.0566,2.0566,2.0654,2.084,2.1289,2.1728,2.2148,2.2036,2.172,0.0,0.0,0.0,1.868,1.7404,1.648,1.5974,1.7124,1.7093,1.668,1.7161,1.7435,1.7582,1.7582,1.7582,1.7582,1.7582,1.7582,1.7582,1.7582,1.7582,1.7582,1.7582,1.7669,1.7809,1.8009,1.7969,1.7921,1.7734,1.7764,1.7315,1.5977,1.5982,1.602,1.5548,1.5429,1.6272,0.0,0.0,0.0,1.6565,1.6043,1.6023,1.6813,1.7859,1.8768,1.9419,2.0462,2.1109,2.1109,2.1109,2.1109,2.1109,2.1109,2.1109,2.1109,2.1109,2.1109,2.1109,2.1109,2.1109,2.1109,2.1109,2.1109,2.1109,2.1109,2.1109,2.0976,1.9807,2.0195,2.0976,0.0,0.0,0.0,0.0,0.0,0.0,0.0,0.0,0.0,0.0,0.0,0.0,0.0,0.0,0.0,0.0,0.0,0.0,0.0,0.0,0.0,1.7415,1.9432,2.0079,1.9116,2.0079,2.0566,2.0566,2.0566,2.0566,2.0566,2.0566,2.0566,2.0566,2.0566,2.0566,2.0566,2.0566,2.081,2.123,2.1568,2.1997,2.2254,2.1456,0.0,0.0,0.0,0.0,0.0,1.6204,1.5838,1.5905,1.6206,1.6687,1.7208,1.7495,1.7582,1.7582,1.7582,1.7582,1.7582,1.7582,1.7582,1.7582,1.7582,1.7582,1.7589,1.7602,1.7842,1.8056,0.0,0.0,1.804,1.6676,1.6541,1.612,1.4861,1.4821,1.5429,0.0,0.0,0.0,0.0,0.0,0.0,1.825,0.0,1.6824,1.8506,1.8634,1.9413,2.1109,2.1109,2.1109,2.1109,2.1109,2.1109,2.1109,2.1109,2.1109,2.1109,2.1109,2.1109,2.1109,2.1109,2.1109,2.1109,2.1109,2.1109,2.1109,2.1109,2.1109,2.1109,2.1109,2.1109,2.0849,0.0,0.0,0.0,0.0,0.0,0.0,0.0,0.0,0.0,0.0,0.0,0.0,0.0,0.0,0.0,0.0,0.0,0.0,0.0,0.0,0.0,0.0,0.0,0.0,0.0,0.0,0.0,2.0566,2.0566,2.0566,2.0566,2.0566,2.0566,2.0566,2.0566,2.0566,2.0566,2.0566,2.0635,2.0664,0.0,2.009,2.0546,0.0,0.0,0.0,0.0,0.0,0.0,0.0,0.0,1.6206,1.6506,1.6854,1.7208,1.7495,1.7582,1.7582,1.7582,1.7582,1.7582,1.7582,1.7582,1.7582,1.7582,1.7582,1.7649,1.7883,1.7989,1.8183,0.0,0.0,0.0,1.8594,1.8428,0.0,1.8153,1.8125,0.0,1.8765,0.0,1.9109,2.0053,1.9857,0.0,0.0,1.8732,1.8634,2.0329,2.0456,2.0589,2.1109,2.1109,2.1109,2.1109,2.1109,2.1109,2.1109,2.1109,2.1109,2.1109,2.1109,2.1109,2.1109,2.1109,2.1109,2.1109,2.1109,2.1109,2.1109,2.1109,2.1109,2.1109,2.1109,2.1109,2.0982,0.0,0.0,0.0,0.0,0.0,0.0,0.0,0.0,0.0,0.0,0.0,0.0,0.0,0.0,0.0,0.0,0.0,0.0,0.0,0.0,0.0,0.0,0.0,0.0,0.0,0.0,0.0,0.0,0.0,0.0,2.0566,2.0566,2.0566,2.0566,2.0566,2.0566,2.0566,2.0566,0.0,0.0,0.0,0.0,0.0,0.0,0.0,0.0,0.0,0.0,0.0,0.0,0.0,1.6326,1.6613,1.6907,1.7208,1.7495,1.7582,1.7582,1.7582,1.7582,1.7582,1.7582,1.7582,1.7615,1.7756,1.7789,1.7876,1.8176,1.8343,0.0,1.8865,1.8898,1.8985,0.0,0.0,0.0,1.9345,1.9366,1.9366,0.0,1.9366,0.0,2.0174,2.0234,2.0474,0.0,2.0195,2.0068,2.1109,2.1109,2.1109,2.1109,2.1109,2.1109,2.1109,2.1109,2.1109,2.1109,2.1109,2.1109,2.1109,2.1109,2.1109,2.1109,0.0,2.1109,2.1109,2.1109,2.1109,2.1109,2.1109,2.1109,2.1109,2.1109,2.1109,2.1109,0.0,0.0,0.0,0.0,0.0,0.0,0.0,0.0,0.0,0.0,0.0,0.0,0.0,0.0,0.0,0.0,0.0,0.0,0.0,0.0,0.0,0.0,0.0,0.0,0.0,0.0,0.0,0.0,0.0,0.0,0.0,0.0,0.0,0.0,0.0,0.0,0.0,0.0,0.0,0.0,0.0,0.0,0.0,0.0,0.0,0.0,0.0,0.0,0.0,0.0,1.5999,1.6273,1.66,1.6881,1.7154,1.7482,1.7582,1.7582,1.7582,1.7582,1.7582,1.7582,1.7582,1.7662,1.7976,1.805,1.8143,1.8477,0.0,1.8931,1.8978,1.9192,1.9366,1.9366,0.0,1.9366,1.9366,1.9366,1.9366,1.9366,1.9366,1.9593,2.0174,2.0234,2.0474,2.1062,2.1109,2.1109,2.1109,2.1109,2.1109,2.1109,2.1109,2.1109,2.1109,2.1109,2.1109,2.1109,2.1109,2.1109,2.1109,2.1109,2.1109,2.1109,2.1109,2.1109,2.1109,2.1109,2.1109,2.1109,2.1109,2.1109,2.1109,2.1109,2.1109,2.1109,0.0,0.0,0.0,0.0,0.0,0.0,0.0,0.0,0.0,0.0,1.2559,1.2866,0.0,0.0,0.0,0.0,0.0,0.0,0.0,0.0,0.0,0.0,0.0,0.0,0.0,0.0,0.0,0.0,0.0,0.0,0.0,0.0,0.0,0.0,0.0,0.0,0.0,0.0,0.0,0.0,0.0,0.0,0.0,0.0,0.0,0.0,0.0,0.0,0.0,0.0,1.5865,1.5999,1.654,1.674,1.6887,1.7428,1.7582,1.7582,1.7582,1.7582,1.7582,1.7582,1.7582,1.7662,1.7976,1.805,0.0,0.0,1.8885,1.8998,1.9245,1.9332,1.9366,1.9366,1.9366,1.9366,1.9366,1.9366,1.9366,0.0,1.9366,1.9593,2.0174,2.0234,0.0,0.0,2.1109,2.1109,2.1109,2.1109,2.1109,2.1109,2.1109,2.1109,2.1109,2.1109,2.1109,2.1109,2.1109,2.1109,2.1109,2.1109,2.1109,2.1109,2.1109,0.0,2.1109,2.1109,2.1109,2.1109,2.1109,2.1109,2.1109,2.1109,2.1109,2.1109,0.0,0.0,0.0,0.0,0.0,0.0,0.0,1.1996,1.2305,1.2305,1.2425,1.2632,1.2933,1.324,0.0,0.0,0.0,0.0,0.0,0.0,0.0,0.0,0.0,0.0,0.0,0.0,0.0,0.0,0.0,0.0,0.0,0.0,0.0,0.0,0.0,0.0,0.0,0.0,0.0,0.0,0.0,0.0,0.0,0.0,0.0,0.0,0.0,0.0,0.0,0.0,1.5832,1.5932,1.652,1.6707,1.682,1.7408,1.7582,1.7582,1.7582,1.7582,1.7582,1.7582,1.7582,1.7702,1.817,0.0,0.0,0.0,1.9152,1.9199,1.9339,1.9366,0.0,1.9366,1.9366,1.9366,1.9366,1.9366,1.9366,1.9366,1.9366,1.9593,0.0,2.0234,2.0474,2.1062,2.1109,2.1109,2.1109,2.1109,2.1109,2.1109,2.1109,2.1109,2.1109,2.1109,2.1109,2.1109,2.1109,2.1109,2.1109,2.1109,2.1109,2.1109,2.1109,2.1109,2.1109,2.1109,2.1109,2.1109,2.1109,2.1109,2.1109,2.1109,2.1109,2.1109,0.0,0.0,0.0,0.0,0.0,0.0,0.0,1.1465,1.2077,1.2305,1.2305,1.2392,1.2625,1.2926,1.3253,0.0,0.0,0.0,0.0,0.0,0.0,0.0,0.0,0.0,0.0,0.0,0.0,1.7666,0.0,0.0,0.0,0.0,0.0,0.0,0.0,0.0,0.0,0.0,0.0,0.0,0.0,0.0,0.0,0.0,0.0,0.0,0.0,0.0,0.0,0.0,1.5832,1.5932,1.652,1.6707,1.682,1.7408,1.7582,1.7582,1.7582,1.7582,1.7582,1.7582,1.7582,1.7722,1.8263,1.8444,0.0,1.9165,1.9325,1.9366,1.9366,1.9366,1.9366,0.0,1.9366,1.9366,1.9366,1.9366,1.9366,0.0,1.9366,0.0,2.0174,2.0234,0.0,2.1062,2.1109,2.1109,2.1109,2.1109,2.1109,2.1109,2.1109,2.1109,2.1109,2.1109,2.1109,2.1109,2.1109,2.1109,2.1109,2.1109,2.1109,2.1109,2.1109,2.1109,2.1109,2.1109,2.1109,2.1109,2.1109,2.1109,2.1109,2.1109,2.1109,2.1109,0.0,0.0,0.0,0.0,0.0,0.0,0.0,1.0864,1.1242,1.215,1.2305,1.2311,1.2338,1.2605,1.3019,0.0,0.0,0.0,0.0,0.0,0.0,0.0,0.0,0.0,0.0,0.0,0.0,1.8877,1.7908,0.0,0.0,0.0,0.0,0.0,0.0,0.0,0.0,0.0,0.0,0.0,0.0,0.0,0.0,0.0,0.0,0.0,0.0,0.0,0.0,0.0,0.0,1.5932,1.652,1.6707,1.682,1.7408,0.0,0.0,1.7582,1.7582,1.7582,1.7582,1.7582,1.7662,1.7989,0.0,1.8577,1.8898,1.9178,1.9366,1.9366,1.9366,0.0,0.0,0.0,1.9366,1.9366,1.9366,1.9366,1.9366,0.0,0.0,2.0174,2.0234,2.0474,2.1062,2.1109,2.1109,2.1109,2.1109,2.1109,2.1109,2.1109,2.1109,2.1109,2.1109,2.1109,2.1109,2.1109,2.1109,2.1109,2.1109,2.1109,2.1109,2.1109,2.1109,0.0,2.1109,2.1109,2.1109,2.1109,2.1109,2.1109,2.1109,2.1109,2.1109,0.0,0.0,0.0,0.0,0.0,0.0,0.9744,1.0415,1.1162,1.215,1.2305,1.2305,1.2305,1.2412,1.2645,1.3066,0.0,0.0,0.0,0.0,0.0,0.0,0.0,0.0,0.0,0.0,0.0,1.6041,1.6273,0.0,0.0,0.0,0.0,0.0,0.0,1.7989,0.0,0.0,0.0,0.0,0.0,0.0,0.0,0.0,0.0,0.0,0.0,0.0,0.0,0.0,0.0,0.0,1.6313,1.6567,0.0,0.0,1.7582,1.7582,1.7582,1.7582,1.7582,1.7582,1.7582,1.7662,1.7963,0.0,1.8357,1.8824,1.9018,1.9158,1.9332,1.9366,0.0,0.0,0.0,0.0,1.9366,1.9366,1.9366,1.9366,1.9366,0.0,0.0,0.0,2.0474,2.1062,2.1109,2.1109,2.1109,2.1109,2.1109,2.1109,2.1109,2.1109,2.1109,2.1109,2.1109,2.1109,2.1109,2.1109,2.1109,2.1109,2.1109,2.1109,2.1109,2.1109,0.0,2.1109,2.1109,2.1109,2.1109,2.1109,2.1109,2.1109,2.1109,2.1109,0.0,0.0,0.0,0.0,0.0,0.7706,0.8694,0.9739,1.0714,1.1694,1.215,1.2305,1.2305,1.2305,1.2385,1.2599,1.308,0.0,0.0,0.0,0.0,0.0,0.0,0.0,0.0,0.0,1.425,1.4573,1.497,1.5379,0.0,0.0,1.6683,1.637,0.0,0.0,0.0,0.0,0.0,0.0,0.0,0.0,0.0,0.0,0.0,0.0,0.0,0.0,0.0,0.0,0.0,0.0,0.0,0.0,0.0,0.0,1.7515,1.7582,1.7582,1.7582,1.7582,1.7582,1.7582,1.7642,0.0,0.0,1.8163,1.8577,1.8804,1.8985,1.9199,1.9305,1.9366,0.0,0.0,1.9366,1.9366,1.9366,1.9366,1.9366,0.0,1.9486,0.0,2.014,2.0568,2.1069,2.1109,2.1109,2.1109,2.1109,2.1109,2.1109,2.1109,2.1109,2.1109,2.1109,2.1109,2.1109,2.1109,2.1109,2.1109,2.1109,2.1109,2.1109,2.1109,2.1109,0.0,2.1109,2.1109,2.1109,2.1109,2.1109,2.1109,2.1109,2.1109,2.1109,0.0,0.0,0.0,0.0,0.0,0.0,0.7629,0.8694,0.9669,1.0708,1.1694,1.2305,1.2305,1.2305,1.2305,1.2305,1.2585,0.0,0.0,0.0,0.0,0.0,0.0,0.0,0.0,0.0,1.4657,1.5696,1.465,1.465,1.5696,1.5703,1.5137,1.4166,0.0,0.0,0.0,0.0,0.0,0.0,0.0,0.0,0.0,0.0,0.0,0.0,0.0,0.0,0.0,0.0,0.0,0.0,0.0,0.0,0.0,0.0,1.7361,1.7582,1.7582,1.7582,1.7582,1.7582,1.7582,1.7582,0.0,0.0,1.805,1.8056,1.8517,1.8925,1.8925,1.9165,1.9366,0.0,0.0,0.0,1.9366,1.9366,1.9366,0.0,0.0,1.9486,1.9773,2.0327,2.0795,2.1089,2.1109,0.0,2.1109,2.1109,2.1109,2.1109,2.1109,2.1109,2.1109,2.1109,2.1109,2.1109,2.1109,2.1109,2.1109,2.1109,2.1109,2.1109,2.1109,2.1109,0.0,2.1109,2.1109,2.1109,2.1109,2.1109,2.1109,2.1109,2.1109,2.1109,0.0,0.0,0.0,0.0,0.0,0.0,0.0,0.8694,0.9669,1.0634,1.1694,1.2305,1.2305,1.2305,1.2305,1.2305,1.2579,0.0,0.0,0.0,0.0,0.0,0.0,0.0,0.0,0.0,1.425,1.4573,1.425,1.425,1.4573,1.4573,1.4412,1.4088,1.4489,0.0,0.0,0.0,0.0,0.0,0.0,0.0,0.0,0.0,0.0,0.0,0.0,0.0,0.0,0.0,0.0,0.0,0.0,0.0,0.0,0.0,0.0,0.0,1.7582,1.7582,1.7582,1.7582,1.7582,1.7582,1.7582,1.7655,1.7789,1.8003,1.8196,1.845,1.8851,1.8998,1.9132,0.0,0.0,0.0,0.0,0.0,0.0,1.9366,1.9366,1.9559,0.0,0.0,2.0575,2.1069,2.1109,2.1109,2.1109,2.1109,2.1109,2.1109,2.1109,2.1109,2.1109,2.1109,2.1109,2.1109,2.1109,2.1109,2.1109,2.1109,2.1109,2.1109,2.1109,2.1109,2.1109,2.1109,2.1109,2.1109,2.1109,2.1109,2.1109,2.1109,2.1109,2.1109,0.0,0.0,0.0,0.0,0.0,0.0,0.0,0.8084,0.9069,1.0115,1.1093,1.1848,1.2224,1.2305,1.2305,1.2305,1.2472,0.0,0.0,0.0,0.0,0.0,0.0,0.0,0.0,1.4088,1.4088,1.4088,1.4088,1.4088,1.4088,1.4088,1.4088,1.4088,1.4088,0.0,0.0,0.0,0.0,0.0,0.0,0.0,1.4088,0.0,0.0,0.0,0.0,0.0,0.0,0.0,0.0,0.0,0.0,0.0,0.0,0.0,1.6961,1.7442,0.0,1.7582,1.7582,1.7582,1.7582,0.0,0.0,1.7582,1.7635,1.7829,1.7963,1.819,1.8671,1.8851,1.9018,1.9319,0.0,0.0,0.0,0.0,0.0,1.9366,0.0,0.0,0.0,2.0167,2.0428,2.0909,2.1049,2.1109,2.1109,2.1109,2.1109,2.1109,2.1109,2.1109,2.1109,2.1109,2.1109,2.1109,2.1109,2.1109,2.1109,2.1109,2.1109,2.1109,2.1109,2.1109,0.0,2.1109,2.1109,2.1109,2.1109,2.1109,2.1109,2.1109,2.1042,2.0949,0.0,0.0,0.0,0.0,0.0,0.0,0.0,0.7176,0.8161,0.9069,1.0115,1.1168,1.2077,1.2224,1.2305,1.2305,0.0,0.0,0.0,0.0,0.0,0.0,0.0,0.0,0.0,1.4075,1.4088,1.4088,1.4088,1.4088,1.4088,1.4088,1.4088,1.4088,1.4088,1.4088,0.0,0.0,0.0,0.0,0.0,0.0,0.0,0.0,0.0,0.0,0.0,0.0,0.0,0.0,0.0,0.0,0.0,0.0,0.0,0.0,0.0,0.0,0.0,1.7569,1.7582,1.7582,1.7582,0.0,0.0,0.0,0.0,1.7582,1.7809,1.8103,1.8404,1.8698,1.8991,1.9285,0.0,0.0,0.0,1.9366,0.0,0.0,1.9366,0.0,1.9773,2.006,2.0354,2.0655,2.0949,2.1109,2.1109,2.1109,2.1109,2.1109,2.1109,2.1109,2.1109,2.1109,2.1109,2.1109,2.1109,2.1109,2.1109,2.1109,2.1109,0.0,2.1109,2.1109,2.1109,2.1109,2.1109,2.1109,2.1109,2.1096,2.1076,2.1076,2.0895,2.0641,0.0,0.0,0.0,0.0,0.0,0.0,0.0,0.0,0.0,0.0,0.9664,1.0864,1.1162,1.1842,1.2305,0.0,0.0,0.0,0.0,0.0,0.0,0.0,0.0,0.0,0.0,1.3975,1.4088,1.4088,1.4088,1.4088,1.4088,1.4088,1.4088,1.4088,1.4088,1.4088,0.0,0.0,0.0,0.0,0.0,0.0,0.0,0.0,0.0,0.0,1.4088,1.4275,0.0,0.0,0.0,0.0,0.0,0.0,0.0,0.0,1.6526,1.6874,1.7168,0.0,1.7582,1.7582,1.7582,1.7582,0.0,0.0,0.0,0.0,0.0,1.7789,1.8096,1.839,1.8691,0.0,0.0,1.9366,1.9366,1.9366,0.0,1.9366,1.9366,1.9486,1.9773,2.006,2.0354,2.0655,2.0949,2.1109,2.1109,2.1109,2.1109,2.1109,2.1109,2.1109,2.1109,2.1109,2.1109,2.1109,2.1109,2.1109,2.1109,2.1109,2.1109,2.1109,2.1109,2.1109,2.1109,2.1109,2.1109,2.1109,2.1109,2.0969,2.0775,2.0775,2.0588,2.0334,0.0,0.0,0.0,0.0,0.0,0.0,0.0,0.0,0.0,0.0,0.0,0.0,0.0,0.0,0.0,0.0,0.0,0.0,0.0,0.0,0.0,0.0,0.0,0.0,1.3552,1.3801,1.3948,1.4088,1.4088,1.4088,1.4088,1.4088,1.4088,1.4088,1.4088,1.4088,0.0,0.0,0.0,0.0,1.4088,0.0,0.0,0.0,0.0,0.0,1.4088,1.4188,0.0,1.4816,1.507,1.5271,0.0,0.0,0.0,0.0,1.6279,1.6573,1.6867,1.7261,1.7582,1.7582,1.7582,1.7582,1.7582,0.0,0.0,0.0,0.0,1.7675,1.7989,1.829,0.0,0.0,1.9172,0.0,0.0,0.0,1.9366,1.9366,1.9366,1.9432,0.0,1.9867,2.01,2.0261,2.0668,2.0909,2.0909,2.1036,2.1109,2.1109,2.1109,2.1109,2.1109,2.1109,2.1109,2.1109,2.1109,2.1109,2.1109,2.1109,2.1109,2.1109,2.1109,2.1109,2.1096,2.0962,2.0909,2.0895,2.0762,2.0608,2.0474,2.0474,2.0287,2.0034,0.0,0.0,0.0,0.0,0.0,0.0,0.0,0.0,0.0,0.0,0.0,0.0,0.0,0.0,0.0,0.0,0.0,0.0,0.0,0.0,0.0,0.0,0.0,1.3006,1.3567,1.3539,1.3788,1.4088,1.4088,1.4088,1.4088,1.4088,1.4088,1.4088,1.4088,1.4088,0.0,0.0,0.0,0.0,1.4088,0.0,0.0,0.0,0.0,0.0,0.0,0.0,0.0,1.4716,1.493,1.5057,1.5591,0.0,0.0,0.0,0.0,0.0,1.6627,1.7101,1.7528,1.7569,1.7582,1.7582,1.7582,0.0,0.0,0.0,0.0,0.0,0.0,1.8257,0.0,0.0,0.0,0.0,1.9366,1.9366,1.9366,1.9366,1.9366,0.0,1.9366,1.9633,1.98,1.98,2.0301,2.0608,2.0608,2.0842,2.0975,2.0975,2.0975,2.0975,2.0975,2.1062,2.1109,2.1109,2.1109,2.1109,2.1109,2.1062,2.1042,2.1042,0.0,0.0,2.0955,2.0708,2.0608,2.0581,2.0334,2.0201,2.0167,2.0167,1.9987,1.9733,0.0,0.0,0.0,0.0,0.0,0.0,0.0,0.0,0.0,0.0,0.0,0.0,0.0,0.0,0.0,0.0,0.0,0.0,0.0,0.0,0.0,0.0,1.222,1.2913,1.3267,1.3514,1.3788,1.4088,1.4088,1.4088,1.4088,1.4088,1.4088,1.4088,1.4088,1.4088,1.4088,0.0,0.0,0.0,0.0,0.0,0.0,0.0,0.0,0.0,0.0,0.0,0.0,1.4476,1.4756,1.5023,1.5357,0.0,0.0,0.0,0.0,0.0,1.6627,1.6954,1.7275,1.7522,1.7582,1.7582,1.7582,0.0,0.0,0.0,0.0,0.0,0.0,1.811,1.8504,0.0,0.0,1.9366,0.0,0.0,1.9366,1.9366,0.0,1.9366,1.9366,1.9633,1.98,1.98,2.0114,2.0301,2.0301,2.0341,2.0368,2.0368,2.0368,2.0368,2.0368,2.0862,2.1109,2.1109,2.1109,2.1109,2.1102,2.0855,2.0742,2.0728,0.0,2.0368,2.0361,2.0321,2.0301,2.0294,2.0254,2.008,1.9867,1.9867,1.9679,1.9432,0.0,0.0,0.0,0.0,0.0,0.0,0.0,0.0,0.0,0.0,0.0,0.0,0.0,0.0,0.0,0.0,0.0,0.0,0.0,0.0,0.0,1.0783,1.0831,1.126,1.2082,1.2928,1.3554,1.3848,1.4008,1.4088,1.4088,1.4088,1.4088,1.4088,1.4088,1.4088,1.4088,1.4088,0.0,0.0,0.0,0.0,0.0,0.0,0.0,0.0,0.0,0.0,0.0,0.0,1.4716,1.5017,1.5304,0.0,0.0,0.0,0.0,0.0,1.6393,1.6687,1.6981,1.7275,1.7468,1.7582,1.7582,0.0,0.0,0.0,0.0,0.0,0.0,0.0,1.8357,1.8671,0.0,1.9366,1.9366,1.9366,1.9366,0.0,0.0,1.9366,1.9366,1.9486,1.9566,1.9566,1.9833,2.0,2.0,2.0147,2.0234,2.0234,2.0234,2.0234,2.0234,2.0501,2.0635,2.0635,2.0635,2.0635,2.0628,2.0494,2.0434,2.0428,0.0,2.0234,2.0221,2.006,2.0,1.9987,1.9826,1.9686,1.9566,1.9566,1.9486,1.9366,0.0,0.0,0.0,0.0,0.0,0.0,0.0,0.0,0.0,0.0,0.0,0.0,0.0,0.0,0.0,0.0,0.0,0.0,0.0,0.0,1.034,1.011,0.9593,0.9785,1.0795,1.217,1.2939,1.3225,1.3858,1.4088,1.4088,1.4088,1.4088,1.4088,1.4088,1.4088,1.4088,1.4088,1.4088,0.0,0.0,0.0,0.0,0.0,0.0,0.0,0.0,0.0,0.0,0.0,0.0,0.0,0.0,0.0,0.0,1.5832,1.5832,1.5892,1.6192,1.6486,1.6774,1.7074,0.0,1.7582,1.7582,0.0,0.0,0.0,0.0,0.0,0.0,1.7896,0.0,1.8838,1.9172,1.9366,1.9366,1.9366,1.9366,1.9366,1.9366,1.9366,1.9366,1.9366,1.9366,1.9366,1.9573,1.97,1.97,1.9907,2.0034,2.0034,2.0034,2.0034,2.0034,2.0034,2.01,2.0234,2.0234,2.0234,2.0227,2.016,2.0134,2.0127,2.006,2.0034,2.0013,1.9786,1.97,1.9679,1.9452,1.9366,1.9366,1.9366,1.9366,1.9366,0.0,0.0,0.0,0.0,0.0,0.0,0.0,0.0,0.0,0.0,0.0,0.0,0.0,0.0,0.0,0.0,0.0,0.0,0.0,0.0,0.8993,0.8084,0.8841,0.9479,0.9776,1.113,1.1954,1.2212,1.351,1.4088,1.4088,1.4088,1.4088,1.4088,1.4088,1.4088,1.4088,1.4088,1.4088,1.4088,0.0,0.0,0.0,0.0,0.0,0.0,0.0,0.0,0.0,0.0,0.0,0.0,0.0,0.0,1.5832,1.5832,1.5832,1.5892,1.6192,1.6486,1.6774,1.7074,1.7368,0.0,1.7582,1.7582,0.0,0.0,0.0,0.0,0.0,1.8063,1.8564,1.8871,1.9172,1.9366,1.9366,0.0,1.9366,1.9366,1.9366,1.9366,1.9366,1.9366,1.9366,1.9366,1.9386,1.9399,1.9399,1.9419,1.9432,1.9432,1.9432,1.9432,1.9432,1.9432,1.97,2.0234,2.0234,2.0234,2.0221,1.9953,1.9833,1.9813,1.9546,1.9432,1.9432,1.9406,1.9399,1.9399,1.9372,1.9366,1.9366,1.9366,1.9366,1.9366,0.0,0.0,0.0,0.0,0.0,0.0,0.0,0.0,0.0,0.0,0.0,0.0,0.0,0.0,0.0,0.0,0.0,0.0,0.0,0.0,0.8161,0.7783,0.7553,0.7557,0.7732,0.9592,1.0967,1.1891,1.3342,1.4088,1.4088,1.4088,1.4088,1.4088,1.4088,1.4088,1.4088,1.4088,1.4088,1.4088,1.4088,0.0,0.0,0.0,0.0,0.0,0.0,0.0,0.0,0.0,1.4476,1.4963,1.4963,1.5357,1.5832,1.5832,1.5832,1.5852,1.5965,1.6346,1.6734,1.6847,0.0,0.0,0.0,0.0,0.0,0.0,0.0,0.0,0.0,0.0,1.8524,1.8637,1.9058,1.9366,1.9366,1.9366,1.9366,1.9366,1.9366,1.9366,1.9366,1.9366,1.9366,1.9366,1.9366,1.9366,1.9366,1.9366,1.9366,1.9366,1.9366,1.9366,1.9366,1.9366,1.9479,1.9693,1.9693,1.9693,1.9693,1.9579,1.9533,1.9526,1.9412,1.9366,1.9366,1.9366,1.9366,1.9366,1.9366,1.9366,1.9366,1.9366,1.9366,1.9366,0.0,0.0,0.0,0.0,0.0,0.0,0.0,0.0,0.0,0.0,0.0,0.0,0.0,0.0,0.0,0.0,0.0,0.0,0.7326,0.7326,0.7326,0.7326,0.6641,0.6329,0.6468,0.8064,0.9495,1.0713,1.2643,1.3555,1.3555,1.3913,1.4088,1.4088,1.4088,1.4088,1.4088,1.4088,1.4088,1.4088,1.4088,1.4088,0.0,0.0,0.0,0.0,0.0,0.0,0.0,0.0,1.4476,1.4963,1.4963,1.5357,1.5832,1.5832,1.5832,1.5832,1.5832,1.6259,1.6707,0.0,0.0,0.0,0.0,0.0,0.0,0.0,1.7582,0.0,0.0,0.0,0.0,0.0,1.8985,1.9366,1.9366,1.9366,1.9366,1.9366,1.9366,1.9366,1.9366,1.9366,1.9366,1.9366,1.9366,1.9366,1.9366,1.9366,1.9366,1.9366,1.9366,1.9366,1.9366,1.9366,1.9366,1.9366,1.9366,1.9366,1.9366,1.9366,1.9366,1.9366,1.9366,1.9366,1.9366,1.9366,1.9366,1.9366,1.9366,1.9366,1.9366,1.9366,1.9366,1.9366,0.0,0.0,0.0,0.0,0.0,0.0,0.0,0.0,0.0,0.0,0.0,0.0,0.0,0.0,0.0,0.0,0.0,0.0,0.6338,0.6338,0.6338,0.6338,0.6338,0.6329,0.6471,0.6624,0.7355,0.8692,1.1096,1.2322,1.2328,1.3555,1.4088,1.4088,1.4088,1.4088,1.4088,1.4088,1.4088,1.4088,1.4088,1.4088,1.4088,0.0,0.0,0.0,0.0,0.0,0.0,0.0,1.4476,1.4963,1.4963,1.5357,1.5832,1.5832,1.5832,1.5832,1.5832,1.6259,0.0,0.0,0.0,0.0,0.0,0.0,0.0,0.0,0.0,1.7582,1.7582,0.0,0.0,1.849,1.8978,1.9366,1.9366,1.9366,1.9366,1.9366,1.9366,1.9366,1.9366,1.9366,1.9366,1.9366,1.9366,1.9366,1.9366,1.9366,1.9366,1.9366,1.9366,1.9366,1.9366,1.9366,1.9366,1.9366,1.9366,1.9366,1.9366,1.9366,1.9366,1.9366,1.9366,1.9366,1.9366,1.9366,1.9366,1.9366,1.9366,1.9366,1.9366,1.9366,1.9366,1.9366,0.0,0.0,0.0,0.0,0.0,0.0,0.0,0.0,0.0,0.0,0.0,0.0,0.0,0.0,0.0,0.0,0.0,0.0,0.6338,0.6338,0.6338,0.6338,0.6338,0.6376,0.6627,0.6878,0.7631,0.8806,1.1177,1.1895,1.1123,1.2248,1.2851,1.2851,1.2851,1.3294,1.4088,1.4088,1.4088,1.4088,1.4088,1.4088,1.4088,0.0,0.0,0.0,0.0,0.0,0.0,0.0,0.0,0.0,1.4963,1.5357,1.5832,1.5832,1.5832,1.5832,1.5832,1.6259,0.0,1.6707,0.0,0.0,0.0,0.0,0.0,0.0,1.7582,1.7582,1.7582,0.0,0.0,1.8457,1.8811,1.9125,1.9339,1.9366,1.9366,1.9366,1.9366,1.9366,1.9366,1.9366,1.9366,1.9366,1.9366,1.9366,1.9366,1.9366,1.9366,1.9366,1.9366,1.9366,1.9366,1.9366,1.9366,1.9366,1.9366,1.9366,1.9366,1.9366,1.9366,1.9366,1.9366,1.9366,1.9366,1.9366,1.9366,1.9366,1.9366,1.9366,1.9366,1.9366,1.9366,1.9366,0.0,0.0,0.0,0.0,0.0,0.0,0.0,0.0,0.0,0.0,0.0,0.0,0.0,0.0,0.0,0.0,0.0,0.0,0.0,0.6338,0.6338,0.6338,0.6315,0.6485,0.6783,0.7021,0.7489,0.8189,1.0005,1.0611,0.9923,1.1128,1.1901,1.2328,1.2328,1.2942,1.4088,1.4088,1.4088,1.4088,1.4088,1.4088,1.4088,0.0,0.0,0.0,0.0,0.0,0.0,0.0,0.0,0.0,1.4963,0.0,1.5832,1.5832,1.5832,1.5852,1.5972,0.0,0.0,1.6854,1.7235,1.7582,1.7582,0.0,0.0,0.0,0.0,1.7582,1.7582,1.7836,0.0,1.8444,1.8738,1.9025,1.9325,1.9366,1.9366,1.9366,1.9366,1.9366,1.9366,1.9366,1.9366,1.9366,1.9366,1.9366,1.9366,1.9366,1.9366,1.9366,1.9366,1.9366,1.9366,1.9366,1.9366,1.9366,1.9366,1.9366,1.9366,1.9366,1.9366,1.9366,1.9366,1.9366,1.9366,1.9366,1.9366,1.9366,1.9366,1.9366,1.9366,1.9366,1.9366,1.9366,0.0,0.0,0.0,0.0,0.0,0.0,0.0,0.0,0.0,0.0,0.0,0.0,0.0,0.0,0.0,0.0,0.0,0.0,0.0,0.0,0.6338,0.6338,0.641,0.663,0.6922,0.7068,0.7139,0.7139,0.8277,0.8803,0.8803,0.9923,1.1042,1.2157,1.2157,1.2857,1.4088,1.4088,1.4088,1.4088,1.4088,1.4088,1.4088,1.4088,0.0,0.0,0.0,0.0,0.0,0.0,0.0,0.0,1.4997,1.5384,1.5832,1.5832,1.5832,1.5892,1.6192,0.0,0.0,1.7074,1.7368,0.0,1.7582,1.7582,1.7582,1.7582,0.0,1.7582,1.7582,1.7816,1.811,1.8437,1.8711,1.8998,1.9325,1.9366,1.9366,1.9366,1.9366,1.9366,1.9366,1.9366,1.9366,1.9366,1.9366,1.9366,1.9366,1.9366,1.9366,1.9366,1.9366,1.9366,1.9366,1.9366,1.9366,1.9366,1.9366,1.9366,1.9366,1.9366,1.9366,1.9366,1.9366,1.9366,1.9366,1.9366,1.9366,1.9366,1.9366,1.9366,1.9366,1.9366,1.9366,1.9366,0.0,0.0,0.0,0.0,0.0,0.0,0.0,0.0,0.0,0.0,0.0,0.0,0.0,0.0,0.0,0.0,0.0,0.0,0.0,0.0,0.6338,0.6338,0.6512,0.6739,0.6926,0.7068,0.7139,0.7139,0.8277,0.8452,0.7489,0.8711,0.9836,1.095,1.095,1.2169,1.4088,1.4088,1.4088,1.4088,1.4088,1.4088,1.4088,1.4088,1.4088,0.0,0.0,0.0,0.0,0.0,0.0,0.0,1.5231,1.5545,1.5832,1.5832,1.5832,1.5892,1.6192,1.6486,0.0,0.0,1.7368,1.7582,1.7582,1.7582,1.7582,1.7582,1.7582,1.7582,1.7582,1.7635,1.7862,1.8404,1.8544,1.8771,1.9292,1.9366,1.9366,1.9366,1.9366,1.9366,1.9366,1.9366,1.9366,1.9366,1.9366,1.9366,1.9366,1.9366,1.9366,1.9366,1.9366,1.9366,1.9366,1.9366,1.9366,1.9366,1.9366,1.9366,1.9366,1.9366,1.9366,1.9366,1.9366,1.9366,1.9366,1.9366,1.9366,1.9366,1.9366,1.9366,1.9366,1.9366,1.9366,1.9366,0.0,0.0,0.0,0.0,0.0,0.0,0.0,0.0,0.0,0.0,0.0,0.0,0.0,0.0,0.0,0.0,0.0,0.0,0.0,0.0,0.6325,0.6464,0.6688,0.6878,0.7027,0.7102,0.7139,0.7139,0.7753,0.7753,0.7139,0.8368,0.9235,0.984,1.095,1.2077,1.3294,1.3822,1.4088,1.4088,1.4088,1.4088,1.4088,1.4088,1.4088,1.4088,1.4088,0.0,0.0,0.0,0.0,0.0,0.0,0.0,1.5832,1.5832,1.5832,1.5925,1.6359,0.0,0.0,1.7248,0.0,1.7582,1.7582,1.7582,1.7582,1.7582,1.7582,1.7582,1.7582,1.7582,1.7736,1.8203,1.8397,1.8644,1.9092,1.9279,1.9366,1.9366,1.9366,1.9366,1.9366,1.9366,1.9366,1.9366,1.9366,1.9366,1.9366,1.9366,1.9366,1.9366,1.9366,1.9366,1.9366,1.9366,1.9366,1.9366,1.9366,1.9366,1.9366,1.9366,1.9366,1.9359,1.9219,1.9158,1.9145,1.9005,1.8945,1.8945,1.8945,1.8945,1.8945,1.8945,1.8945,1.8945,0.0,0.0,0.0,0.0,0.0,0.0,0.0,0.0,0.0,0.0,0.0,0.0,0.0,0.0,0.0,0.0,0.0,0.0,0.0,0.0,0.0,0.6729,0.6861,0.6997,0.7136,0.7139,0.7139,0.7139,0.7139,0.0,0.0,0.0,0.8715,0.8978,1.1037,1.2151,1.2413,1.3555,1.4088,1.4088,1.4088,1.4088,1.4088,1.4088,1.4122,1.4162,1.4162,1.4349,1.4603,1.4656,0.0,0.0,0.0,0.0,1.5832,1.5832,1.5832,1.5959,1.6547,0.0,1.6974,1.7462,1.7582,0.0,1.7582,1.7582,1.7582,1.7582,1.7582,1.7582,1.7582,1.7582,1.7689,1.7996,1.8257,1.8531,1.8878,1.9132,1.9312,1.9359,1.9366,1.9366,1.9366,1.9366,1.9366,1.9366,1.9366,1.9366,1.9366,1.9366,1.9366,1.9366,1.9366,1.9366,1.9366,1.9366,1.9366,1.9366,1.9319,1.9265,1.9219,1.9219,1.9245,1.9279,1.8978,1.8844,1.8831,1.8591,1.849,1.849,1.849,1.849,1.849,1.849,1.849,1.849,0.0,0.0,0.0,0.0,0.0,0.0,0.0,0.0,0.0,0.0,0.0,0.0,0.0,0.0,0.0,0.0,0.0,0.0,0.6434,0.0,0.0,0.6892,0.6919,0.6997,0.7136,0.7139,0.7139,0.7139,0.0,0.0,0.0,0.0,0.0,0.8978,0.0,1.1381,1.2413,1.3555,1.4088,1.4088,1.4088,1.4088,1.4088,1.4088,1.4242,1.4462,1.4462,1.4656,1.4943,1.519,1.5331,0.0,0.0,0.0,1.5832,1.5832,1.5832,1.5959,0.0,0.0,1.7482,0.0,1.7582,1.7582,0.0,0.0,1.7582,0.0,1.7582,1.7582,1.7582,1.7582,1.7689,1.7996,1.8083,1.8297,1.8844,1.8958,1.9078,1.9339,1.9366,1.9366,1.9366,1.9366,1.9366,1.9366,1.9366,1.9366,1.9366,1.9366,1.9366,1.9366,1.9366,1.9366,1.9366,1.9366,1.9366,1.9366,1.9105,1.8851,1.8611,1.8611,1.8744,1.8965,1.8677,1.8551,1.8544,1.8504,1.849,1.849,1.849,1.849,1.849,1.849,1.849,1.849,0.0,0.0,0.0,0.0,0.0,0.0,0.0,0.0,0.0,0.0,0.0,0.0,0.0,0.0,0.0,0.6338,0.6332,0.6441,0.659,0.6742,0.6858,0.6926,0.7004,0.7078,0.7139,0.7139,0.7139,0.7139,0.0,0.0,0.0,0.7139,0.7404,0.0,0.0,0.0,0.0,1.33,1.4088,1.4088,1.4088,1.4088,1.4108,1.4269,1.4409,0.0,0.0,0.0,1.5224,1.5351,1.5504,1.5658,1.5792,0.0,0.0,0.0,1.5832,0.0,1.6547,1.7134,1.7582,0.0,1.7582,1.7582,1.7582,1.7582,1.7582,1.7582,1.7582,1.7582,1.7582,1.7582,1.7629,1.7762,1.7929,1.813,1.8377,1.8571,1.8791,1.9085,1.9118,1.9185,1.9352,1.9366,1.9366,1.9366,1.9366,1.9366,1.9366,1.9366,1.9366,1.9366,1.9366,1.9285,1.9118,1.9118,1.9038,1.8871,1.8744,1.8611,1.8484,1.8317,1.8404,1.8664,1.837,1.8243,1.823,1.8056,1.7983,1.7983,1.7983,1.7983,1.7983,1.7983,1.7983,1.7983,0.0,0.0,0.0,0.0,0.0,0.0,0.0,0.0,0.0,0.0,0.0,0.0,0.0,0.0,0.0,0.0,0.6447,0.6597,0.6749,0.6898,0.6983,0.6983,0.7085,0.7139,0.7139,0.7139,0.7139,0.0,0.0,0.0,0.7139,0.7404,0.7577,0.0,1.0605,0.0,0.0,0.0,0.0,0.0,1.4088,1.4088,1.4122,0.0,0.0,1.4669,1.497,0.0,0.0,0.0,0.0,1.5832,1.5832,1.5832,0.0,0.0,0.0,0.0,0.0,0.0,1.7488,1.7562,1.7582,1.7582,0.0,0.0,1.7582,0.0,1.7582,1.7582,1.7582,1.7582,1.7582,1.7582,1.7776,1.7949,1.8016,1.823,1.8484,1.8778,1.8818,1.8898,1.9125,1.9145,1.9145,1.9145,1.9145,1.9145,1.9145,1.9145,1.9145,1.9145,1.9145,1.9038,1.8818,1.8818,1.8664,1.8377,1.8377,1.8337,1.825,1.8029,1.805,1.825,1.8023,1.7929,1.7909,1.7675,1.7582,1.7582,1.7582,1.7582,1.7582,1.7582,1.7582,1.7582,0.0,0.0,0.0,0.0,0.0,0.0,0.0,0.0,0.0,0.0,0.0,0.0,0.6338,0.638,0.6461,0.6461,0.66,0.6753,0.6909,0.7051,0.7129,0.7129,0.7136,0.0,0.7139,0.7139,0.0,0.0,0.0,0.0,0.7139,0.8277,0.8803,0.889,1.0096,1.13,1.2328,0.0,0.0,0.0,0.0,0.0,0.0,0.0,0.0,0.0,0.0,0.0,0.0,0.0,0.0,0.0,0.0,0.0,0.0,0.0,0.0,0.0,0.0,1.6934,0.0,1.7515,1.7582,0.0,0.0,0.0,1.7582,1.7582,1.7582,1.7582,1.7582,1.7582,1.7582,1.7582,1.7595,1.7709,1.8003,1.8056,1.8183,1.8477,1.851,1.8517,1.8537,1.8537,1.8537,1.8537,1.8537,1.8537,1.8537,1.8537,1.8537,1.8537,1.8537,1.8531,1.851,1.851,1.8364,1.807,1.807,1.7916,1.7629,1.7615,1.7615,1.7629,1.7615,1.7609,1.7602,1.7589,1.7582,1.7582,1.7582,1.7582,1.7582,1.7582,1.7582,1.7582,0.0,0.0,0.0,0.0,0.0,0.0,0.0,0.0,0.0,0.0,0.0,0.0,0.0,0.6529,0.6617,0.6617,0.6759,0.6909,0.7054,0.7112,0.7139,0.7139,0.7139,0.7139,0.7139,0.7139,0.0,0.0,0.0,0.7139,0.7139,0.7577,0.8536,1.0009,1.1209,1.1895,1.2413,1.3555,0.0,0.0,0.0,0.0,0.0,0.0,0.0,0.0,0.0,0.0,0.0,0.0,0.0,0.0,0.0,0.0,0.0,0.0,0.0,0.0,0.0,0.0,0.0,1.7555,1.7582,1.7582,1.7582,1.7582,1.7582,1.7582,1.7582,1.7582,1.7582,1.7582,1.7582,1.7582,1.7582,1.7622,1.7736,1.7749,1.7862,1.817,1.8203,1.8277,1.847,1.849,1.849,1.849,1.849,1.849,1.849,1.849,1.849,1.849,1.849,1.8397,1.8203,1.8003,1.7856,1.7749,1.7749,1.7689,1.7582,1.7582,1.7582,1.7582,1.7582,1.7582,1.7582,1.7582,1.7582,1.7582,1.7582,1.7582,1.7582,1.7582,1.7582,1.7582,0.0,0.0,0.0,0.0,0.0,0.0,0.0,0.0,0.0,0.0,0.0,0.0,0.0,0.0,0.6797,0.6844,0.6943,0.7041,0.7136,0.7139,0.7139,0.7139,0.7139,0.7139,0.7139,0.0,0.0,0.0,0.0,0.0,0.0,0.7921,0.8877,1.0091,1.2077,1.2942,0.0,0.0,0.0,1.4229,0.0,0.0,1.4608,0.0,0.0,0.0,0.0,0.0,0.0,0.0,0.0,0.0,0.0,0.0,0.0,0.0,0.0,0.0,1.668,0.0,0.0,0.0,1.7582,1.7582,1.7582,1.7582,1.7582,1.7582,1.7582,1.7582,1.7582,1.7582,1.7582,1.7582,1.7582,1.7582,1.7582,1.7582,1.7655,1.7862,1.7889,1.7969,1.817,1.8183,1.8183,1.8183,1.8183,0.0,1.8183,1.8183,1.8183,1.8183,1.8183,1.809,1.7896,1.7689,1.7582,1.7582,1.7582,1.7582,1.7582,1.7582,1.7582,1.7582,1.7582,1.7582,1.7582,1.7582,1.7582,1.7582,1.7582,1.7582,1.7582,1.7582,1.7582,1.7582,0.0,0.0,0.0,0.0,0.0,0.0,0.0,0.0,0.0,0.0,0.0,0.0,0.0,0.0,0.0,0.7129,0.7139,0.7139,0.7139,0.7139,0.7139,0.7139,0.7139,0.7139,0.7139,0.0,0.0,0.0,0.0,0.0,0.0,0.0,0.9923,0.9065,1.2522,1.4082,1.4082,0.0,1.4255,1.4429,0.0,1.3609,1.4817,0.0,0.0,0.0,1.5725,1.5832,0.0,1.5832,0.0,0.0,0.0,0.0,0.0,0.0,0.0,0.0,0.0,0.0,0.0,0.0,0.0,0.0,1.7582,1.7582,1.7582,1.7582,1.7582,1.7582,1.7582,1.7582,1.7582,1.7582,1.7582,1.7582,1.7582,1.7582,1.7582,1.7582,1.7582,1.7582,1.7582,1.7582,1.7582,1.7582,1.7582,1.7582,1.7582,1.7582,1.7582,1.7582,1.7582,1.7582,1.7582,1.7582,1.7582,1.7582,1.7582,1.7582,1.7582,1.7582,1.7582,1.7582,1.7582,1.7582,1.7582,1.7582,1.7582,1.7582,1.7582,1.7582,1.7582,1.7582,1.7477,1.7477,0.0,0.0,0.0,0.0,0.0,0.0,0.0,0.0,0.0,0.0,0.0,0.0,0.0,0.6993,0.7099,0.7136,0.7139,0.7139,0.7139,0.7139,0.7139,0.7139,0.7139,0.7139,0.7139,0.0,0.0,0.0,0.0,0.0,0.0,0.0,0.0,0.0,1.1643,1.2766,1.2857,1.373,0.0,0.0,1.4161,1.3906,0.0,0.0,0.0,0.0,0.0,1.5832,1.5832,0.0,1.5832,1.5832,0.0,0.0,0.0,0.0,0.0,0.0,1.6687,0.0,0.0,0.0,0.0,0.0,1.7582,1.7582,1.7582,1.7582,1.7582,1.7582,1.7582,1.7582,1.7582,1.7582,1.7582,1.7582,1.7582,1.7582,1.7582,1.7582,1.7582,1.7582,1.7582,1.7582,1.7582,0.0,1.7582,1.7582,1.7582,1.7582,1.7582,1.7582,1.7582,1.7582,1.7582,1.7582,1.7582,1.7582,1.7582,1.7582,1.7582,1.7582,1.7582,1.7582,1.7582,1.7582,1.7582,1.7582,1.7582,1.7582,1.7582,1.6935,1.6062,1.6062,1.531,1.4454,0.0,0.0,0.0,0.0,0.0,0.0,0.6685,0.6756,0.0,0.0,0.0,0.0,0.0,0.0,0.7139,0.7139,0.7139,0.7139,0.7139,0.7139,0.7139,0.7139,0.7139,0.7139,0.7139,0.0,0.0,0.0,0.0,0.0,0.0,0.0,0.0,0.0,0.0,0.0,0.0,0.0,0.0,0.0,1.3644,0.0,0.0,1.4045,1.4236,0.0,0.0,0.0,1.5832,1.5832,1.5832,0.0,0.0,0.0,0.0,0.0,0.0,0.0,0.0,0.0,0.0,0.0,0.0,0.0,1.7582,1.7582,1.7582,1.7582,1.7582,1.7582,1.7582,1.7582,1.7582,1.7582,1.7582,1.7582,1.7582,1.7582,1.7582,1.7582,1.7582,1.7582,1.7582,1.7582,1.7582,1.7582,1.7582,1.7582,1.7582,1.7582,1.7582,1.7582,1.7582,1.7582,1.7582,1.7582,1.7582,1.7582,1.7582,1.7582,1.7582,1.7582,1.7582,1.7582,1.7582,1.7259,1.6711,1.6711,1.7041,1.7582,1.7582,1.7041,1.628,1.5636,1.4877,1.4126,0.0,0.0,0.0,0.6722,0.6725,0.6729,0.6746,0.6865,0.6953,0.0,0.0,0.0,0.0,0.0,0.0,0.0,0.7139,0.7139,0.7139,0.7139,0.7139,0.7139,0.7139,0.7139,0.7139,0.7139,0.0,0.0,0.0,0.0,0.0,0.0,0.0,0.0,0.0,0.0,0.0,0.0,0.0,1.4656,1.2554,1.3259,0.0,0.0,1.3596,1.5635,1.573,1.5832,1.5832,1.5832,1.5832,0.0,0.0,0.0,0.0,0.0,1.6273,0.0,0.0,0.0,0.0,0.0,0.0,0.0,1.7582,1.7582,1.7582,1.7582,1.7582,1.7582,1.7582,1.7582,1.7582,1.7582,1.7477,1.7364,1.7582,1.7582,1.7582,1.7582,1.7582,1.7582,1.7582,1.7582,1.7582,1.7582,1.7582,1.7582,1.7582,1.7582,1.7582,1.7582,1.7582,1.7477,1.7364,1.7364,1.7259,1.7147,1.7147,1.7147,1.7147,1.7147,1.7147,1.7147,1.7147,1.6393,1.5204,1.5204,1.5962,1.7147,1.7147,1.7041,1.6717,1.5417,1.477,1.4449,0.6702,0.0,0.0,0.6861,0.6885,0.6922,0.7037,0.7082,0.0,0.0,0.0,0.0,0.0,0.0,0.0,0.0,0.7139,0.7139,0.7139,0.7139,0.7139,0.7139,0.7139,0.7139,0.7139,0.7139,0.7139,0.0,0.0,0.0,0.0,0.0,0.0,0.0,0.0,0.0,0.0,0.0,0.0,1.3698,1.3182,0.0,1.4268,1.368,1.3878,1.4364,1.5439,1.5832,1.5832,1.5832,1.5832,1.5832,0.0,0.0,0.0,1.6119,0.0,0.0,0.0,0.0,0.0,0.0,0.0,0.0,1.7582,1.7582,1.7582,1.7582,1.7582,1.7582,1.7582,1.7582,1.7582,1.7582,1.6605,1.628,1.747,1.7582,1.7582,1.7582,1.7582,1.7582,1.7582,1.7582,1.7582,1.7582,1.7582,1.7582,1.7582,1.7582,1.7582,1.7582,1.7582,1.7041,1.5849,1.5849,1.531,1.4126,1.4126,1.4126,1.4126,1.4126,1.4126,1.4126,1.4126,1.4019,1.3696,1.3696,1.3911,1.4126,1.4126,1.3372,1.2295,1.2077,1.1214,1.0131,0.6919,0.0,0.0,0.7021,0.7034,0.7058,0.7129,0.7139,0.0,0.0,0.0,0.0,0.0,0.0,0.0,0.0,0.0,0.7139,0.7139,0.7139,0.7139,0.7139,0.7139,0.7139,0.7139,0.7139,0.7401,0.8017,0.0,0.0,0.0,0.0,0.0,0.0,0.0,0.0,0.0,0.0,1.4754,1.4359,1.382,0.0,1.3878,1.3878,1.4268,1.4949,1.5534,1.5832,1.5832,1.5832,1.5925,0.0,0.0,1.5932,1.6079,0.0,1.648,1.6774,0.0,0.0,0.0,1.7582,0.0,0.0,0.0,1.7582,1.7582,1.7582,1.7582,1.7582,1.7582,1.7582,1.7582,1.7582,1.6935,1.6717,1.7477,1.6929,1.6823,1.747,1.7582,1.7582,1.7582,1.7582,1.7252,1.6605,1.5855,1.5423,1.5423,1.5423,1.5423,1.5423,1.5423,1.5097,1.4341,1.4341,1.4019,1.3264,1.3264,1.3264,1.3264,1.3264,1.3264,1.3264,1.3264,1.2832,1.2186,1.2186,1.1755,1.1214,1.2729,1.2832,1.2082,1.1324,1.0676,0.9915,0.7139,0.0,0.0,0.7139,0.7139,0.7139,0.7139,0.7139,0.0,0.0,0.0,0.0,0.0,0.0,0.0,0.0,0.0,0.0,0.0,0.7139,0.7139,0.7139,0.7139,0.7139,0.7139,0.7316,0.7841,0.854,0.0,0.0,0.0,0.0,0.0,0.0,0.0,0.0,0.0,0.0,0.0,1.4646,0.0,1.407,1.4262,1.3974,1.4657,1.5832,1.5832,1.5832,1.5832,1.5832,1.6025,1.6233,1.5992,1.6079,0.0,0.0,0.0,0.0,0.0,0.0,0.0,0.0,0.0,1.7582,0.0,0.0,0.0,1.7582,1.7582,1.7582,1.7582,1.7582,1.7549,1.7435,0.0,0.0,0.0,1.6218,0.0,1.747,1.7147,1.6929,1.7147,1.7153,1.6605,1.5097,1.4234,1.3588,1.3264,1.3264,1.3264,1.3264,1.3264,1.3156,1.2832,1.2837,1.2724,1.2403,1.2403,1.2403,1.2403,1.2403,1.2403,1.2403,1.2403,1.1755,1.0676,1.0676,1.0025,0.9158,1.1538,1.2403,1.2295,1.1109,1.0676,1.0457,0.7139,0.7139,0.0,0.0,0.7139,0.7139,0.7139,0.7139,0.0,0.0,0.0,0.0,0.0,0.0,0.0,0.0,0.0,0.0,0.7139,0.0,0.0,0.7139,0.7139,0.7139,0.7139,0.8193,0.8281,0.7316,0.0,0.0,0.0,0.0,0.0,0.0,1.117,0.0,0.0,0.0,1.3125,0.0,1.3476,1.4561,0.0,1.4364,1.4657,1.5832,1.5832,1.5832,1.5832,0.0,1.6025,1.6266,0.0,1.6246,1.6373,1.6901,0.0,0.0,0.0,0.0,0.0,0.0,1.7582,0.0,0.0,0.0,1.7582,1.7582,0.0,1.7582,1.7582,0.0,0.0,0.0,1.6179,1.5897,1.6671,1.5977,1.5956,1.747,1.531,1.4234,1.5524,1.563,1.5097,1.3696,1.4556,1.4663,1.3372,1.3264,1.3264,1.3264,1.3264,1.262,1.1324,1.1324,1.0672,0.9372,0.9372,0.9372,0.9372,0.9372,0.9372,0.9372,0.9372,0.9265,0.9154,0.9154,0.9047,0.8937,0.9265,0.9372,0.9372,0.9265,0.9154,0.9158,0.7139,0.7139,0.0,0.0,0.7139,0.7139,0.7139,0.7139,0.0,0.0,0.0,0.0,0.0,0.0,0.0,0.0,0.0,0.7841,0.0,0.0,0.0,0.7139,0.7139,0.7139,0.7139,0.7577,0.7929,0.8105,0.7929,0.0,0.0,0.0,0.0,0.0,1.0726,0.0,1.3067,0.0,1.3259,0.0,0.0,0.0,0.0,1.4364,1.4657,1.5832,1.5832,1.5832,1.5832,0.0,1.6139,0.0,0.0,0.0,0.0,0.0,0.0,0.0,0.0,0.0,0.0,0.0,0.0,0.0,1.7582,0.0,1.7582,0.0,0.0,0.0,0.0,0.0,0.0,0.0,1.6497,1.6253,0.0,0.0,1.5451,1.7204,0.0,0.0,1.5194,1.4345,1.3336,1.2068,1.2397,1.2061,1.0777,1.0785,1.0785,1.0785,1.0785,1.0457,0.9809,0.9809,0.9435,0.8808,0.8808,0.876,0.8672,0.8672,0.8672,0.8672,0.8672,0.8672,0.8672,0.8672,0.8726,0.8808,0.8808,0.8859,0.894,0.894,0.894,0.894,0.7139,0.0,0.0,0.0,0.0,0.7139,0.7139,0.0,0.0,0.0,0.0,0.0,0.7577,0.8101,0.0,0.0,0.8105,0.8013,0.0,0.0,0.7139,0.0,0.0,0.0,0.7139,0.7749,0.8185,0.8364,0.8444,0.8619,0.0,0.0,0.0,0.0,0.0,1.1768,1.2178,0.0,1.2936,1.2904,1.4178,1.4956,1.5242,1.4657,1.4949,1.5832,1.5832,1.5832,1.5832,1.5832,1.6166,0.0,1.6086,0.0,1.6881,0.0,0.0,0.0,1.7382,0.0,0.0,0.0,0.0,0.0,0.0,0.0,0.0,0.0,0.0,0.0,0.0,0.0,0.0,0.0,0.0,1.6653,0.0,1.5682,0.0,0.0,0.0,0.0,0.0,1.3153,1.2068,1.0513,1.0617,1.0178,0.8804,0.8815,0.8815,0.8815,0.8815,0.8815,0.8815,0.8815,0.8757,0.8648,0.8648,0.8587,0.8482,0.8482,0.8482,0.8482,0.8482,0.8482,0.8482,0.8482,0.8547,0.8648,0.8648,0.8716,0.8825,0.8906,0.894,0.894,0.7139,0.7139,0.0,0.0,0.0,0.0,0.0,0.0,0.0,0.0,0.0,0.0,0.0,0.0,0.0,0.0,0.0,0.7139,0.7139,0.0,0.7139,0.0,0.0,0.7139,0.0,0.9309,0.9396,0.7139,1.0514,1.1037,0.0,0.0,0.0,0.0,0.0,1.3286,1.3315,1.232,1.1258,1.0194,1.1556,1.2813,1.407,0.0,1.573,1.5832,1.5832,0.0,0.0,1.5832,1.6032,0.0,0.0,0.0,0.0,0.0,0.0,0.0,0.0,0.0,0.0,1.7582,0.0,0.0,0.0,0.0,1.7582,0.0,0.0,0.0,0.0,0.0,0.0,0.0,0.0,0.0,0.0,0.0,1.6607,1.672,0.0,0.0,0.0,1.1784,1.1479,0.8808,0.9935,1.0036,0.8601,0.8496,0.8496,0.8496,0.8496,0.8496,0.8496,0.8496,0.8496,0.8489,0.8489,0.8486,0.8482,0.8482,0.8482,0.8482,0.8482,0.8482,0.8482,0.8482,0.8486,0.8489,0.8489,0.8492,0.8533,0.8828,0.894,0.894,0.0,0.0,0.0,0.0,0.0,0.0,0.0,0.7753,0.0,0.0,0.7753,0.0,0.0,0.8017,0.8101,0.0,0.0,0.7929,0.7139,0.7139,0.0,0.0,0.0,0.7139,0.0,0.7834,0.8273,0.8281,0.9492,1.0168,0.0,0.0,0.0,0.0,0.0,1.3014,0.0,0.0,0.0,0.0,0.0,1.398,1.5242,0.0,1.5832,1.5832,1.5832,1.5832,0.0,1.5832,1.6025,1.6239,1.6039,1.6246,1.654,1.6446,1.6553,1.6727,0.0,0.0,1.5997,1.7034,0.0,0.0,0.0,0.0,0.0,0.0,0.0,0.0,0.0,0.0,0.0,0.0,0.0,0.0,0.0,0.0,1.4832,1.4832,0.0,0.0,0.0,0.0,1.0305,0.8577,0.961,0.98,0.858,0.8482,0.8482,0.8482,0.8482,0.8482,0.8482,0.8482,0.8435,0.8343,0.8343,0.8289,0.8191,0.8191,0.8191,0.8191,0.8191,0.8191,0.8191,0.8191,0.8252,0.8343,0.8343,0.8397,0.8496,0.8598,0.8635,0.8652,0.8269,0.0,0.0,0.0,0.0,0.0,0.0,0.0,0.0,0.0,0.8017,0.0,0.7753,0.0,0.8101,0.0,0.8017,0.7955,0.7217,0.717,0.0,0.7221,0.717,0.0,0.0,0.807,0.8718,0.9076,1.0377,1.1373,0.0,0.0,0.0,0.0,0.0,1.3345,1.1945,1.1945,1.0877,0.0,0.0,1.4268,0.0,0.0,1.5832,1.5832,0.0,1.5832,1.5832,1.5832,1.5952,1.6079,1.5885,1.6086,1.6353,1.6172,1.6319,1.6553,1.6553,1.6008,0.0,1.6209,1.5741,0.0,1.638,0.0,1.6581,0.0,0.0,0.0,0.0,0.0,0.0,0.0,0.0,0.0,0.0,1.398,0.0,0.0,0.0,0.0,0.0,1.0666,0.9621,0.8419,0.9037,0.912,0.8319,0.8323,0.8323,0.8323,0.8323,0.8323,0.8323,0.8323,0.8279,0.8187,0.8187,0.8136,0.8038,0.8038,0.8038,0.8038,0.8048,0.7952,0.7952,0.7955,0.8116,0.8204,0.8204,0.8262,0.8357,0.8459,0.8499,0.852,0.0,0.0,0.0,0.0,0.8189,0.0,0.0,0.0,0.8978,0.0,0.7929,0.7665,0.8803,0.7925,0.7757,0.8903,0.794,0.7307,0.7461,0.7244,0.0,0.0,0.7241,0.7163,0.7163,0.0,0.0,0.0,1.3093,0.0,0.0,0.0,0.0,0.0,1.5705,0.0,1.1945,1.1945,1.0485,0.8432,1.097,1.3499,1.5832,1.5832,1.5832,1.5832,1.5832,1.5832,1.5832,1.5832,1.5832,1.5832,1.5832,1.5832,1.5832,1.5832,1.6032,1.6246,1.6246,1.6348,1.6153,1.4933,1.4624,0.0,0.0,0.0,1.4743,0.0,0.0,0.0,0.0,0.0,0.0,0.0,0.0,0.0,0.0,0.0,1.1848,0.0,1.175,0.0,0.0,0.9903,0.941,0.8137,0.8038,0.8038,0.0,0.8038,0.8038,0.8038,0.8038,0.8038,0.8041,0.8038,0.8038,0.8041,0.8041,0.8041,0.8041,0.8041,0.8041,0.8041,0.7965,0.7972,0.7769,0.7779,0.7785,0.7785,0.7785,0.7885,0.8022,0.829,0.8292,0.8312,1.0524,1.0351,1.0091,0.0,0.9918,1.0183,0.0,0.0,0.0,0.0,0.9401,0.9488,0.8978,0.9405,0.9892,1.049,0.9348,0.0,0.0,0.0,0.0,0.7539,0.7502,0.7482,0.7482,0.9066,1.0182,1.0832,0.0,0.0,1.4812,0.0,0.0,0.0,0.0,0.0,1.1945,1.1945,1.1556,1.1068,1.2716,1.4364,1.5832,0.0,1.5832,1.5832,1.5832,1.5832,1.5832,1.5832,1.5832,1.5832,1.5832,1.5832,1.5832,1.5832,1.5885,1.5747,1.4762,1.3831,1.3144,1.302,1.2254,1.1793,0.0,0.0,0.0,0.0,0.0,0.0,0.0,0.0,0.0,0.0,0.0,0.0,0.0,0.0,0.0,1.0485,0.0,0.0,0.9899,0.9118,0.8333,0.8038,0.8038,0.8038,0.8038,0.8038,0.8038,0.8038,0.8038,0.8048,0.7965,0.8048,0.7952,0.7975,0.7969,0.7969,0.7975,0.7975,0.7975,0.7975,0.7982,0.6856,0.5024,0.5027,0.5027,0.5027,0.5027,0.6255,0.7815,0.5903,0.52,0.5112,1.1997,0.0,0.0,1.2313,0.0,0.0,1.1381,1.1473,0.0,1.067,1.0838,0.0,1.0107,1.0632,1.1038,1.1256,1.0543,0.0,1.0473,0.0,0.0,0.8532,0.8464,0.8149,0.76,0.9516,0.0,1.1517,0.0,0.0,1.5585,0.0,0.0,0.0,0.0,1.4657,1.2721,1.2139,1.2237,1.2813,1.3584,1.4657,0.0,1.5832,1.5832,1.5832,1.5832,1.5832,1.5832,1.5832,1.5832,1.5832,1.5832,1.5832,1.5832,1.5832,1.5832,1.5534,1.4268,1.3397,1.2554,1.1608,1.0748,1.0475,1.1391,1.1616,1.1482,0.0,1.134,1.1109,0.0,0.0,0.0,0.0,0.0,0.0,0.0,0.0,0.0,0.0,0.8366,0.0,0.8898,0.8354,0.8011,0.7943,0.8001,0.8045,0.7952,0.7955,0.7955,0.7962,0.7962,0.7969,0.7979,0.6839,0.6842,0.7989,0.6853,0.6242,0.6247,0.6247,0.6247,0.6348,0.7485,0.7181,0.5546,0.3221,0.2213,0.2414,0.3525,0.5663,0.7831,0.6274,0.4234,0.2217,1.3959,0.0,0.0,0.0,0.0,0.0,0.0,1.2766,0.0,1.2857,0.0,1.1731,1.1731,1.1822,1.1925,1.2048,0.0,1.178,1.2015,1.0623,0.9857,1.0031,0.987,0.923,0.7935,1.0428,1.1747,0.0,0.0,0.0,0.0,0.0,0.0,0.0,0.0,0.0,0.0,1.2619,1.2813,1.3878,1.407,1.4848,1.5832,1.5832,1.5832,1.5832,1.5832,1.5832,1.5832,1.5832,1.5832,1.5832,1.5832,1.5832,1.5832,1.5832,1.5635,1.5242,1.3974,1.3488,1.2807,1.0386,0.9706,0.9706,0.9706,0.9706,0.9706,0.9706,0.9706,0.941,0.8237,0.0,0.0,0.0,0.0,0.0,0.0,0.0,0.0,0.0,0.0,0.0,0.7573,0.7821,0.7926,0.7794,0.7906,0.8001,0.7942,0.0,0.7852,0.7475,0.7475,0.7682,0.7995,0.5331,0.5029,0.6968,0.5334,0.4121,0.3515,0.3515,0.3515,0.3616,0.5964,0.6997,0.6586,0.1918,0.0,0.0202,0.2528,0.4867,0.692,0.692,0.405,0.0,1.4309,0.0,0.0,0.0,0.0,1.481,1.453,1.3547,1.2886,1.3111,1.3001,1.2933,1.2933,1.3761,1.4495,1.4727,1.3704,0.0,0.0,0.0,0.0,1.1497,1.1463,1.0863,0.9612,1.1094,1.1884,0.0,0.0,0.0,0.0,0.0,0.0,0.0,0.0,0.0,1.3872,1.3686,0.0,1.3974,1.5045,1.5629,1.5832,1.5832,1.5832,1.5832,1.5832,1.5832,1.5832,1.5832,1.5832,1.5832,1.5832,1.5832,1.5832,1.5832,1.5051,1.3974,1.2624,1.1458,1.0288,0.8726,0.8333,0.8333,0.8333,0.8333,0.8333,0.8333,0.8333,0.8233,0.8038,0.0,0.0,0.0,0.0,0.0,0.0,0.0,0.0,0.0,0.0,0.7678,0.0,0.7573,0.7665,0.7638,0.7662,0.7736,0.7778,0.0,0.6839,0.0,0.4722,0.5744,0.0,0.0,0.3116,0.1412,0.5459,0.4949,0.0706,0.0706,0.0706,0.0706,0.1211,0.1414,0.1313,0.0404,0.0,0.0,0.0505,0.101,0.1415,0.1415,0.0808,0.0,0.0,0.0,0.0,0.0,0.0,0.0,0.0,1.4689,1.4185,1.433,1.4469,1.4558,1.4558,1.5034,1.5471,1.5611,1.5036,1.471,1.4841,1.3686,1.2909,1.2909,1.2909,1.2037,0.9998,1.194,1.2624,1.1945,0.0,0.0,0.0,0.0,0.0,0.0,0.0,1.5439,0.0,0.0,0.0,1.4949,1.5534,1.5832,1.5832,1.5832,1.5832,1.5832,1.5832,1.5832,1.5832,1.5832,1.5832,1.5832,1.5832,1.5832,1.5832,1.5832,1.4854,1.359,1.2237,1.0974,0.9706,0.8333,0.8038,0.8038,0.8038,0.8038,0.8038,0.8038,0.8038,0.8038,0.8038,0.8531,0.0,0.0,0.0,0.0,0.0,0.0,0.7784,0.0,0.0,0.0,0.0,0.0,0.0,0.0,0.0,0.7723,0.7875,0.0,0.6038,0.0,0.0,0.0,0.384,0.0,0.131,0.0,0.2625,0.2524,0.0,0.0,0.0,0.0,0.0,0.0,0.0,0.0,0.0,0.0,0.0,0.0,0.0,0.0,0.0,0.0,0.0,1.5104,0.0,0.0,1.5297,1.5304,1.5758,1.5631,1.5491,1.5491,1.5691,1.5832,1.5832,1.5832,1.5832,1.5832,1.5832,1.5832,1.5832,1.4854,1.4262,1.4262,1.4262,1.3199,1.0872,1.2813,1.3199,0.0,0.0,0.0,0.0,0.0,0.0,0.0,0.0,0.0,0.0,0.0,1.5832,1.5832,1.5832,1.5832,1.5832,1.5832,1.5832,1.5832,1.5832,1.5832,1.5832,1.5832,1.5832,1.5832,1.5832,1.5832,1.5832,1.5832,1.4854,1.359,1.2237,1.0974,0.9706,0.8333,0.8038,0.8038,0.8038,0.8038,0.8038,0.8038,0.8038,0.8038,0.8038,0.8038,0.0,0.0,0.0,0.0,0.0,0.0,0.0,0.0,0.0,0.0,0.6373,0.6815,0.7198,0.0,0.0,0.0,0.7766,0.0,0.0,0.0,0.0,0.0,0.0,0.0,0.0,0.0,0.0,0.0,0.0,0.0,0.0,0.0,0.0,0.0,0.0,0.0,0.0,-0.0101,-0.1212,-0.1716,-0.1615,-0.111,-0.0806,-0.0806,0.0,0.0,0.0,0.0,0.0,1.5765,1.5818,1.5805,1.5792,1.5792,1.5812,1.5832,1.5832,1.5832,1.5832,1.5832,1.5832,1.5832,1.5832,1.573,1.5635,1.5635,1.5635,1.4949,1.3584,1.3776,1.3199,0.0,0.0,1.385,0.0,0.0,0.0,0.0,0.0,0.0,0.0,1.5337,1.5832,1.5832,1.5832,1.5832,1.5832,1.5832,1.5832,1.5832,1.5832,1.5832,1.5832,1.5832,1.5832,1.5832,1.5832,1.5832,1.5832,1.5832,1.4854,1.359,1.2237,1.0974,0.9706,0.8333,0.8038,0.8038,0.8038,0.8038,0.8038,0.8038,0.8038,0.8038,0.8038,0.8038,0.8038,0.0,0.0,0.0,0.0,0.0,0.7078,0.4644,0.0,0.0,0.3937,0.5824,0.7085,0.7171,0.7128,0.0,0.0,0.0,0.0,0.0192,0.0,0.0,0.0,0.0,0.0,0.0,0.0,0.0,0.0,0.0,0.0,0.0,0.0,0.0,0.0,0.0,0.0,-0.0505,-0.5363,-0.7202,-0.6992,-0.4529,-0.3615,-0.3615,0.0,0.0,0.0,0.0,0.0,0.0,0.0,1.5832,1.5832,1.5832,1.5832,1.5832,1.5832,1.5832,1.5832,1.5832,1.5832,1.5832,1.5832,1.5832,1.5832,1.5832,1.5832,1.5242,1.3974,1.4657,1.437,0.0,0.0,0.0,0.0,0.0,0.0,0.0,0.0,1.359,1.3974,1.4459,1.514,1.5832,1.5832,1.5832,1.5832,1.5832,1.5832,1.5832,1.5832,1.5832,1.5832,1.5832,1.5832,1.5832,1.5832,1.5832,1.5832,1.5832,1.437,1.2624,1.2042,1.0386,0.8627,0.8137,0.8038,0.8038,0.8038,0.8038,0.8038,0.8038,0.8038,0.8038,0.8038,0.8038,0.8045,0.7959,0.0,0.0,0.0,0.0,0.0,0.6522,0.0,0.2105,0.3497,0.5749,0.7062,0.7128,0.0,0.0,0.0,0.0,0.0,0.0095,0.0,0.0,0.0,0.0,0.0,0.0,0.0,0.0,0.0,0.0,0.0,-0.0199,-0.3417,-0.4752,-0.4649,-0.3021,-0.2413,-0.2615,-0.4734,-0.6564,-0.7899,-0.6762,-0.645,-0.6448,1.5832,0.0,1.5832,0.0,1.5832,1.5832,1.5832,1.5832,1.5832,1.5832,1.5832,1.5832,1.5832,1.5832,1.5832,1.5832,1.5832,1.5832,1.5832,1.5832,1.5832,1.5832,1.5439,0.0,1.3872,1.4752,1.4459,1.2711,1.4459,0.0,0.0,0.0,0.0,0.0,1.1945,1.2624,1.3878,1.3878,1.4657,1.5832,1.5832,1.5832,1.5832,1.5832,1.5832,1.5832,1.5832,1.5832,1.5832,1.5832,1.5832,1.5832,1.5832,1.5832,1.573,1.5343,1.3884,1.2334,1.1556,0.9998,0.8531,0.8137,0.8038,0.8038,0.8038,0.8038,0.8038,0.8038,0.8038,0.8038,0.8038,0.8045,0.8041,0.8011,0.0,0.0,0.0,0.5446,0.0,0.5634,0.2295,0.0638,0.2335,0.4043,0.5589,0.6966,0.0,0.0,0.0,0.0,0.0,0.0,0.0,0.0,0.0,0.0,0.0,0.0,0.0,-0.0763,-0.2099,-0.2098,-0.1728,-0.1264,-0.5038,-0.7177,-0.7786,-0.5887,-0.5189,-0.5191,-0.5216,-0.6345,-0.7985,-0.7979,-0.7975,-0.7975,1.5832,1.5832,1.5832,1.5832,1.5832,1.5832,1.5832,1.5832,1.5832,1.5832,1.5832,1.5832,1.5832,1.5832,1.5832,1.5832,1.5832,1.5832,1.5832,1.5832,1.5832,0.0,0.0,1.3878,1.3878,1.3878,1.2614,1.0096,0.0,0.0,0.9627,0.0,1.1627,1.1945,1.1945,1.2624,1.3878,1.3878,1.4657,1.5832,1.5832,1.5832,1.5832,1.5832,1.5832,1.5832,1.5832,1.5832,1.5832,1.5832,1.5832,1.5832,1.5832,1.5832,1.554,1.4268,1.3878,1.3295,1.0676,0.9998,0.9706,0.8333,0.8038,0.8038,0.8038,0.8038,0.8038,0.8038,0.8038,0.8038,0.8038,0.7959,0.8024,0.7976,0.0,0.0,0.0,0.3429,0.0,0.009,0.0,0.0,0.0,0.009,0.0,0.0,0.0,0.0,0.0,0.0,0.0,0.0,0.0,0.0,0.0,0.0,0.0,0.0,0.0,-0.2481,-0.7019,-0.7009,-0.5731,-0.3514,-0.3608,-0.514,-0.7668,-0.7824,-0.7983,-0.7997,-0.7925,-0.7972,-0.7972,-0.8048,-0.8038,-0.8038,1.5832,1.5832,1.5832,1.5832,1.5832,1.5832,1.5832,1.5832,1.5832,1.5832,1.5832,1.5832,1.5832,1.5832,1.5832,0.0,1.5832,1.5832,0.0,1.5832,1.5832,1.5832,1.4561,1.3878,1.3878,1.3006,1.2139,1.1268,0.0,0.0,0.0,1.0294,1.0036,0.9213,0.9213,0.9993,1.1258,1.2139,1.3301,1.4561,1.5439,1.5832,1.5832,1.5832,1.5832,1.5832,1.5832,1.5832,1.5832,1.5832,1.5832,1.5635,1.4752,1.4459,1.4459,1.3974,1.2619,1.1068,1.0194,0.9316,0.8531,0.8137,0.8038,0.8038,0.8038,0.8038,0.8038,0.8038,0.8038,0.8045,0.7959,0.7987,0.8014,0.799,0.802,0.0,0.3061,0.0,0.0,0.0,0.0,0.0,0.0,0.0,0.0,0.0,0.0,0.0,0.0,0.0,0.0,0.0,-0.3145,0.0,-0.486,-0.3246,-0.2436,-0.2436,-0.2453,-0.3284,-0.4756,-0.6325,-0.6737,-0.598,-0.6145,-0.6658,-0.7439,-0.7672,-0.7692,-0.7706,-0.7841,-0.7896,-0.7906,-0.8004,-0.8038,-0.8038,1.5832,1.5832,1.5832,1.5832,1.5832,1.5832,1.5832,1.5832,1.5832,1.5832,1.5832,1.5832,1.5832,1.5832,0.0,1.5832,1.5832,1.5832,1.5832,1.5832,1.5832,1.5832,1.4076,1.3108,1.3108,1.1843,0.0,1.0485,1.0485,0.9998,0.9217,0.9217,0.9118,0.8726,0.8233,0.9019,1.0779,1.1556,1.2624,1.3974,1.5337,1.5832,1.5832,1.5832,1.5832,1.5832,1.5832,1.5832,1.573,1.5242,1.5051,1.4854,1.359,1.2813,1.242,1.242,1.1258,0.9899,0.941,0.8627,0.8038,0.8038,0.8038,0.8038,0.8038,0.8038,0.8041,0.8048,0.8007,0.7977,0.7997,0.7986,0.7976,0.8034,0.633,0.3789,0.0458,0.0,0.0,0.0,0.0,0.0,0.0,0.0,-0.0719,0.0,0.0,0.0,0.0,0.0,-0.2244,-0.1344,-0.4216,-0.6207,-0.7121,-0.5649,-0.4919,-0.4919,-0.4919,-0.4919,-0.5006,-0.6454,-0.7138,-0.7134,-0.7217,-0.725,-0.7254,-0.7492,-0.7512,-0.7529,-0.7675,-0.7733,-0.775,-0.7899,-0.7953,-0.7963,1.5832,1.5832,1.5832,1.5832,1.5832,1.5832,1.5832,1.5832,1.5832,1.5832,1.5832,1.5832,1.5832,1.5832,1.5832,1.5832,0.0,0.0,1.5832,1.5832,1.5832,1.5832,1.3307,1.1945,1.1945,1.0583,0.9217,0.8038,0.8038,0.8038,0.8038,0.8038,0.8627,0.9805,0.8627,0.941,1.1653,1.1945,1.2619,1.3776,1.5242,1.573,1.5635,1.5737,1.573,1.5635,1.5635,1.5635,1.5343,1.4172,1.3776,1.3488,1.2237,1.0974,0.9998,0.9998,0.9899,0.9608,0.8333,0.8038,0.8038,0.8038,0.8038,0.8038,0.8038,0.8038,0.8041,0.7955,0.8045,0.7952,0.7966,0.7959,0.7918,0.7485,0.3238,0.0,0.0,0.0,0.0,0.0,0.0,0.0,0.0,-0.027,-0.2335,0.0,0.0,0.0,0.0,0.0,-0.6114,-0.3929,-0.3838,-0.4917,-0.7101,-0.7098,-0.7098,-0.7098,-0.7098,-0.7094,-0.7084,-0.7084,-0.7071,-0.7139,-0.7139,-0.7139,-0.7149,-0.7295,-0.7356,-0.737,-0.7522,-0.7584,-0.76,-0.7743,-0.7801,-0.7831,0.0,0.0,1.5832,1.5832,1.5832,1.5832,1.5832,1.5832,1.5832,1.5832,1.5832,1.5832,1.5832,1.5832,1.5832,1.5832,1.5832,1.5832,1.5832,1.5832,1.5832,1.5832,1.3307,1.1945,1.1945,0.9604,0.8333,0.8038,0.8038,0.8038,0.8038,0.8038,0.8137,0.8528,0.9217,0.9312,0.9114,1.2129,1.2425,1.1161,1.4465,1.5242,1.4459,1.5439,1.5242,1.4364,1.4364,1.3686,1.2818,1.2528,1.2334,1.2139,1.0877,1.0194,0.9998,0.9998,0.9312,0.8432,0.8038,0.8038,0.8038,0.8038,0.8038,0.8038,0.8038,0.8038,0.8014,0.8021,0.7973,0.8021,0.8044,0.8001,0.6647,0.2593,0.0822,0.0,0.0,0.0,0.0,0.0,0.0,0.0,0.0,-0.3326,-0.5858,0.0,0.0,-0.6831,-0.6269,-0.6818,-0.6824,-0.6281,-0.6272,-0.6542,-0.7088,-0.7071,-0.7064,-0.7064,-0.7064,-0.7061,-0.7061,-0.7061,-0.7058,-0.7139,-0.7139,-0.7139,-0.7143,-0.718,-0.7193,-0.721,-0.7366,-0.7424,-0.7444,-0.7594,-0.7719,-0.7818,1.5832,1.5832,1.5832,1.5832,1.5832,1.5832,1.5832,1.5832,1.5832,1.5832,1.5832,1.5832,1.5832,1.5832,1.5832,1.5832,1.5832,1.5832,1.5832,1.5242,1.4949,1.4949,1.2431,1.1072,1.1072,0.9019,0.8038,0.8038,0.8038,0.8038,0.8038,0.8038,0.8333,0.892,0.9706,0.9899,0.9993,1.2711,1.3102,1.2037,1.4758,1.5439,1.4848,1.5534,1.5337,1.4657,1.407,1.3392,1.2619,1.1458,1.1072,1.0779,0.9509,0.9118,0.9118,0.9118,0.8531,0.8038,0.8038,0.8038,0.8038,0.8038,0.8038,0.8024,0.7967,0.7953,0.8021,0.7997,0.8013,0.7263,0.4817,0.4358,0.3383,0.0457,0.0,0.0,0.0,0.0,0.0,0.0,-0.1887,-0.3235,-0.3235,-0.458,-0.593,-0.7022,-0.7101,0.0,-0.7071,-0.7071,-0.7074,-0.7078,-0.7074,-0.7071,-0.7071,-0.7058,-0.7139,-0.7139,-0.7139,-0.7139,-0.7139,-0.7139,-0.7139,-0.7139,-0.7139,-0.7139,-0.7139,-0.7139,-0.7139,-0.7149,-0.7234,-0.7265,-0.7285,-0.7438,-0.7543,-0.7621,1.5832,1.5832,1.5832,1.5832,1.5832,1.5832,1.5832,1.5832,1.5832,1.5832,1.5832,1.5832,1.5832,1.5832,1.5832,1.5832,1.5635,1.5629,1.5825,1.4657,1.3878,1.3878,1.1356,0.9998,0.9998,0.8726,0.8137,0.8333,0.8137,0.8137,0.8336,0.8137,0.8726,0.9998,0.9998,1.0583,1.175,1.3295,1.368,1.3488,1.5146,1.5635,1.5534,1.5534,1.5439,1.5051,1.3782,1.3199,1.2711,1.048,0.9706,0.9509,0.8333,0.8024,0.8004,0.8004,0.7991,0.7984,0.8028,0.8021,0.8004,0.8004,0.7991,0.7946,0.7938,0.7617,0.7488,0.7872,0.8031,0.6319,0.1014,0.0,0.0,0.0,0.0,0.0,0.0,0.0,-0.1078,-0.1078,-0.4314,-0.6675,-0.7042,-0.529,-0.4914,-0.6992,-0.7081,-0.7071,-0.7143,-0.7139,-0.7139,-0.7139,-0.7139,-0.7139,-0.7139,-0.7139,-0.7139,-0.7139,-0.7139,-0.7139,-0.7139,-0.7139,-0.7139,-0.7139,-0.7139,-0.7139,-0.7139,-0.7139,-0.7139,-0.7139,-0.7139,-0.7139,-0.7156,-0.7288,-0.7353,-0.739,1.5832,1.5832,1.5832,1.5832,1.5832,1.5832,1.5832,1.5832,1.5832,1.5832,1.5832,1.5832,1.5832,1.5832,1.5832,1.5832,1.4854,1.4657,1.573,1.4657,1.3878,1.3878,1.1356,0.9998,0.9998,0.8726,0.8528,0.9706,0.8528,0.863,0.9706,0.8531,0.8726,0.9998,0.9998,1.0096,1.0485,1.2904,1.2614,1.0872,1.437,1.5146,1.4166,1.4166,1.3494,1.2334,1.1068,0.9895,0.8821,0.8428,0.8333,0.8233,0.8038,0.795,0.7845,0.7845,0.776,0.7723,0.7974,0.7943,0.7845,0.7845,0.7763,0.7773,0.7756,0.6113,0.523,0.7519,0.7955,0.6385,0.0996,0.0,0.0,0.0,0.0,0.0,0.0,0.0,-0.6039,-0.6039,-0.4933,-0.4924,-0.6923,-0.6732,-0.6719,-0.7084,-0.7068,-0.7143,-0.7139,-0.7139,-0.7139,-0.7139,-0.7139,-0.7139,-0.7139,-0.7139,-0.7139,-0.7139,-0.7139,-0.7139,-0.7139,-0.7139,-0.7139,-0.7139,-0.7139,-0.7139,-0.7139,-0.7139,-0.7139,-0.7139,-0.7139,-0.7139,-0.7143,-0.7166,-0.7258,-0.7373,1.5832,1.5832,1.5832,1.5832,1.5832,1.5832,1.5832,1.5832,1.5832,1.5832,1.5832,1.5832,1.5832,1.5832,1.5832,1.5832,1.4657,1.4166,1.4752,1.2909,1.1843,1.1843,0.9993,0.892,0.892,0.9019,0.9019,0.892,0.9019,0.9019,0.892,0.8333,0.8726,0.9998,0.9998,1.0391,1.1072,1.2328,1.2139,1.117,1.3011,1.3307,1.2813,1.2813,1.2431,1.1736,1.0365,0.9462,0.887,0.8018,0.7801,0.7801,0.7801,0.7753,0.7695,0.7695,0.7651,0.7631,0.7767,0.7756,0.7709,0.7709,0.7672,0.7715,0.7837,0.6963,0.5701,0.403,0.365,0.2909,0.045,0.0,0.0,0.0,0.0,-0.0898,-0.3506,-0.5679,-0.7131,-0.7118,-0.61,-0.5908,-0.7002,-0.7078,-0.7068,-0.7068,-0.7058,-0.7139,-0.7139,-0.7139,-0.7139,-0.7139,-0.7139,-0.7139,-0.7139,-0.7139,-0.7139,-0.7139,-0.7139,-0.7139,-0.7139,-0.7139,-0.7139,-0.7139,-0.7139,-0.7139,-0.7139,-0.7139,-0.7139,-0.7139,-0.7139,-0.7139,-0.7139,-0.7139,-0.7183,-0.7248,1.486,1.486,1.4956,1.5337,1.5146,1.5051,1.573,1.554,1.5439,1.573,1.5832,1.573,1.5439,1.5343,1.5242,1.4956,1.3686,1.3006,1.3006,1.0774,0.9706,0.9998,0.8726,0.8038,0.8038,0.9019,0.9217,0.8432,0.9217,0.9217,0.8432,0.8137,0.8726,0.9998,0.9706,1.0293,1.1458,1.1405,1.1385,1.1477,1.1717,1.1793,1.1788,1.15,1.1308,1.1192,0.9797,0.9275,0.9163,0.8008,0.76,0.76,0.76,0.7577,0.7546,0.7546,0.7526,0.7516,0.7587,0.7587,0.7473,0.6992,0.7176,0.7529,0.7714,0.6939,0.4956,0.0811,0.0,0.0,0.0,0.0,-0.0359,-0.1438,0.0,-0.2694,-0.5849,-0.6758,-0.7118,-0.7101,-0.7084,-0.7078,-0.7078,-0.7061,-0.7139,-0.7139,-0.7139,-0.7139,-0.7139,-0.7139,-0.7139,-0.7139,-0.7139,-0.7139,-0.7139,-0.7139,-0.7139,-0.7139,-0.7139,-0.7139,-0.7139,-0.7139,-0.7139,-0.7139,-0.7139,-0.7228,-0.7489,-0.7489,-0.7489,-0.7489,-0.7489,-0.7316,-0.7139,-0.7139,-0.7139,-0.7139,1.2237,1.2237,1.2624,1.3782,1.3006,1.3011,1.5439,1.4752,1.4459,1.5635,1.5832,1.5343,1.4166,1.407,1.3584,1.2334,1.0974,1.0288,1.0288,0.892,0.8726,0.9899,0.8726,0.8038,0.8038,0.8137,0.8726,0.9903,0.8726,0.8726,0.9801,0.8627,0.8726,0.9899,0.8726,0.8924,1.0083,1.0,0.9927,1.0005,1.1125,1.1502,1.141,1.0116,0.9651,0.9469,0.8265,0.7802,0.7708,0.7604,0.76,0.76,0.76,0.7502,0.739,0.739,0.7302,0.7178,0.7636,0.7522,0.6948,0.4804,0.5671,0.7165,0.7158,0.3785,0.045,0.009,0.0,0.0,0.0,0.0,-0.1438,-0.5858,0.0,0.0,-0.4111,-0.5727,-0.7088,-0.7088,-0.7068,-0.7143,-0.7143,-0.7143,-0.7139,-0.7139,-0.7139,-0.7139,-0.7139,-0.7139,-0.7139,-0.7139,-0.7139,-0.7139,-0.7139,-0.7139,-0.7139,-0.7139,-0.7139,-0.7139,-0.7139,-0.7139,-0.7139,-0.7139,-0.7139,-0.7753,-0.8803,-0.8803,-0.8803,-0.8803,-0.8803,-0.8101,-0.7139,-0.7139,-0.7139,-0.7139,1.1945,1.1945,1.2042,1.2528,1.2237,1.2237,1.3204,1.3011,1.2818,1.3307,1.3397,1.3204,1.2721,1.2619,1.2425,1.1945,1.0779,0.9998,0.9998,0.8726,0.8233,0.8726,0.8233,0.8038,0.8038,0.8825,0.9118,0.8726,0.9118,0.9118,0.8722,0.8136,0.8188,0.8567,0.7997,0.8051,0.8519,0.8456,0.843,0.8521,0.8917,0.9072,0.8983,0.8516,0.8333,0.8228,0.7674,0.7458,0.7444,0.7346,0.7316,0.7316,0.7316,0.7285,0.7251,0.7258,0.6126,0.5295,0.6875,0.7245,0.7018,0.6096,0.4336,0.2695,0.2695,0.1257,0.0,0.0,0.0,0.0,0.0,-0.2425,-0.4952,-0.677,0.0,-0.6834,-0.5908,-0.6542,-0.7081,-0.7068,-0.7058,-0.7139,-0.7139,-0.7139,-0.7139,-0.7139,-0.7139,-0.7139,-0.7139,-0.7841,-0.8189,-0.8189,-0.8882,-0.8532,-0.7139,-0.7841,-0.7841,-0.7139,-0.8619,-0.8882,-0.8277,-0.8969,-0.9309,-0.9309,-0.9309,-0.957,-0.9923,-0.9923,-0.9923,-0.9923,-0.9148,-0.8627,-0.8101,-0.7404,-0.7577,-0.8189,1.0681,1.0681,1.0779,1.1268,1.097,1.097,1.175,1.1556,1.1463,1.1848,1.1945,1.175,1.1365,1.1268,1.1165,1.0676,0.9899,0.941,0.941,0.8528,0.8038,0.8038,0.8038,0.8038,0.8038,0.892,0.8898,0.7967,0.8841,0.8818,0.7899,0.7794,0.7743,0.774,0.7645,0.76,0.7597,0.755,0.7529,0.7522,0.7475,0.7455,0.7455,0.7455,0.7455,0.7441,0.7336,0.7299,0.7282,0.7177,0.7058,0.7061,0.7061,0.6618,0.618,0.6926,0.5925,0.502,0.6681,0.7055,0.6777,0.5223,0.2425,0.0,0.0,0.0,0.0,0.0,0.0,-0.0449,-0.1976,-0.486,-0.7131,-0.7121,-0.7108,-0.7091,-0.7078,-0.7074,-0.7068,-0.7143,-0.7139,-0.7139,-0.7139,-0.7139,-0.7139,-0.7139,-0.7139,-0.7228,-0.7665,-0.8452,-0.9061,-0.941,-1.0183,-0.9831,-0.8181,-0.9056,-0.9056,-0.8181,-0.9831,-1.0183,-0.9497,-1.0265,-1.0611,-1.0611,-1.0611,-1.0783,-1.1123,-1.1123,-1.1123,-1.1042,-1.0269,-0.9492,-0.8803,-0.836,-0.8536,-0.8978,0.8038,0.8038,0.8432,0.9702,0.8924,0.892,1.1458,1.0779,1.0485,1.1653,1.1853,1.1361,1.0096,0.9998,0.941,0.8137,0.8038,0.8038,0.8038,0.8035,0.8035,0.8035,0.8038,0.8038,0.8038,0.8035,0.7963,0.7811,0.7811,0.7736,0.76,0.7597,0.7597,0.7597,0.7597,0.7597,0.7587,0.7434,0.737,0.7356,0.7204,0.7139,0.7139,0.7139,0.7139,0.7139,0.7139,0.7139,0.7139,0.7139,0.7068,0.7084,0.7084,0.5544,0.4111,0.6394,0.7045,0.7052,0.7072,0.7078,0.5882,0.1169,0.0,0.0,0.0,0.0,-0.0,-0.009,-0.009,-0.1527,-0.6221,-0.7045,-0.7125,-0.7091,-0.7084,-0.7078,-0.7143,-0.7139,-0.7139,-0.7139,-0.7139,-0.7139,-0.7139,-0.7139,-0.7139,-0.7139,-0.7139,-0.7665,-0.889,-0.889,-0.9405,-1.0611,-1.0611,-1.0611,-1.0611,-1.0611,-1.0611,-1.0611,-1.0611,-1.0611,-1.0611,-1.0611,-1.0611,-1.0611,-1.0611,-1.1295,-1.2328,-1.2328,-1.2328,-1.2328,-1.2328,-1.0956,-0.9061,-1.0183,-0.9923,-0.9061,0.8038,0.8038,0.8137,0.8531,0.8233,0.8233,0.9019,0.8825,0.8726,0.9114,0.9114,0.9019,0.8627,0.8627,0.8432,0.8038,0.8038,0.7994,0.7885,0.7787,0.7733,0.7733,0.7828,0.7879,0.7879,0.778,0.7709,0.7662,0.7662,0.7641,0.7597,0.7489,0.7441,0.7434,0.7326,0.7278,0.7275,0.7227,0.721,0.7207,0.7156,0.7139,0.7139,0.7139,0.7139,0.7139,0.7139,0.7061,0.7074,0.7074,0.7084,0.7101,0.7115,0.6662,0.5576,0.2875,0.4506,0.6334,0.3061,0.2159,0.1798,0.036,0.0,0.0,0.0,0.0,-0.0988,-0.4318,-0.4952,-0.4945,-0.4659,-0.6008,-0.7098,-0.7088,-0.7071,-0.7061,-0.7143,-0.7139,-0.7139,-0.7139,-0.7139,-0.7139,-0.7139,-0.7139,-0.7139,-0.7139,-0.7841,-0.8886,-1.0009,-1.0869,-1.1466,-1.1809,-1.2601,-1.3039,-1.3039,-1.2248,-1.1381,-1.0611,-1.226,-1.2601,-1.1809,-1.2687,-1.3039,-1.3039,-1.3039,-1.3215,-1.3555,-1.3555,-1.3555,-1.347,-1.2589,-1.1895,-1.1209,-1.0783,-1.0864,-1.1295,0.8038,0.8038,0.8038,0.8038,0.8038,0.8038,0.8038,0.8038,0.8038,0.8038,0.8038,0.8038,0.8038,0.7984,0.795,0.795,0.7896,0.7828,0.7733,0.7648,0.76,0.76,0.7624,0.7665,0.7726,0.7645,0.757,0.7509,0.7509,0.7478,0.7417,0.7322,0.7282,0.7275,0.7183,0.7139,0.7139,0.7139,0.7139,0.7139,0.7139,0.7139,0.7139,0.7139,0.7139,0.7143,0.7061,0.7074,0.6992,0.5997,0.637,0.6754,0.4858,0.4318,0.3687,0.0809,0.2069,0.3695,0.0809,0.0,-0.0449,-0.2335,-0.1438,-0.0449,-0.2335,-0.2785,-0.3323,-0.53,-0.648,-0.6659,-0.5277,-0.6177,-0.7081,-0.7074,-0.7061,-0.7139,-0.7139,-0.7139,-0.7139,-0.7139,-0.7139,-0.7139,-0.7139,-0.7489,-0.8013,-0.8444,-0.9144,-1.0096,-1.1209,-1.1895,-1.2504,-1.3027,-1.373,-1.4088,-1.4088,-1.3379,-1.2681,-1.1997,-1.3385,-1.373,-1.3033,-1.3737,-1.4088,-1.4088,-1.4088,-1.4088,-1.4088,-1.4088,-1.4088,-1.4004,-1.3294,-1.2681,-1.2242,-1.2077,-1.2163,-1.2413,0.8038,0.8038,0.8038,0.8038,0.8038,0.8038,0.8038,0.8028,0.8018,0.8018,0.8007,0.8001,0.8001,0.7875,0.779,0.779,0.7662,0.758,0.7584,0.7567,0.756,0.7563,0.7428,0.7421,0.756,0.756,0.7492,0.735,0.735,0.7278,0.7139,0.7139,0.7139,0.7139,0.7139,0.7139,0.7139,0.7139,0.7139,0.7139,0.7139,0.7143,0.7143,0.7143,0.7143,0.7058,0.7081,0.7088,0.6726,0.4109,0.4663,0.5676,0.1348,0.0,0.0,0.0,0.0,-0.009,-0.0539,-0.0629,-0.1617,-0.5765,-0.3683,-0.1706,-0.5855,-0.6949,-0.6487,-0.438,-0.5641,-0.7098,-0.7084,-0.7081,-0.7074,-0.7143,-0.7139,-0.7139,-0.7139,-0.7139,-0.7139,-0.7139,-0.7139,-0.7139,-0.7228,-0.8364,-0.9492,-1.0697,-1.0783,-1.1209,-1.2413,-1.2498,-1.2942,-1.4088,-1.4088,-1.4088,-1.4088,-1.4088,-1.4088,-1.4088,-1.4088,-1.4088,-1.4088,-1.4088,-1.4088,-1.4088,-1.4088,-1.4088,-1.4088,-1.4088,-1.4088,-1.4088,-1.4088,-1.347,-1.2589,-1.373,-1.3379,-1.2589,0.8038,0.8038,0.8038,0.8038,0.8038,0.8038,0.8038,0.7936,0.7862,0.7862,0.7763,0.7695,0.7695,0.7665,0.7645,0.7645,0.7509,0.7428,0.7448,0.7316,0.7251,0.7188,0.7151,0.7148,0.7188,0.7251,0.7224,0.719,0.719,0.7173,0.7139,0.7139,0.7139,0.7139,0.7139,0.7139,0.7139,0.7139,0.7139,0.7139,0.7139,0.7061,0.7078,0.7078,0.7084,0.7091,0.7098,0.7111,0.6487,0.2242,0.1077,0.1348,0.0359,0.0,0.0,0.0,0.0,-0.0809,-0.4589,-0.5584,-0.5399,-0.4567,-0.4928,-0.5382,-0.4563,-0.5741,-0.6923,-0.6453,-0.6723,-0.7084,-0.7064,-0.7058,-0.7058,-0.7139,-0.7139,-0.7139,-0.7139,-0.7139,-0.7139,-0.7139,-0.7139,-0.7492,-0.8452,-0.9579,-1.0697,-1.1809,-1.1895,-1.2419,-1.3646,-1.373,-1.3822,-1.4088,-1.4088,-1.4088,-1.4088,-1.4088,-1.4088,-1.4088,-1.4088,-1.4088,-1.4088,-1.4088,-1.4088,-1.4088,-1.4088,-1.4088,-1.4088,-1.4088,-1.4088,-1.4088,-1.4088,-1.3913,-1.373,-1.3997,-1.3913,-1.3737,0.7955,0.8007,0.7967,0.7967,0.8007,0.7955,0.7955,0.7983,0.7835,0.7736,0.7668,0.7624,0.7624,0.756,0.7581,0.7411,0.7333,0.7288,0.7302,0.6117,0.5899,0.7012,0.6002,0.5455,0.546,0.5447,0.5983,0.7074,0.7071,0.7068,0.7068,0.7068,0.7068,0.7068,0.7074,0.7074,0.7074,0.7074,0.7074,0.7074,0.7074,0.7084,0.7002,0.5819,0.5458,0.5555,0.6656,0.5668,0.3326,0.0809,0.0,0.0,0.0,0.0,-0.0449,-0.2695,-0.3414,-0.3685,-0.5027,-0.6204,-0.684,-0.5549,-0.618,-0.6818,-0.5547,-0.6183,-0.7088,-0.7074,-0.7068,-0.7064,-0.7143,-0.7139,-0.7139,-0.7139,-0.7139,-0.7139,-0.7139,-0.7139,-0.7316,-0.7929,-0.7929,-0.8623,-1.0351,-1.1037,-1.1901,-1.3033,-1.3118,-1.347,-1.4088,-1.4088,-1.4088,-1.4088,-1.4088,-1.4088,-1.4088,-1.4088,-1.4088,-1.4088,-1.4088,-1.4088,-1.4088,-1.4088,-1.4088,-1.4088,-1.4088,-1.4088,-1.4088,-1.4088,-1.4088,-1.4088,-1.4088,-1.4088,-1.4088,-1.4088,-1.4088,-1.4088,0.7394,0.7312,0.7343,0.7343,0.7343,0.7357,0.7357,0.7338,0.7227,0.7032,0.6917,0.6901,0.6901,0.6891,0.6775,0.6563,0.6462,0.6646,0.7108,0.4919,0.4289,0.5836,0.4835,0.4022,0.3576,0.3576,0.4563,0.6462,0.6542,0.6723,0.7088,0.7088,0.6903,0.6539,0.6459,0.6462,0.6462,0.6462,0.6462,0.6462,0.6462,0.6739,0.6923,0.4924,0.3664,0.3218,0.5213,0.3326,0.0,0.0,0.0,0.0,0.0,-0.0539,-0.1976,-0.595,-0.7131,-0.6668,-0.4741,-0.5641,-0.7094,-0.7084,-0.7081,-0.7081,-0.7081,-0.7081,-0.7074,-0.7143,-0.7139,-0.7139,-0.7139,-0.7139,-0.7139,-0.7139,-0.7316,-0.7401,-0.7401,-0.7577,-0.8097,-0.9061,-0.9318,-1.0178,-1.2151,-1.2504,-1.3027,-1.3997,-1.4088,-1.4088,-1.4088,-1.4088,-1.4088,-1.4088,-1.4088,-1.4088,-1.4088,-1.4088,-1.4088,-1.4088,-1.4088,-1.4088,-1.4088,-1.4088,-1.4088,-1.4088,-1.4088,-1.4088,-1.4088,-1.4088,-1.4088,-1.4088,-1.4088,-1.4088,-1.4088,-1.4088,-1.4088,-1.4088,0.4981,0.4585,0.4579,0.4579,0.4569,0.4561,0.4561,0.4496,0.4537,0.4537,0.4282,0.4144,0.4144,0.4133,0.4121,0.4109,0.4107,0.4926,0.6949,0.4926,0.2771,0.1077,0.4585,0.5676,0.36,0.36,0.3771,0.4107,0.4107,0.5099,0.7101,0.7101,0.6005,0.4107,0.4107,0.4107,0.4107,0.4107,0.4107,0.4107,0.4107,0.529,0.7042,0.6764,0.4043,0.0539,0.0808,0.0539,0.0,0.0,0.0,0.0,0.0,-0.2785,-0.6224,-0.6952,-0.7121,-0.7012,-0.6726,-0.6815,-0.7081,-0.7061,-0.7058,-0.7058,-0.7058,-0.7058,-0.7143,-0.7139,-0.7139,-0.7139,-0.7139,-0.7139,-0.7139,-0.7139,-0.8017,-0.8627,-0.8627,-0.9488,-1.0178,-1.0351,-1.1209,-1.198,-1.2242,-1.3203,-1.3913,-1.4088,-1.4088,-1.4088,-1.4088,-1.4088,-1.4088,-1.4088,-1.4088,-1.4088,-1.4088,-1.4088,-1.4088,-1.4088,-1.4088,-1.4088,-1.4088,-1.4088,-1.4088,-1.4088,-1.4088,-1.4088,-1.4088,-1.4088,-1.4088,-1.4088,-1.4088,-1.4088,-1.4088,-1.4088,-1.4088,-1.4088,0.6501,0.3776,0.1777,0.1777,0.1761,0.1749,0.1749,0.1735,0.1726,0.1726,0.1621,0.1612,0.1612,0.1612,0.1612,0.1612,0.1612,0.2061,0.3056,0.2152,0.1076,0.009,0.4595,0.5325,0.1709,0.1619,0.1616,0.1612,0.1609,0.2144,0.322,0.5841,0.657,0.5476,0.2776,0.1612,0.1612,0.1612,0.1612,0.1612,0.1612,0.2241,0.3145,0.3145,0.1797,0.0,0.0,0.0,-0.0449,-0.3056,-0.3957,-0.3774,-0.2418,-0.3492,-0.5382,-0.6742,-0.7101,-0.7088,-0.7071,-0.7068,-0.7064,-0.7143,-0.7139,-0.7139,-0.7139,-0.7665,-0.7929,-0.7228,-0.7665,-0.8105,-0.8105,-0.8619,-0.9052,-0.9052,-0.9488,-0.9836,-0.9836,-1.0265,-1.0869,-1.1466,-1.2595,-1.3294,-1.3294,-1.3822,-1.4088,-1.4088,-1.4088,-1.4088,-1.4088,-1.4088,-1.4088,-1.4088,-1.4088,-1.4088,-1.4088,-1.4088,-1.4088,-1.4088,-1.4088,-1.4088,-1.4088,-1.4088,-1.4088,-1.4088,-1.4088,-1.4088,-1.4088,-1.4088,-1.4088,-1.4088,-1.4088,-1.4088,-1.4088,-1.4088,-1.4088,-1.4088]}]]